<?xml version="1.0" encoding="UTF-8"?>
<gpx version="1.1" creator="https://www.youtrack.es" xsi:schemaLocation="http://www.topografix.com/GPX/1/1 http://www.topografix.com/GPX/1/1/gpx.xsd http://www.garmin.com/xmlschemas/GpxExtensions/v3 http://www.garmin.com/xmlschemas/GpxExtensionsv3.xsd http://www.garmin.com/xmlschemas/TrackPointExtension/v1 http://www.garmin.com/xmlschemas/TrackPointExtensionv1.xsd" xmlns:gpxtpx="http://www.garmin.com/xmlschemas/TrackPointExtension/v1" xmlns:gpxx="http://www.garmin.com/xmlschemas/GpxExtensions/v3" xmlns:xsi="http://www.w3.org/2001/XMLSchema-instance">
  <metadata>
    <link href="https://www.youtrack.es">
      <text>YouTrack.es</text>
    </link>
    <time>2026-05-07T20:59:11Z</time>
  </metadata>
  <trk>
    <src>https://www.youtrack.es</src>
    <link href="https://www.youtrack.es/ruta/3679-xut-alos-st-jordi">
      <text>YouTrack.es</text>
    </link>
    <trkseg>
      <trkpt lat="41.905834" lon="0.891572">
        <ele>295.09</ele>
        <time>2017-01-18T15:09:09Z</time>
      </trkpt>
      <trkpt lat="41.905982" lon="0.892296">
        <ele>297.06</ele>
        <time>2017-01-18T15:09:29Z</time>
      </trkpt>
      <trkpt lat="41.905846" lon="0.892489">
        <ele>323.02</ele>
        <time>2017-01-18T15:09:49Z</time>
      </trkpt>
      <trkpt lat="41.906098" lon="0.892961">
        <ele>317.04</ele>
        <time>2017-01-18T15:10:09Z</time>
      </trkpt>
      <trkpt lat="41.906306" lon="0.893294">
        <ele>306.02</ele>
        <time>2017-01-18T15:10:29Z</time>
      </trkpt>
      <trkpt lat="41.906489" lon="0.893653">
        <ele>309.06</ele>
        <time>2017-01-18T15:10:49Z</time>
      </trkpt>
      <trkpt lat="41.906645" lon="0.893830">
        <ele>299.02</ele>
        <time>2017-01-18T15:11:09Z</time>
      </trkpt>
      <trkpt lat="41.906817" lon="0.894109">
        <ele>290.08</ele>
        <time>2017-01-18T15:11:29Z</time>
      </trkpt>
      <trkpt lat="41.906872" lon="0.894350">
        <ele>294.01</ele>
        <time>2017-01-18T15:11:49Z</time>
      </trkpt>
      <trkpt lat="41.907040" lon="0.894388">
        <ele>294.02</ele>
        <time>2017-01-18T15:12:09Z</time>
      </trkpt>
      <trkpt lat="41.907527" lon="0.894919">
        <ele>292.05</ele>
        <time>2017-01-18T15:12:29Z</time>
      </trkpt>
      <trkpt lat="41.907795" lon="0.894678">
        <ele>282.10</ele>
        <time>2017-01-18T15:12:49Z</time>
      </trkpt>
      <trkpt lat="41.908290" lon="0.895305">
        <ele>280.01</ele>
        <time>2017-01-18T15:13:09Z</time>
      </trkpt>
      <trkpt lat="41.908453" lon="0.895675">
        <ele>280.07</ele>
        <time>2017-01-18T15:13:29Z</time>
      </trkpt>
      <trkpt lat="41.908621" lon="0.896233">
        <ele>280.02</ele>
        <time>2017-01-18T15:13:49Z</time>
      </trkpt>
      <trkpt lat="41.908765" lon="0.897108">
        <ele>283.05</ele>
        <time>2017-01-18T15:14:09Z</time>
      </trkpt>
      <trkpt lat="41.908825" lon="0.897349">
        <ele>283.08</ele>
        <time>2017-01-18T15:14:29Z</time>
      </trkpt>
      <trkpt lat="41.908928" lon="0.897440">
        <ele>284.06</ele>
        <time>2017-01-18T15:14:49Z</time>
      </trkpt>
      <trkpt lat="41.908833" lon="0.897607">
        <ele>284.08</ele>
        <time>2017-01-18T15:15:09Z</time>
      </trkpt>
      <trkpt lat="41.908877" lon="0.897966">
        <ele>288.05</ele>
        <time>2017-01-18T15:15:29Z</time>
      </trkpt>
      <trkpt lat="41.908968" lon="0.897655">
        <ele>286.01</ele>
        <time>2017-01-18T15:15:49Z</time>
      </trkpt>
      <trkpt lat="41.909232" lon="0.897440">
        <ele>288.01</ele>
        <time>2017-01-18T15:16:09Z</time>
      </trkpt>
      <trkpt lat="41.909192" lon="0.897650">
        <ele>291.06</ele>
        <time>2017-01-18T15:16:29Z</time>
      </trkpt>
      <trkpt lat="41.909412" lon="0.897333">
        <ele>296.05</ele>
        <time>2017-01-18T15:16:49Z</time>
      </trkpt>
      <trkpt lat="41.909248" lon="0.897097">
        <ele>287.03</ele>
        <time>2017-01-18T15:17:09Z</time>
      </trkpt>
      <trkpt lat="41.909583" lon="0.897430">
        <ele>296.02</ele>
        <time>2017-01-18T15:17:29Z</time>
      </trkpt>
      <trkpt lat="41.909583" lon="0.897322">
        <ele>296.05</ele>
        <time>2017-01-18T15:17:49Z</time>
      </trkpt>
      <trkpt lat="41.909735" lon="0.897446">
        <ele>308.08</ele>
        <time>2017-01-18T15:18:09Z</time>
      </trkpt>
      <trkpt lat="41.909703" lon="0.897344">
        <ele>309.02</ele>
        <time>2017-01-18T15:18:29Z</time>
      </trkpt>
      <trkpt lat="41.909859" lon="0.897392">
        <ele>308.03</ele>
        <time>2017-01-18T15:18:49Z</time>
      </trkpt>
      <trkpt lat="41.909579" lon="0.897145">
        <ele>296.05</ele>
        <time>2017-01-18T15:19:09Z</time>
      </trkpt>
      <trkpt lat="41.909443" lon="0.897059">
        <ele>300.02</ele>
        <time>2017-01-18T15:19:29Z</time>
      </trkpt>
      <trkpt lat="41.909364" lon="0.896899">
        <ele>300.01</ele>
        <time>2017-01-18T15:19:49Z</time>
      </trkpt>
      <trkpt lat="41.909156" lon="0.896856">
        <ele>288.01</ele>
        <time>2017-01-18T15:20:09Z</time>
      </trkpt>
      <trkpt lat="41.909040" lon="0.896743">
        <ele>290.08</ele>
        <time>2017-01-18T15:20:29Z</time>
      </trkpt>
      <trkpt lat="41.909128" lon="0.896325">
        <ele>293.02</ele>
        <time>2017-01-18T15:20:49Z</time>
      </trkpt>
      <trkpt lat="41.909060" lon="0.896147">
        <ele>297.06</ele>
        <time>2017-01-18T15:21:09Z</time>
      </trkpt>
      <trkpt lat="41.909064" lon="0.895997">
        <ele>297.04</ele>
        <time>2017-01-18T15:21:29Z</time>
      </trkpt>
      <trkpt lat="41.909016" lon="0.895756">
        <ele>287.05</ele>
        <time>2017-01-18T15:21:49Z</time>
      </trkpt>
      <trkpt lat="41.909140" lon="0.895863">
        <ele>303.02</ele>
        <time>2017-01-18T15:22:09Z</time>
      </trkpt>
      <trkpt lat="41.909132" lon="0.895761">
        <ele>303.08</ele>
        <time>2017-01-18T15:22:29Z</time>
      </trkpt>
      <trkpt lat="41.909280" lon="0.895804">
        <ele>303.06</ele>
        <time>2017-01-18T15:22:49Z</time>
      </trkpt>
      <trkpt lat="41.909232" lon="0.896153">
        <ele>297.07</ele>
        <time>2017-01-18T15:23:09Z</time>
      </trkpt>
      <trkpt lat="41.909340" lon="0.896512">
        <ele>308.06</ele>
        <time>2017-01-18T15:23:29Z</time>
      </trkpt>
      <trkpt lat="41.909611" lon="0.895756">
        <ele>344.01</ele>
        <time>2017-01-18T15:23:49Z</time>
      </trkpt>
      <trkpt lat="41.909224" lon="0.895327">
        <ele>319.02</ele>
        <time>2017-01-18T15:24:09Z</time>
      </trkpt>
      <trkpt lat="41.908940" lon="0.894511">
        <ele>329.03</ele>
        <time>2017-01-18T15:24:29Z</time>
      </trkpt>
      <trkpt lat="41.909004" lon="0.894307">
        <ele>329.07</ele>
        <time>2017-01-18T15:24:49Z</time>
      </trkpt>
      <trkpt lat="41.908908" lon="0.893986">
        <ele>360.02</ele>
        <time>2017-01-18T15:25:09Z</time>
      </trkpt>
      <trkpt lat="41.908585" lon="0.893894">
        <ele>341.06</ele>
        <time>2017-01-18T15:25:29Z</time>
      </trkpt>
      <trkpt lat="41.908202" lon="0.893632">
        <ele>335.04</ele>
        <time>2017-01-18T15:25:49Z</time>
      </trkpt>
      <trkpt lat="41.908138" lon="0.893492">
        <ele>315.05</ele>
        <time>2017-01-18T15:26:09Z</time>
      </trkpt>
      <trkpt lat="41.908485" lon="0.893642">
        <ele>356.06</ele>
        <time>2017-01-18T15:26:29Z</time>
      </trkpt>
      <trkpt lat="41.908960" lon="0.893610">
        <ele>374.08</ele>
        <time>2017-01-18T15:26:49Z</time>
      </trkpt>
      <trkpt lat="41.908529" lon="0.893428">
        <ele>370.03</ele>
        <time>2017-01-18T15:27:09Z</time>
      </trkpt>
      <trkpt lat="41.908238" lon="0.892671">
        <ele>378.03</ele>
        <time>2017-01-18T15:27:29Z</time>
      </trkpt>
      <trkpt lat="41.908980" lon="0.892730">
        <ele>402.01</ele>
        <time>2017-01-18T15:27:49Z</time>
      </trkpt>
      <trkpt lat="41.909647" lon="0.892478">
        <ele>430.02</ele>
        <time>2017-01-18T15:28:09Z</time>
      </trkpt>
      <trkpt lat="41.909815" lon="0.892634">
        <ele>430.09</ele>
        <time>2017-01-18T15:28:29Z</time>
      </trkpt>
      <trkpt lat="41.909863" lon="0.892312">
        <ele>446.08</ele>
        <time>2017-01-18T15:28:49Z</time>
      </trkpt>
      <trkpt lat="41.909224" lon="0.891593">
        <ele>424.07</ele>
        <time>2017-01-18T15:29:09Z</time>
      </trkpt>
      <trkpt lat="41.909140" lon="0.891218">
        <ele>423.08</ele>
        <time>2017-01-18T15:29:29Z</time>
      </trkpt>
      <trkpt lat="41.908581" lon="0.890687">
        <ele>397.06</ele>
        <time>2017-01-18T15:29:49Z</time>
      </trkpt>
      <trkpt lat="41.908629" lon="0.890504">
        <ele>397.09</ele>
        <time>2017-01-18T15:30:09Z</time>
      </trkpt>
      <trkpt lat="41.908465" lon="0.890504">
        <ele>384.05</ele>
        <time>2017-01-18T15:30:29Z</time>
      </trkpt>
      <trkpt lat="41.908370" lon="0.890687">
        <ele>384.03</ele>
        <time>2017-01-18T15:30:49Z</time>
      </trkpt>
      <trkpt lat="41.908198" lon="0.890601">
        <ele>384.03</ele>
        <time>2017-01-18T15:31:09Z</time>
      </trkpt>
      <trkpt lat="41.908086" lon="0.890697">
        <ele>372.08</ele>
        <time>2017-01-18T15:31:29Z</time>
      </trkpt>
      <trkpt lat="41.907974" lon="0.890488">
        <ele>366.01</ele>
        <time>2017-01-18T15:31:49Z</time>
      </trkpt>
      <trkpt lat="41.907847" lon="0.890681">
        <ele>343.03</ele>
        <time>2017-01-18T15:32:09Z</time>
      </trkpt>
      <trkpt lat="41.907551" lon="0.890397">
        <ele>310.04</ele>
        <time>2017-01-18T15:32:29Z</time>
      </trkpt>
      <trkpt lat="41.907551" lon="0.890214">
        <ele>310.09</ele>
        <time>2017-01-18T15:32:49Z</time>
      </trkpt>
      <trkpt lat="41.907419" lon="0.890134">
        <ele>304.06</ele>
        <time>2017-01-18T15:33:09Z</time>
      </trkpt>
      <trkpt lat="41.907487" lon="0.889683">
        <ele>297.01</ele>
        <time>2017-01-18T15:33:29Z</time>
      </trkpt>
      <trkpt lat="41.907695" lon="0.889614">
        <ele>320.05</ele>
        <time>2017-01-18T15:33:49Z</time>
      </trkpt>
      <trkpt lat="41.907839" lon="0.889372">
        <ele>312.05</ele>
        <time>2017-01-18T15:34:09Z</time>
      </trkpt>
      <trkpt lat="41.907890" lon="0.889072">
        <ele>306.05</ele>
        <time>2017-01-18T15:34:29Z</time>
      </trkpt>
      <trkpt lat="41.908142" lon="0.888707">
        <ele>319.05</ele>
        <time>2017-01-18T15:34:49Z</time>
      </trkpt>
      <trkpt lat="41.908669" lon="0.888401">
        <ele>351.08</ele>
        <time>2017-01-18T15:35:09Z</time>
      </trkpt>
      <trkpt lat="41.908849" lon="0.888128">
        <ele>358.02</ele>
        <time>2017-01-18T15:35:29Z</time>
      </trkpt>
      <trkpt lat="41.909192" lon="0.887790">
        <ele>359.01</ele>
        <time>2017-01-18T15:35:49Z</time>
      </trkpt>
      <trkpt lat="41.909184" lon="0.887613">
        <ele>347.01</ele>
        <time>2017-01-18T15:36:09Z</time>
      </trkpt>
      <trkpt lat="41.909208" lon="0.887452">
        <ele>347.01</ele>
        <time>2017-01-18T15:36:29Z</time>
      </trkpt>
      <trkpt lat="41.909060" lon="0.887457">
        <ele>347.04</ele>
        <time>2017-01-18T15:36:49Z</time>
      </trkpt>
      <trkpt lat="41.909136" lon="0.886985">
        <ele>326.02</ele>
        <time>2017-01-18T15:37:09Z</time>
      </trkpt>
      <trkpt lat="41.909443" lon="0.886792">
        <ele>324.03</ele>
        <time>2017-01-18T15:37:29Z</time>
      </trkpt>
      <trkpt lat="41.909072" lon="0.887532">
        <ele>347.04</ele>
        <time>2017-01-18T15:37:49Z</time>
      </trkpt>
      <trkpt lat="41.908869" lon="0.887656">
        <ele>349.02</ele>
        <time>2017-01-18T15:38:09Z</time>
      </trkpt>
      <trkpt lat="41.908453" lon="0.887666">
        <ele>328.04</ele>
        <time>2017-01-18T15:38:29Z</time>
      </trkpt>
      <trkpt lat="41.907906" lon="0.886787">
        <ele>314.06</ele>
        <time>2017-01-18T15:38:49Z</time>
      </trkpt>
      <trkpt lat="41.907016" lon="0.885950">
        <ele>337.08</ele>
        <time>2017-01-18T15:39:09Z</time>
      </trkpt>
      <trkpt lat="41.907455" lon="0.885279">
        <ele>324.09</ele>
        <time>2017-01-18T15:39:29Z</time>
      </trkpt>
      <trkpt lat="41.908218" lon="0.884598">
        <ele>315.01</ele>
        <time>2017-01-18T15:39:49Z</time>
      </trkpt>
      <trkpt lat="41.908258" lon="0.884083">
        <ele>321.01</ele>
        <time>2017-01-18T15:40:09Z</time>
      </trkpt>
      <trkpt lat="41.908629" lon="0.883107">
        <ele>332.05</ele>
        <time>2017-01-18T15:40:29Z</time>
      </trkpt>
      <trkpt lat="41.908721" lon="0.882543">
        <ele>339.01</ele>
        <time>2017-01-18T15:40:49Z</time>
      </trkpt>
      <trkpt lat="41.908593" lon="0.882055">
        <ele>344.02</ele>
        <time>2017-01-18T15:41:09Z</time>
      </trkpt>
      <trkpt lat="41.908753" lon="0.882039">
        <ele>333.05</ele>
        <time>2017-01-18T15:41:29Z</time>
      </trkpt>
      <trkpt lat="41.908785" lon="0.881647">
        <ele>335.04</ele>
        <time>2017-01-18T15:41:49Z</time>
      </trkpt>
      <trkpt lat="41.908421" lon="0.880832">
        <ele>355.08</ele>
        <time>2017-01-18T15:42:09Z</time>
      </trkpt>
      <trkpt lat="41.907807" lon="0.880617">
        <ele>384.01</ele>
        <time>2017-01-18T15:42:29Z</time>
      </trkpt>
      <trkpt lat="41.907958" lon="0.880263">
        <ele>367.04</ele>
        <time>2017-01-18T15:42:49Z</time>
      </trkpt>
      <trkpt lat="41.907819" lon="0.879824">
        <ele>385.04</ele>
        <time>2017-01-18T15:43:09Z</time>
      </trkpt>
      <trkpt lat="41.907799" lon="0.879432">
        <ele>386.01</ele>
        <time>2017-01-18T15:43:29Z</time>
      </trkpt>
      <trkpt lat="41.907551" lon="0.879775">
        <ele>405.01</ele>
        <time>2017-01-18T15:43:49Z</time>
      </trkpt>
      <trkpt lat="41.907527" lon="0.879931">
        <ele>404.02</ele>
        <time>2017-01-18T15:44:09Z</time>
      </trkpt>
      <trkpt lat="41.907020" lon="0.880371">
        <ele>433.07</ele>
        <time>2017-01-18T15:44:29Z</time>
      </trkpt>
      <trkpt lat="41.907180" lon="0.881465">
        <ele>420.09</ele>
        <time>2017-01-18T15:44:49Z</time>
      </trkpt>
      <trkpt lat="41.907028" lon="0.881744">
        <ele>434.03</ele>
        <time>2017-01-18T15:45:09Z</time>
      </trkpt>
      <trkpt lat="41.906864" lon="0.881578">
        <ele>434.06</ele>
        <time>2017-01-18T15:45:29Z</time>
      </trkpt>
      <trkpt lat="41.906821" lon="0.881733">
        <ele>434.06</ele>
        <time>2017-01-18T15:45:49Z</time>
      </trkpt>
      <trkpt lat="41.906860" lon="0.882082">
        <ele>436.07</ele>
        <time>2017-01-18T15:46:09Z</time>
      </trkpt>
      <trkpt lat="41.906685" lon="0.882168">
        <ele>448.09</ele>
        <time>2017-01-18T15:46:29Z</time>
      </trkpt>
      <trkpt lat="41.906345" lon="0.883273">
        <ele>444.07</ele>
        <time>2017-01-18T15:46:49Z</time>
      </trkpt>
      <trkpt lat="41.905846" lon="0.883648">
        <ele>453.07</ele>
        <time>2017-01-18T15:47:09Z</time>
      </trkpt>
      <trkpt lat="41.905164" lon="0.883246">
        <ele>471.02</ele>
        <time>2017-01-18T15:47:29Z</time>
      </trkpt>
      <trkpt lat="41.905104" lon="0.883337">
        <ele>477.01</ele>
        <time>2017-01-18T15:47:49Z</time>
      </trkpt>
      <trkpt lat="41.904673" lon="0.883589">
        <ele>480.01</ele>
        <time>2017-01-18T15:48:09Z</time>
      </trkpt>
      <trkpt lat="41.904495" lon="0.883863">
        <ele>481.02</ele>
        <time>2017-01-18T15:48:29Z</time>
      </trkpt>
      <trkpt lat="41.904259" lon="0.884048">
        <ele>478.04</ele>
        <time>2017-01-18T15:48:49Z</time>
      </trkpt>
      <trkpt lat="41.904062" lon="0.884263">
        <ele>478.01</ele>
        <time>2017-01-18T15:49:09Z</time>
      </trkpt>
      <trkpt lat="41.903411" lon="0.884024">
        <ele>480.03</ele>
        <time>2017-01-18T15:49:29Z</time>
      </trkpt>
      <trkpt lat="41.903219" lon="0.883659">
        <ele>484.06</ele>
        <time>2017-01-18T15:49:49Z</time>
      </trkpt>
      <trkpt lat="41.903108" lon="0.883037">
        <ele>492.10</ele>
        <time>2017-01-18T15:50:09Z</time>
      </trkpt>
      <trkpt lat="41.902852" lon="0.881985">
        <ele>514.09</ele>
        <time>2017-01-18T15:50:29Z</time>
      </trkpt>
      <trkpt lat="41.902760" lon="0.881363">
        <ele>544.06</ele>
        <time>2017-01-18T15:50:49Z</time>
      </trkpt>
      <trkpt lat="41.902820" lon="0.880945">
        <ele>586.02</ele>
        <time>2017-01-18T15:51:09Z</time>
      </trkpt>
      <trkpt lat="41.902720" lon="0.880746">
        <ele>586.01</ele>
        <time>2017-01-18T15:51:29Z</time>
      </trkpt>
      <trkpt lat="41.902525" lon="0.879952">
        <ele>608.01</ele>
        <time>2017-01-18T15:51:49Z</time>
      </trkpt>
      <trkpt lat="41.902129" lon="0.879298">
        <ele>631.01</ele>
        <time>2017-01-18T15:52:09Z</time>
      </trkpt>
      <trkpt lat="41.901670" lon="0.879030">
        <ele>580.05</ele>
        <time>2017-01-18T15:52:29Z</time>
      </trkpt>
      <trkpt lat="41.901307" lon="0.878370">
        <ele>631.03</ele>
        <time>2017-01-18T15:52:49Z</time>
      </trkpt>
      <trkpt lat="41.900840" lon="0.877780">
        <ele>656.04</ele>
        <time>2017-01-18T15:53:09Z</time>
      </trkpt>
      <trkpt lat="41.900353" lon="0.877635">
        <ele>631.05</ele>
        <time>2017-01-18T15:53:29Z</time>
      </trkpt>
      <trkpt lat="41.899826" lon="0.877281">
        <ele>600.10</ele>
        <time>2017-01-18T15:53:49Z</time>
      </trkpt>
      <trkpt lat="41.899418" lon="0.876691">
        <ele>624.02</ele>
        <time>2017-01-18T15:54:09Z</time>
      </trkpt>
      <trkpt lat="41.899187" lon="0.876240">
        <ele>655.04</ele>
        <time>2017-01-18T15:54:29Z</time>
      </trkpt>
      <trkpt lat="41.899075" lon="0.875736">
        <ele>680.07</ele>
        <time>2017-01-18T15:54:49Z</time>
      </trkpt>
      <trkpt lat="41.898588" lon="0.875199">
        <ele>711.09</ele>
        <time>2017-01-18T15:55:09Z</time>
      </trkpt>
      <trkpt lat="41.898099" lon="0.874660">
        <ele>712.07</ele>
        <time>2017-01-18T15:55:29Z</time>
      </trkpt>
      <trkpt lat="41.897727" lon="0.874510">
        <ele>713.01</ele>
        <time>2017-01-18T15:55:49Z</time>
      </trkpt>
      <trkpt lat="41.897406" lon="0.874180">
        <ele>705.02</ele>
        <time>2017-01-18T15:56:09Z</time>
      </trkpt>
      <trkpt lat="41.897164" lon="0.874059">
        <ele>662.05</ele>
        <time>2017-01-18T15:56:29Z</time>
      </trkpt>
      <trkpt lat="41.896971" lon="0.873842">
        <ele>633.06</ele>
        <time>2017-01-18T15:56:49Z</time>
      </trkpt>
      <trkpt lat="41.896917" lon="0.873424">
        <ele>683.08</ele>
        <time>2017-01-18T15:57:09Z</time>
      </trkpt>
      <trkpt lat="41.896799" lon="0.873145">
        <ele>674.08</ele>
        <time>2017-01-18T15:57:29Z</time>
      </trkpt>
      <trkpt lat="41.896585" lon="0.872689">
        <ele>706.03</ele>
        <time>2017-01-18T15:57:49Z</time>
      </trkpt>
      <trkpt lat="41.896499" lon="0.872437">
        <ele>701.04</ele>
        <time>2017-01-18T15:58:09Z</time>
      </trkpt>
      <trkpt lat="41.896346" lon="0.872305">
        <ele>721.03</ele>
        <time>2017-01-18T15:58:29Z</time>
      </trkpt>
      <trkpt lat="41.896206" lon="0.872338">
        <ele>685.07</ele>
        <time>2017-01-18T15:58:49Z</time>
      </trkpt>
      <trkpt lat="41.896000" lon="0.872155">
        <ele>685.04</ele>
        <time>2017-01-18T15:59:09Z</time>
      </trkpt>
      <trkpt lat="41.895906" lon="0.872193">
        <ele>635.05</ele>
        <time>2017-01-18T15:59:29Z</time>
      </trkpt>
      <trkpt lat="41.895563" lon="0.871959">
        <ele>615.01</ele>
        <time>2017-01-18T15:59:49Z</time>
      </trkpt>
      <trkpt lat="41.895475" lon="0.871251">
        <ele>641.03</ele>
        <time>2017-01-18T16:00:09Z</time>
      </trkpt>
      <trkpt lat="41.895403" lon="0.870911">
        <ele>611.01</ele>
        <time>2017-01-18T16:00:29Z</time>
      </trkpt>
      <trkpt lat="41.895435" lon="0.870248">
        <ele>661.09</ele>
        <time>2017-01-18T16:00:49Z</time>
      </trkpt>
      <trkpt lat="41.895389" lon="0.869835">
        <ele>628.03</ele>
        <time>2017-01-18T16:01:09Z</time>
      </trkpt>
      <trkpt lat="41.895401" lon="0.869460">
        <ele>628.09</ele>
        <time>2017-01-18T16:01:29Z</time>
      </trkpt>
      <trkpt lat="41.895339" lon="0.869033">
        <ele>631.04</ele>
        <time>2017-01-18T16:01:49Z</time>
      </trkpt>
      <trkpt lat="41.895194" lon="0.868628">
        <ele>647.08</ele>
        <time>2017-01-18T16:02:09Z</time>
      </trkpt>
      <trkpt lat="41.894954" lon="0.868121">
        <ele>662.04</ele>
        <time>2017-01-18T16:02:29Z</time>
      </trkpt>
      <trkpt lat="41.894762" lon="0.867861">
        <ele>641.09</ele>
        <time>2017-01-18T16:02:49Z</time>
      </trkpt>
      <trkpt lat="41.894643" lon="0.867609">
        <ele>644.09</ele>
        <time>2017-01-18T16:03:09Z</time>
      </trkpt>
      <trkpt lat="41.894595" lon="0.867316">
        <ele>652.03</ele>
        <time>2017-01-18T16:03:29Z</time>
      </trkpt>
      <trkpt lat="41.894587" lon="0.867019">
        <ele>670.01</ele>
        <time>2017-01-18T16:03:49Z</time>
      </trkpt>
      <trkpt lat="41.894738" lon="0.867249">
        <ele>652.01</ele>
        <time>2017-01-18T16:04:09Z</time>
      </trkpt>
      <trkpt lat="41.894864" lon="0.867357">
        <ele>711.04</ele>
        <time>2017-01-18T16:04:29Z</time>
      </trkpt>
      <trkpt lat="41.894974" lon="0.867367">
        <ele>697.07</ele>
        <time>2017-01-18T16:04:49Z</time>
      </trkpt>
      <trkpt lat="41.895186" lon="0.867488">
        <ele>728.09</ele>
        <time>2017-01-18T16:05:09Z</time>
      </trkpt>
      <trkpt lat="41.895238" lon="0.867488">
        <ele>728.08</ele>
        <time>2017-01-18T16:05:29Z</time>
      </trkpt>
      <trkpt lat="41.895369" lon="0.867547">
        <ele>728.08</ele>
        <time>2017-01-18T16:05:49Z</time>
      </trkpt>
      <trkpt lat="41.895501" lon="0.867558">
        <ele>733.05</ele>
        <time>2017-01-18T16:06:09Z</time>
      </trkpt>
      <trkpt lat="41.895661" lon="0.867772">
        <ele>719.09</ele>
        <time>2017-01-18T16:06:29Z</time>
      </trkpt>
      <trkpt lat="41.895703" lon="0.867772">
        <ele>727.08</ele>
        <time>2017-01-18T16:06:49Z</time>
      </trkpt>
      <trkpt lat="41.895874" lon="0.867939">
        <ele>716.08</ele>
        <time>2017-01-18T16:07:09Z</time>
      </trkpt>
      <trkpt lat="41.895934" lon="0.867933">
        <ele>716.07</ele>
        <time>2017-01-18T16:07:29Z</time>
      </trkpt>
      <trkpt lat="41.895992" lon="0.868287">
        <ele>721.01</ele>
        <time>2017-01-18T16:07:49Z</time>
      </trkpt>
      <trkpt lat="41.896252" lon="0.868502">
        <ele>728.02</ele>
        <time>2017-01-18T16:08:09Z</time>
      </trkpt>
      <trkpt lat="41.896398" lon="0.868749">
        <ele>728.00</ele>
        <time>2017-01-18T16:08:29Z</time>
      </trkpt>
      <trkpt lat="41.896256" lon="0.869063">
        <ele>724.06</ele>
        <time>2017-01-18T16:08:49Z</time>
      </trkpt>
      <trkpt lat="41.896196" lon="0.869237">
        <ele>708.04</ele>
        <time>2017-01-18T16:09:09Z</time>
      </trkpt>
      <trkpt lat="41.896258" lon="0.869497">
        <ele>724.09</ele>
        <time>2017-01-18T16:09:29Z</time>
      </trkpt>
      <trkpt lat="41.896302" lon="0.869698">
        <ele>726.10</ele>
        <time>2017-01-18T16:09:49Z</time>
      </trkpt>
      <trkpt lat="41.896699" lon="0.869489">
        <ele>733.07</ele>
        <time>2017-01-18T16:10:09Z</time>
      </trkpt>
      <trkpt lat="41.896767" lon="0.869502">
        <ele>733.02</ele>
        <time>2017-01-18T16:10:29Z</time>
      </trkpt>
      <trkpt lat="41.896778" lon="0.869552">
        <ele>753.48</ele>
        <time>2016-09-04T09:26:12Z</time>
      </trkpt>
      <trkpt lat="41.896981" lon="0.869829">
        <ele>755.44</ele>
        <time>2016-09-04T09:26:14Z</time>
      </trkpt>
      <trkpt lat="41.897052" lon="0.869934">
        <ele>755.42</ele>
        <time>2016-09-04T09:26:15Z</time>
      </trkpt>
      <trkpt lat="41.897197" lon="0.870098">
        <ele>755.45</ele>
        <time>2016-09-04T09:26:16Z</time>
      </trkpt>
      <trkpt lat="41.897192" lon="0.870273">
        <ele>756.08</ele>
        <time>2016-09-04T09:26:17Z</time>
      </trkpt>
      <trkpt lat="41.897166" lon="0.870302">
        <ele>756.26</ele>
        <time>2016-09-04T09:26:18Z</time>
      </trkpt>
      <trkpt lat="41.897061" lon="0.870489">
        <ele>759.21</ele>
        <time>2016-09-04T09:26:19Z</time>
      </trkpt>
      <trkpt lat="41.896981" lon="0.870689">
        <ele>762.01</ele>
        <time>2016-09-04T09:26:20Z</time>
      </trkpt>
      <trkpt lat="41.896809" lon="0.870885">
        <ele>763.48</ele>
        <time>2016-09-04T09:26:21Z</time>
      </trkpt>
      <trkpt lat="41.896868" lon="0.871002">
        <ele>762.22</ele>
        <time>2016-09-04T09:26:22Z</time>
      </trkpt>
      <trkpt lat="41.896845" lon="0.871203">
        <ele>758.67</ele>
        <time>2016-09-04T09:26:23Z</time>
      </trkpt>
      <trkpt lat="41.896759" lon="0.871429">
        <ele>754.25</ele>
        <time>2016-09-04T09:26:24Z</time>
      </trkpt>
      <trkpt lat="41.896804" lon="0.871598">
        <ele>754.48</ele>
        <time>2016-09-04T09:26:25Z</time>
      </trkpt>
      <trkpt lat="41.896905" lon="0.871759">
        <ele>753.03</ele>
        <time>2016-09-04T09:26:26Z</time>
      </trkpt>
      <trkpt lat="41.896992" lon="0.871839">
        <ele>754.61</ele>
        <time>2016-09-04T09:26:27Z</time>
      </trkpt>
      <trkpt lat="41.897012" lon="0.871968">
        <ele>745.21</ele>
        <time>2016-09-04T09:26:28Z</time>
      </trkpt>
      <trkpt lat="41.897171" lon="0.872068">
        <ele>752.01</ele>
        <time>2016-09-04T09:26:29Z</time>
      </trkpt>
      <trkpt lat="41.897266" lon="0.872134">
        <ele>755.48</ele>
        <time>2016-09-04T09:26:30Z</time>
      </trkpt>
      <trkpt lat="41.897403" lon="0.872262">
        <ele>758.04</ele>
        <time>2016-09-04T09:26:31Z</time>
      </trkpt>
      <trkpt lat="41.897494" lon="0.872470">
        <ele>750.09</ele>
        <time>2016-09-04T09:26:32Z</time>
      </trkpt>
      <trkpt lat="41.897651" lon="0.872610">
        <ele>751.08</ele>
        <time>2016-09-04T09:26:33Z</time>
      </trkpt>
      <trkpt lat="41.897656" lon="0.872825">
        <ele>736.85</ele>
        <time>2016-09-04T09:26:34Z</time>
      </trkpt>
      <trkpt lat="41.897644" lon="0.873015">
        <ele>723.25</ele>
        <time>2016-09-04T09:26:35Z</time>
      </trkpt>
      <trkpt lat="41.897755" lon="0.873220">
        <ele>720.21</ele>
        <time>2016-09-04T09:26:37Z</time>
      </trkpt>
      <trkpt lat="41.897855" lon="0.873420">
        <ele>717.81</ele>
        <time>2016-09-04T09:26:38Z</time>
      </trkpt>
      <trkpt lat="41.897968" lon="0.873625">
        <ele>715.82</ele>
        <time>2016-09-04T09:26:39Z</time>
      </trkpt>
      <trkpt lat="41.898080" lon="0.873865">
        <ele>706.02</ele>
        <time>2016-09-04T09:26:40Z</time>
      </trkpt>
      <trkpt lat="41.898251" lon="0.873964">
        <ele>715.49</ele>
        <time>2016-09-04T09:26:42Z</time>
      </trkpt>
      <trkpt lat="41.898405" lon="0.874124">
        <ele>716.87</ele>
        <time>2016-09-04T09:26:43Z</time>
      </trkpt>
      <trkpt lat="41.898527" lon="0.874310">
        <ele>710.84</ele>
        <time>2016-09-04T09:26:44Z</time>
      </trkpt>
      <trkpt lat="41.898675" lon="0.874391">
        <ele>720.22</ele>
        <time>2016-09-04T09:26:45Z</time>
      </trkpt>
      <trkpt lat="41.898846" lon="0.874482">
        <ele>728.88</ele>
        <time>2016-09-04T09:26:47Z</time>
      </trkpt>
      <trkpt lat="41.899069" lon="0.874611">
        <ele>732.82</ele>
        <time>2016-09-04T09:26:48Z</time>
      </trkpt>
      <trkpt lat="41.899156" lon="0.874568">
        <ele>732.01</ele>
        <time>2016-09-04T09:26:49Z</time>
      </trkpt>
      <trkpt lat="41.899280" lon="0.874486">
        <ele>731.23</ele>
        <time>2016-09-04T09:26:50Z</time>
      </trkpt>
      <trkpt lat="41.899271" lon="0.874684">
        <ele>728.23</ele>
        <time>2016-09-04T09:26:51Z</time>
      </trkpt>
      <trkpt lat="41.899361" lon="0.875058">
        <ele>719.04</ele>
        <time>2016-09-04T09:26:53Z</time>
      </trkpt>
      <trkpt lat="41.899388" lon="0.875125">
        <ele>713.87</ele>
        <time>2016-09-04T09:26:54Z</time>
      </trkpt>
      <trkpt lat="41.899483" lon="0.875336">
        <ele>698.09</ele>
        <time>2016-09-04T09:26:55Z</time>
      </trkpt>
      <trkpt lat="41.899647" lon="0.875409">
        <ele>703.89</ele>
        <time>2016-09-04T09:26:56Z</time>
      </trkpt>
      <trkpt lat="41.899703" lon="0.875438">
        <ele>705.27</ele>
        <time>2016-09-04T09:26:57Z</time>
      </trkpt>
      <trkpt lat="41.899921" lon="0.875611">
        <ele>705.01</ele>
        <time>2016-09-04T09:26:58Z</time>
      </trkpt>
      <trkpt lat="41.899967" lon="0.875667">
        <ele>703.47</ele>
        <time>2016-09-04T09:26:59Z</time>
      </trkpt>
      <trkpt lat="41.900188" lon="0.875820">
        <ele>704.09</ele>
        <time>2016-09-04T09:27:00Z</time>
      </trkpt>
      <trkpt lat="41.900261" lon="0.875871">
        <ele>703.09</ele>
        <time>2016-09-04T09:27:01Z</time>
      </trkpt>
      <trkpt lat="41.900464" lon="0.876023">
        <ele>700.21</ele>
        <time>2016-09-04T09:27:02Z</time>
      </trkpt>
      <trkpt lat="41.900488" lon="0.876047">
        <ele>699.88</ele>
        <time>2016-09-04T09:27:03Z</time>
      </trkpt>
      <trkpt lat="41.900633" lon="0.876090">
        <ele>698.17</ele>
        <time>2016-09-04T09:27:04Z</time>
      </trkpt>
      <trkpt lat="41.900877" lon="0.876173">
        <ele>693.84</ele>
        <time>2016-09-04T09:27:05Z</time>
      </trkpt>
      <trkpt lat="41.900957" lon="0.876238">
        <ele>692.02</ele>
        <time>2016-09-04T09:27:06Z</time>
      </trkpt>
      <trkpt lat="41.901096" lon="0.876393">
        <ele>689.10</ele>
        <time>2016-09-04T09:27:07Z</time>
      </trkpt>
      <trkpt lat="41.901189" lon="0.876478">
        <ele>687.44</ele>
        <time>2016-09-04T09:27:08Z</time>
      </trkpt>
      <trkpt lat="41.901205" lon="0.876711">
        <ele>687.43</ele>
        <time>2016-09-04T09:27:09Z</time>
      </trkpt>
      <trkpt lat="41.901209" lon="0.876781">
        <ele>687.41</ele>
        <time>2016-09-04T09:27:10Z</time>
      </trkpt>
      <trkpt lat="41.901293" lon="0.877048">
        <ele>678.87</ele>
        <time>2016-09-04T09:27:11Z</time>
      </trkpt>
      <trkpt lat="41.901392" lon="0.877295">
        <ele>667.45</ele>
        <time>2016-09-04T09:27:12Z</time>
      </trkpt>
      <trkpt lat="41.901543" lon="0.877312">
        <ele>675.55</ele>
        <time>2016-09-04T09:27:13Z</time>
      </trkpt>
      <trkpt lat="41.901621" lon="0.877262">
        <ele>681.84</ele>
        <time>2016-09-04T09:27:14Z</time>
      </trkpt>
      <trkpt lat="41.901746" lon="0.877091">
        <ele>681.45</ele>
        <time>2016-09-04T09:27:15Z</time>
      </trkpt>
      <trkpt lat="41.901920" lon="0.877061">
        <ele>682.00</ele>
        <time>2016-09-04T09:27:17Z</time>
      </trkpt>
      <trkpt lat="41.902055" lon="0.876912">
        <ele>682.42</ele>
        <time>2016-09-04T09:27:18Z</time>
      </trkpt>
      <trkpt lat="41.902157" lon="0.876723">
        <ele>676.61</ele>
        <time>2016-09-04T09:27:19Z</time>
      </trkpt>
      <trkpt lat="41.902275" lon="0.876539">
        <ele>669.83</ele>
        <time>2016-09-04T09:27:20Z</time>
      </trkpt>
      <trkpt lat="41.902362" lon="0.876341">
        <ele>664.18</ele>
        <time>2016-09-04T09:27:21Z</time>
      </trkpt>
      <trkpt lat="41.902540" lon="0.876297">
        <ele>656.27</ele>
        <time>2016-09-04T09:27:22Z</time>
      </trkpt>
      <trkpt lat="41.902642" lon="0.876210">
        <ele>650.41</ele>
        <time>2016-09-04T09:27:23Z</time>
      </trkpt>
      <trkpt lat="41.902695" lon="0.876135">
        <ele>646.64</ele>
        <time>2016-09-04T09:27:24Z</time>
      </trkpt>
      <trkpt lat="41.902839" lon="0.875983">
        <ele>638.05</ele>
        <time>2016-09-04T09:27:25Z</time>
      </trkpt>
      <trkpt lat="41.902927" lon="0.875871">
        <ele>636.21</ele>
        <time>2016-09-04T09:27:26Z</time>
      </trkpt>
      <trkpt lat="41.903062" lon="0.875712">
        <ele>633.62</ele>
        <time>2016-09-04T09:27:27Z</time>
      </trkpt>
      <trkpt lat="41.903120" lon="0.875482">
        <ele>631.21</ele>
        <time>2016-09-04T09:27:28Z</time>
      </trkpt>
      <trkpt lat="41.903172" lon="0.875334">
        <ele>628.46</ele>
        <time>2016-09-04T09:27:29Z</time>
      </trkpt>
      <trkpt lat="41.903308" lon="0.875427">
        <ele>623.29</ele>
        <time>2016-09-04T09:27:30Z</time>
      </trkpt>
      <trkpt lat="41.903298" lon="0.875483">
        <ele>624.61</ele>
        <time>2016-09-04T09:27:31Z</time>
      </trkpt>
      <trkpt lat="41.903169" lon="0.875701">
        <ele>631.26</ele>
        <time>2016-09-04T09:27:32Z</time>
      </trkpt>
      <trkpt lat="41.903248" lon="0.875935">
        <ele>628.61</ele>
        <time>2016-09-04T09:27:33Z</time>
      </trkpt>
      <trkpt lat="41.903327" lon="0.876086">
        <ele>623.45</ele>
        <time>2016-09-04T09:27:34Z</time>
      </trkpt>
      <trkpt lat="41.903360" lon="0.876315">
        <ele>621.05</ele>
        <time>2016-09-04T09:27:35Z</time>
      </trkpt>
      <trkpt lat="41.903401" lon="0.876562">
        <ele>620.20</ele>
        <time>2016-09-04T09:27:37Z</time>
      </trkpt>
      <trkpt lat="41.903541" lon="0.876717">
        <ele>613.22</ele>
        <time>2016-09-04T09:27:38Z</time>
      </trkpt>
      <trkpt lat="41.903654" lon="0.876980">
        <ele>611.46</ele>
        <time>2016-09-04T09:27:39Z</time>
      </trkpt>
      <trkpt lat="41.903754" lon="0.877117">
        <ele>607.27</ele>
        <time>2016-09-04T09:27:40Z</time>
      </trkpt>
      <trkpt lat="41.903916" lon="0.877193">
        <ele>596.29</ele>
        <time>2016-09-04T09:27:42Z</time>
      </trkpt>
      <trkpt lat="41.904094" lon="0.877265">
        <ele>584.27</ele>
        <time>2016-09-04T09:27:43Z</time>
      </trkpt>
      <trkpt lat="41.904256" lon="0.877356">
        <ele>577.28</ele>
        <time>2016-09-04T09:27:44Z</time>
      </trkpt>
      <trkpt lat="41.904426" lon="0.877333">
        <ele>569.21</ele>
        <time>2016-09-04T09:27:45Z</time>
      </trkpt>
      <trkpt lat="41.904597" lon="0.877374">
        <ele>561.91</ele>
        <time>2016-09-04T09:27:46Z</time>
      </trkpt>
      <trkpt lat="41.904752" lon="0.877337">
        <ele>554.45</ele>
        <time>2016-09-04T09:27:47Z</time>
      </trkpt>
      <trkpt lat="41.904936" lon="0.877311">
        <ele>546.23</ele>
        <time>2016-09-04T09:27:49Z</time>
      </trkpt>
      <trkpt lat="41.905092" lon="0.877265">
        <ele>540.22</ele>
        <time>2016-09-04T09:27:50Z</time>
      </trkpt>
      <trkpt lat="41.905200" lon="0.877471">
        <ele>536.82</ele>
        <time>2016-09-04T09:27:51Z</time>
      </trkpt>
      <trkpt lat="41.905308" lon="0.877637">
        <ele>533.41</ele>
        <time>2016-09-04T09:27:52Z</time>
      </trkpt>
      <trkpt lat="41.905477" lon="0.877684">
        <ele>527.45</ele>
        <time>2016-09-04T09:27:53Z</time>
      </trkpt>
      <trkpt lat="41.905584" lon="0.877703">
        <ele>523.65</ele>
        <time>2016-09-04T09:27:54Z</time>
      </trkpt>
      <trkpt lat="41.905763" lon="0.877785">
        <ele>516.85</ele>
        <time>2016-09-04T09:27:55Z</time>
      </trkpt>
      <trkpt lat="41.905880" lon="0.877960">
        <ele>511.41</ele>
        <time>2016-09-04T09:27:56Z</time>
      </trkpt>
      <trkpt lat="41.906008" lon="0.878125">
        <ele>504.30</ele>
        <time>2016-09-04T09:27:57Z</time>
      </trkpt>
      <trkpt lat="41.906101" lon="0.878183">
        <ele>499.07</ele>
        <time>2016-09-04T09:27:58Z</time>
      </trkpt>
      <trkpt lat="41.906184" lon="0.878405">
        <ele>496.05</ele>
        <time>2016-09-04T09:27:59Z</time>
      </trkpt>
      <trkpt lat="41.906101" lon="0.878784">
        <ele>491.42</ele>
        <time>2016-09-04T09:28:01Z</time>
      </trkpt>
      <trkpt lat="41.906111" lon="0.878842">
        <ele>490.46</ele>
        <time>2016-09-04T09:28:02Z</time>
      </trkpt>
      <trkpt lat="41.905992" lon="0.879118">
        <ele>492.81</ele>
        <time>2016-09-04T09:28:03Z</time>
      </trkpt>
      <trkpt lat="41.905974" lon="0.879279">
        <ele>490.81</ele>
        <time>2016-09-04T09:28:04Z</time>
      </trkpt>
      <trkpt lat="41.905824" lon="0.879416">
        <ele>496.64</ele>
        <time>2016-09-04T09:28:05Z</time>
      </trkpt>
      <trkpt lat="41.905662" lon="0.879528">
        <ele>502.82</ele>
        <time>2016-09-04T09:28:06Z</time>
      </trkpt>
      <trkpt lat="41.905534" lon="0.879715">
        <ele>505.64</ele>
        <time>2016-09-04T09:28:08Z</time>
      </trkpt>
      <trkpt lat="41.905477" lon="0.880018">
        <ele>506.04</ele>
        <time>2016-09-04T09:28:09Z</time>
      </trkpt>
      <trkpt lat="41.905487" lon="0.880247">
        <ele>503.84</ele>
        <time>2016-09-04T09:28:10Z</time>
      </trkpt>
      <trkpt lat="41.905484" lon="0.880459">
        <ele>502.44</ele>
        <time>2016-09-04T09:28:11Z</time>
      </trkpt>
      <trkpt lat="41.905462" lon="0.880536">
        <ele>503.09</ele>
        <time>2016-09-04T09:28:12Z</time>
      </trkpt>
      <trkpt lat="41.905404" lon="0.880771">
        <ele>507.01</ele>
        <time>2016-09-04T09:28:13Z</time>
      </trkpt>
      <trkpt lat="41.905415" lon="0.880998">
        <ele>508.23</ele>
        <time>2016-09-04T09:28:14Z</time>
      </trkpt>
      <trkpt lat="41.905460" lon="0.881204">
        <ele>506.09</ele>
        <time>2016-09-04T09:28:15Z</time>
      </trkpt>
      <trkpt lat="41.905493" lon="0.881431">
        <ele>502.64</ele>
        <time>2016-09-04T09:28:16Z</time>
      </trkpt>
      <trkpt lat="41.905538" lon="0.881562">
        <ele>500.27</ele>
        <time>2016-09-04T09:28:17Z</time>
      </trkpt>
      <trkpt lat="41.905562" lon="0.881668">
        <ele>498.67</ele>
        <time>2016-09-04T09:28:18Z</time>
      </trkpt>
      <trkpt lat="41.905649" lon="0.881957">
        <ele>493.87</ele>
        <time>2016-09-04T09:28:19Z</time>
      </trkpt>
      <trkpt lat="41.905696" lon="0.882087">
        <ele>491.41</ele>
        <time>2016-09-04T09:28:20Z</time>
      </trkpt>
      <trkpt lat="41.905717" lon="0.882222">
        <ele>489.68</ele>
        <time>2016-09-04T09:28:21Z</time>
      </trkpt>
      <trkpt lat="41.905822" lon="0.882420">
        <ele>483.61</ele>
        <time>2016-09-04T09:28:22Z</time>
      </trkpt>
      <trkpt lat="41.905974" lon="0.882552">
        <ele>478.11</ele>
        <time>2016-09-04T09:28:23Z</time>
      </trkpt>
      <trkpt lat="41.906021" lon="0.882688">
        <ele>474.46</ele>
        <time>2016-09-04T09:28:24Z</time>
      </trkpt>
      <trkpt lat="41.906009" lon="0.882984">
        <ele>469.09</ele>
        <time>2016-09-04T09:28:25Z</time>
      </trkpt>
      <trkpt lat="41.905994" lon="0.883181">
        <ele>466.10</ele>
        <time>2016-09-04T09:28:26Z</time>
      </trkpt>
      <trkpt lat="41.905996" lon="0.883251">
        <ele>465.02</ele>
        <time>2016-09-04T09:28:27Z</time>
      </trkpt>
      <trkpt lat="41.906115" lon="0.883531">
        <ele>458.05</ele>
        <time>2016-09-04T09:28:28Z</time>
      </trkpt>
      <trkpt lat="41.906104" lon="0.883519">
        <ele>458.42</ele>
        <time>2016-09-04T09:28:29Z</time>
      </trkpt>
      <trkpt lat="41.906264" lon="0.883402">
        <ele>457.55</ele>
        <time>2016-09-04T09:28:30Z</time>
      </trkpt>
      <trkpt lat="41.906355" lon="0.883304">
        <ele>456.85</ele>
        <time>2016-09-04T09:28:31Z</time>
      </trkpt>
      <trkpt lat="41.906449" lon="0.883090">
        <ele>458.01</ele>
        <time>2016-09-04T09:28:32Z</time>
      </trkpt>
      <trkpt lat="41.906509" lon="0.882822">
        <ele>459.43</ele>
        <time>2016-09-04T09:28:33Z</time>
      </trkpt>
      <trkpt lat="41.906550" lon="0.882586">
        <ele>459.43</ele>
        <time>2016-09-04T09:28:34Z</time>
      </trkpt>
      <trkpt lat="41.906582" lon="0.882448">
        <ele>459.01</ele>
        <time>2016-09-04T09:28:35Z</time>
      </trkpt>
      <trkpt lat="41.906623" lon="0.882299">
        <ele>457.63</ele>
        <time>2016-09-04T09:28:36Z</time>
      </trkpt>
      <trkpt lat="41.906801" lon="0.882145">
        <ele>450.66</ele>
        <time>2016-09-04T09:28:37Z</time>
      </trkpt>
      <trkpt lat="41.906872" lon="0.882077">
        <ele>447.57</ele>
        <time>2016-09-04T09:28:38Z</time>
      </trkpt>
      <trkpt lat="41.906810" lon="0.881851">
        <ele>449.22</ele>
        <time>2016-09-04T09:28:39Z</time>
      </trkpt>
      <trkpt lat="41.906825" lon="0.881617">
        <ele>448.04</ele>
        <time>2016-09-04T09:28:40Z</time>
      </trkpt>
      <trkpt lat="41.906900" lon="0.881644">
        <ele>445.02</ele>
        <time>2016-09-04T09:28:41Z</time>
      </trkpt>
      <trkpt lat="41.907086" lon="0.881589">
        <ele>438.24</ele>
        <time>2016-09-04T09:28:42Z</time>
      </trkpt>
      <trkpt lat="41.907136" lon="0.881437">
        <ele>436.81</ele>
        <time>2016-09-04T09:28:43Z</time>
      </trkpt>
      <trkpt lat="41.907128" lon="0.881374">
        <ele>437.09</ele>
        <time>2016-09-04T09:28:44Z</time>
      </trkpt>
      <trkpt lat="41.907048" lon="0.881174">
        <ele>438.05</ele>
        <time>2016-09-04T09:28:45Z</time>
      </trkpt>
      <trkpt lat="41.907001" lon="0.880872">
        <ele>436.21</ele>
        <time>2016-09-04T09:28:46Z</time>
      </trkpt>
      <trkpt lat="41.906993" lon="0.880702">
        <ele>434.21</ele>
        <time>2016-09-04T09:28:47Z</time>
      </trkpt>
      <trkpt lat="41.907007" lon="0.880491">
        <ele>431.66</ele>
        <time>2016-09-04T09:28:48Z</time>
      </trkpt>
      <trkpt lat="41.907072" lon="0.880311">
        <ele>428.89</ele>
        <time>2016-09-04T09:28:49Z</time>
      </trkpt>
      <trkpt lat="41.907098" lon="0.880286">
        <ele>427.88</ele>
        <time>2016-09-04T09:28:50Z</time>
      </trkpt>
      <trkpt lat="41.907291" lon="0.880141">
        <ele>420.05</ele>
        <time>2016-09-04T09:28:51Z</time>
      </trkpt>
      <trkpt lat="41.907454" lon="0.880044">
        <ele>413.10</ele>
        <time>2016-09-04T09:28:52Z</time>
      </trkpt>
      <trkpt lat="41.907530" lon="0.879886">
        <ele>409.43</ele>
        <time>2016-09-04T09:28:53Z</time>
      </trkpt>
      <trkpt lat="41.907578" lon="0.879789">
        <ele>406.64</ele>
        <time>2016-09-04T09:28:54Z</time>
      </trkpt>
      <trkpt lat="41.907688" lon="0.879600">
        <ele>402.07</ele>
        <time>2016-09-04T09:28:55Z</time>
      </trkpt>
      <trkpt lat="41.907808" lon="0.879596">
        <ele>395.41</ele>
        <time>2016-09-04T09:28:56Z</time>
      </trkpt>
      <trkpt lat="41.907748" lon="0.879851">
        <ele>397.65</ele>
        <time>2016-09-04T09:28:57Z</time>
      </trkpt>
      <trkpt lat="41.907819" lon="0.880009">
        <ele>394.34</ele>
        <time>2016-09-04T09:28:58Z</time>
      </trkpt>
      <trkpt lat="41.907854" lon="0.880076">
        <ele>392.49</ele>
        <time>2016-09-04T09:28:59Z</time>
      </trkpt>
      <trkpt lat="41.907903" lon="0.880381">
        <ele>390.05</ele>
        <time>2016-09-04T09:29:00Z</time>
      </trkpt>
      <trkpt lat="41.907864" lon="0.880519">
        <ele>391.81</ele>
        <time>2016-09-04T09:29:01Z</time>
      </trkpt>
      <trkpt lat="41.907833" lon="0.880682">
        <ele>394.21</ele>
        <time>2016-09-04T09:29:02Z</time>
      </trkpt>
      <trkpt lat="41.908006" lon="0.880731">
        <ele>385.81</ele>
        <time>2016-09-04T09:29:03Z</time>
      </trkpt>
      <trkpt lat="41.908182" lon="0.880802">
        <ele>377.47</ele>
        <time>2016-09-04T09:29:04Z</time>
      </trkpt>
      <trkpt lat="41.908345" lon="0.880878">
        <ele>369.62</ele>
        <time>2016-09-04T09:29:05Z</time>
      </trkpt>
      <trkpt lat="41.908392" lon="0.880909">
        <ele>367.47</ele>
        <time>2016-09-04T09:29:06Z</time>
      </trkpt>
      <trkpt lat="41.908514" lon="0.881147">
        <ele>362.81</ele>
        <time>2016-09-04T09:29:07Z</time>
      </trkpt>
      <trkpt lat="41.908579" lon="0.881355">
        <ele>361.01</ele>
        <time>2016-09-04T09:29:08Z</time>
      </trkpt>
      <trkpt lat="41.908603" lon="0.881397">
        <ele>360.06</ele>
        <time>2016-09-04T09:29:09Z</time>
      </trkpt>
      <trkpt lat="41.908709" lon="0.881628">
        <ele>354.65</ele>
        <time>2016-09-04T09:29:10Z</time>
      </trkpt>
      <trkpt lat="41.908738" lon="0.881866">
        <ele>353.01</ele>
        <time>2016-09-04T09:29:11Z</time>
      </trkpt>
      <trkpt lat="41.908691" lon="0.882084">
        <ele>355.21</ele>
        <time>2016-09-04T09:29:12Z</time>
      </trkpt>
      <trkpt lat="41.908584" lon="0.882069">
        <ele>360.67</ele>
        <time>2016-09-04T09:29:13Z</time>
      </trkpt>
      <trkpt lat="41.908537" lon="0.882288">
        <ele>362.85</ele>
        <time>2016-09-04T09:29:14Z</time>
      </trkpt>
      <trkpt lat="41.908632" lon="0.882489">
        <ele>358.02</ele>
        <time>2016-09-04T09:29:15Z</time>
      </trkpt>
      <trkpt lat="41.908683" lon="0.882684">
        <ele>355.44</ele>
        <time>2016-09-04T09:29:16Z</time>
      </trkpt>
      <trkpt lat="41.908730" lon="0.882883">
        <ele>350.46</ele>
        <time>2016-09-04T09:29:17Z</time>
      </trkpt>
      <trkpt lat="41.908648" lon="0.883038">
        <ele>350.72</ele>
        <time>2016-09-04T09:29:18Z</time>
      </trkpt>
      <trkpt lat="41.908551" lon="0.883239">
        <ele>353.46</ele>
        <time>2016-09-04T09:29:19Z</time>
      </trkpt>
      <trkpt lat="41.908464" lon="0.883456">
        <ele>353.03</ele>
        <time>2016-09-04T09:29:21Z</time>
      </trkpt>
      <trkpt lat="41.908377" lon="0.883774">
        <ele>347.61</ele>
        <time>2016-09-04T09:29:22Z</time>
      </trkpt>
      <trkpt lat="41.908323" lon="0.883920">
        <ele>345.88</ele>
        <time>2016-09-04T09:29:23Z</time>
      </trkpt>
      <trkpt lat="41.908262" lon="0.884162">
        <ele>343.67</ele>
        <time>2016-09-04T09:29:24Z</time>
      </trkpt>
      <trkpt lat="41.908233" lon="0.884421">
        <ele>340.24</ele>
        <time>2016-09-04T09:29:26Z</time>
      </trkpt>
      <trkpt lat="41.908150" lon="0.884684">
        <ele>341.45</ele>
        <time>2016-09-04T09:29:27Z</time>
      </trkpt>
      <trkpt lat="41.908026" lon="0.884870">
        <ele>347.22</ele>
        <time>2016-09-04T09:29:28Z</time>
      </trkpt>
      <trkpt lat="41.907887" lon="0.885026">
        <ele>354.86</ele>
        <time>2016-09-04T09:29:30Z</time>
      </trkpt>
      <trkpt lat="41.907651" lon="0.885199">
        <ele>353.21</ele>
        <time>2016-09-04T09:29:31Z</time>
      </trkpt>
      <trkpt lat="41.907588" lon="0.885222">
        <ele>350.61</ele>
        <time>2016-09-04T09:29:32Z</time>
      </trkpt>
      <trkpt lat="41.907481" lon="0.885302">
        <ele>336.06</ele>
        <time>2016-09-04T09:29:33Z</time>
      </trkpt>
      <trkpt lat="41.907057" lon="0.885767">
        <ele>354.82</ele>
        <time>2016-09-04T09:29:36Z</time>
      </trkpt>
      <trkpt lat="41.907016" lon="0.885933">
        <ele>351.85</ele>
        <time>2016-09-04T09:29:37Z</time>
      </trkpt>
      <trkpt lat="41.906912" lon="0.886047">
        <ele>357.47</ele>
        <time>2016-09-04T09:29:38Z</time>
      </trkpt>
      <trkpt lat="41.907100" lon="0.886100">
        <ele>339.69</ele>
        <time>2016-09-04T09:29:40Z</time>
      </trkpt>
      <trkpt lat="41.907321" lon="0.886271">
        <ele>316.61</ele>
        <time>2016-09-04T09:29:41Z</time>
      </trkpt>
      <trkpt lat="41.907448" lon="0.886341">
        <ele>309.86</ele>
        <time>2016-09-04T09:29:42Z</time>
      </trkpt>
      <trkpt lat="41.907577" lon="0.886456">
        <ele>310.88</ele>
        <time>2016-09-04T09:29:43Z</time>
      </trkpt>
      <trkpt lat="41.907725" lon="0.886600">
        <ele>312.06</ele>
        <time>2016-09-04T09:29:45Z</time>
      </trkpt>
      <trkpt lat="41.907875" lon="0.886761">
        <ele>313.02</ele>
        <time>2016-09-04T09:29:46Z</time>
      </trkpt>
      <trkpt lat="41.908010" lon="0.886923">
        <ele>313.43</ele>
        <time>2016-09-04T09:29:47Z</time>
      </trkpt>
      <trkpt lat="41.908137" lon="0.887112">
        <ele>312.86</ele>
        <time>2016-09-04T09:29:48Z</time>
      </trkpt>
      <trkpt lat="41.908259" lon="0.887299">
        <ele>318.41</ele>
        <time>2016-09-04T09:29:50Z</time>
      </trkpt>
      <trkpt lat="41.908364" lon="0.887499">
        <ele>335.82</ele>
        <time>2016-09-04T09:29:51Z</time>
      </trkpt>
      <trkpt lat="41.908430" lon="0.887658">
        <ele>348.80</ele>
        <time>2016-09-04T09:29:52Z</time>
      </trkpt>
      <trkpt lat="41.908903" lon="0.887693">
        <ele>379.01</ele>
        <time>2016-09-04T09:29:55Z</time>
      </trkpt>
      <trkpt lat="41.909404" lon="0.887020">
        <ele>374.81</ele>
        <time>2016-09-04T09:30:00Z</time>
      </trkpt>
      <trkpt lat="41.909477" lon="0.886716">
        <ele>372.25</ele>
        <time>2016-09-04T09:30:01Z</time>
      </trkpt>
      <trkpt lat="41.909303" lon="0.886777">
        <ele>369.06</ele>
        <time>2016-09-04T09:30:02Z</time>
      </trkpt>
      <trkpt lat="41.909240" lon="0.886838">
        <ele>367.62</ele>
        <time>2016-09-04T09:30:03Z</time>
      </trkpt>
      <trkpt lat="41.909062" lon="0.886888">
        <ele>361.26</ele>
        <time>2016-09-04T09:30:04Z</time>
      </trkpt>
      <trkpt lat="41.908986" lon="0.886992">
        <ele>362.62</ele>
        <time>2016-09-04T09:30:05Z</time>
      </trkpt>
      <trkpt lat="41.909151" lon="0.887015">
        <ele>364.30</ele>
        <time>2016-09-04T09:30:06Z</time>
      </trkpt>
      <trkpt lat="41.909207" lon="0.887149">
        <ele>374.02</ele>
        <time>2016-09-04T09:30:07Z</time>
      </trkpt>
      <trkpt lat="41.909083" lon="0.887328">
        <ele>374.83</ele>
        <time>2016-09-04T09:30:08Z</time>
      </trkpt>
      <trkpt lat="41.908977" lon="0.887491">
        <ele>375.62</ele>
        <time>2016-09-04T09:30:09Z</time>
      </trkpt>
      <trkpt lat="41.908796" lon="0.887554">
        <ele>366.06</ele>
        <time>2016-09-04T09:30:10Z</time>
      </trkpt>
      <trkpt lat="41.908764" lon="0.887597">
        <ele>365.86</ele>
        <time>2016-09-04T09:30:11Z</time>
      </trkpt>
      <trkpt lat="41.908673" lon="0.887941">
        <ele>378.90</ele>
        <time>2016-09-04T09:30:12Z</time>
      </trkpt>
      <trkpt lat="41.908550" lon="0.888137">
        <ele>381.04</ele>
        <time>2016-09-04T09:30:14Z</time>
      </trkpt>
      <trkpt lat="41.908378" lon="0.888367">
        <ele>379.81</ele>
        <time>2016-09-04T09:30:15Z</time>
      </trkpt>
      <trkpt lat="41.908335" lon="0.888412">
        <ele>380.21</ele>
        <time>2016-09-04T09:30:16Z</time>
      </trkpt>
      <trkpt lat="41.908189" lon="0.888673">
        <ele>384.46</ele>
        <time>2016-09-04T09:30:17Z</time>
      </trkpt>
      <trkpt lat="41.908102" lon="0.888906">
        <ele>382.08</ele>
        <time>2016-09-04T09:30:19Z</time>
      </trkpt>
      <trkpt lat="41.907955" lon="0.889170">
        <ele>369.86</ele>
        <time>2016-09-04T09:30:20Z</time>
      </trkpt>
      <trkpt lat="41.907928" lon="0.889236">
        <ele>367.62</ele>
        <time>2016-09-04T09:30:21Z</time>
      </trkpt>
      <trkpt lat="41.907901" lon="0.889498">
        <ele>371.65</ele>
        <time>2016-09-04T09:30:22Z</time>
      </trkpt>
      <trkpt lat="41.907842" lon="0.889666">
        <ele>374.23</ele>
        <time>2016-09-04T09:30:23Z</time>
      </trkpt>
      <trkpt lat="41.907801" lon="0.889831">
        <ele>374.41</ele>
        <time>2016-09-04T09:30:24Z</time>
      </trkpt>
      <trkpt lat="41.907736" lon="0.890043">
        <ele>371.01</ele>
        <time>2016-09-04T09:30:25Z</time>
      </trkpt>
      <trkpt lat="41.907733" lon="0.890285">
        <ele>384.87</ele>
        <time>2016-09-04T09:30:26Z</time>
      </trkpt>
      <trkpt lat="41.907651" lon="0.890413">
        <ele>390.24</ele>
        <time>2016-09-04T09:30:27Z</time>
      </trkpt>
      <trkpt lat="41.907631" lon="0.890512">
        <ele>395.95</ele>
        <time>2016-09-04T09:30:28Z</time>
      </trkpt>
      <trkpt lat="41.907781" lon="0.890468">
        <ele>397.84</ele>
        <time>2016-09-04T09:30:29Z</time>
      </trkpt>
      <trkpt lat="41.907953" lon="0.890357">
        <ele>396.20</ele>
        <time>2016-09-04T09:30:30Z</time>
      </trkpt>
      <trkpt lat="41.907983" lon="0.890481">
        <ele>404.82</ele>
        <time>2016-09-04T09:30:31Z</time>
      </trkpt>
      <trkpt lat="41.907952" lon="0.890706">
        <ele>409.69</ele>
        <time>2016-09-04T09:30:32Z</time>
      </trkpt>
      <trkpt lat="41.908113" lon="0.890583">
        <ele>414.27</ele>
        <time>2016-09-04T09:30:34Z</time>
      </trkpt>
      <trkpt lat="41.908300" lon="0.890490">
        <ele>419.11</ele>
        <time>2016-09-04T09:30:35Z</time>
      </trkpt>
      <trkpt lat="41.908380" lon="0.890657">
        <ele>421.68</ele>
        <time>2016-09-04T09:30:36Z</time>
      </trkpt>
      <trkpt lat="41.908572" lon="0.890614">
        <ele>427.25</ele>
        <time>2016-09-04T09:30:37Z</time>
      </trkpt>
      <trkpt lat="41.908604" lon="0.890653">
        <ele>427.81</ele>
        <time>2016-09-04T09:30:38Z</time>
      </trkpt>
      <trkpt lat="41.908679" lon="0.890862">
        <ele>429.21</ele>
        <time>2016-09-04T09:30:39Z</time>
      </trkpt>
      <trkpt lat="41.908710" lon="0.890904">
        <ele>430.01</ele>
        <time>2016-09-04T09:30:40Z</time>
      </trkpt>
      <trkpt lat="41.908864" lon="0.891072">
        <ele>433.62</ele>
        <time>2016-09-04T09:30:41Z</time>
      </trkpt>
      <trkpt lat="41.909031" lon="0.891195">
        <ele>437.84</ele>
        <time>2016-09-04T09:30:42Z</time>
      </trkpt>
      <trkpt lat="41.909047" lon="0.891229">
        <ele>438.05</ele>
        <time>2016-09-04T09:30:43Z</time>
      </trkpt>
      <trkpt lat="41.909124" lon="0.891405">
        <ele>439.83</ele>
        <time>2016-09-04T09:30:44Z</time>
      </trkpt>
      <trkpt lat="41.909211" lon="0.891649">
        <ele>440.24</ele>
        <time>2016-09-04T09:30:45Z</time>
      </trkpt>
      <trkpt lat="41.909355" lon="0.891819">
        <ele>442.42</ele>
        <time>2016-09-04T09:30:46Z</time>
      </trkpt>
      <trkpt lat="41.909505" lon="0.892013">
        <ele>445.05</ele>
        <time>2016-09-04T09:30:48Z</time>
      </trkpt>
      <trkpt lat="41.909637" lon="0.892177">
        <ele>447.15</ele>
        <time>2016-09-04T09:30:49Z</time>
      </trkpt>
      <trkpt lat="41.909804" lon="0.892292">
        <ele>449.50</ele>
        <time>2016-09-04T09:30:50Z</time>
      </trkpt>
      <trkpt lat="41.909845" lon="0.892508">
        <ele>447.21</ele>
        <time>2016-09-04T09:30:51Z</time>
      </trkpt>
      <trkpt lat="41.909810" lon="0.892670">
        <ele>444.47</ele>
        <time>2016-09-04T09:30:52Z</time>
      </trkpt>
      <trkpt lat="41.909869" lon="0.892440">
        <ele>448.63</ele>
        <time>2016-09-04T09:30:53Z</time>
      </trkpt>
      <trkpt lat="41.909934" lon="0.892069">
        <ele>455.88</ele>
        <time>2016-09-04T09:30:55Z</time>
      </trkpt>
      <trkpt lat="41.909999" lon="0.892162">
        <ele>456.67</ele>
        <time>2016-09-04T09:30:56Z</time>
      </trkpt>
      <trkpt lat="41.910156" lon="0.892319">
        <ele>458.88</ele>
        <time>2016-09-04T09:30:57Z</time>
      </trkpt>
      <trkpt lat="41.910229" lon="0.892378">
        <ele>460.17</ele>
        <time>2016-09-04T09:30:58Z</time>
      </trkpt>
      <trkpt lat="41.910212" lon="0.892070">
        <ele>465.44</ele>
        <time>2016-09-04T09:30:59Z</time>
      </trkpt>
      <trkpt lat="41.910206" lon="0.891918">
        <ele>467.82</ele>
        <time>2016-09-04T09:31:00Z</time>
      </trkpt>
      <trkpt lat="41.910278" lon="0.891988">
        <ele>469.21</ele>
        <time>2016-09-04T09:31:01Z</time>
      </trkpt>
      <trkpt lat="41.910504" lon="0.892209">
        <ele>473.43</ele>
        <time>2016-09-04T09:31:02Z</time>
      </trkpt>
      <trkpt lat="41.910500" lon="0.892152">
        <ele>474.23</ele>
        <time>2016-09-04T09:31:03Z</time>
      </trkpt>
      <trkpt lat="41.910461" lon="0.891871">
        <ele>477.87</ele>
        <time>2016-09-04T09:31:04Z</time>
      </trkpt>
      <trkpt lat="41.910442" lon="0.891650">
        <ele>481.27</ele>
        <time>2016-09-04T09:31:05Z</time>
      </trkpt>
      <trkpt lat="41.910573" lon="0.891786">
        <ele>483.67</ele>
        <time>2016-09-04T09:31:06Z</time>
      </trkpt>
      <trkpt lat="41.910720" lon="0.891958">
        <ele>485.61</ele>
        <time>2016-09-04T09:31:08Z</time>
      </trkpt>
      <trkpt lat="41.910907" lon="0.892221">
        <ele>488.23</ele>
        <time>2016-09-04T09:31:09Z</time>
      </trkpt>
      <trkpt lat="41.910955" lon="0.892247">
        <ele>489.82</ele>
        <time>2016-09-04T09:31:10Z</time>
      </trkpt>
      <trkpt lat="41.910904" lon="0.892052">
        <ele>491.41</ele>
        <time>2016-09-04T09:31:11Z</time>
      </trkpt>
      <trkpt lat="41.910860" lon="0.891816">
        <ele>494.05</ele>
        <time>2016-09-04T09:31:12Z</time>
      </trkpt>
      <trkpt lat="41.910835" lon="0.891676">
        <ele>495.85</ele>
        <time>2016-09-04T09:31:13Z</time>
      </trkpt>
      <trkpt lat="41.910799" lon="0.891419">
        <ele>499.26</ele>
        <time>2016-09-04T09:31:14Z</time>
      </trkpt>
      <trkpt lat="41.910973" lon="0.891574">
        <ele>503.26</ele>
        <time>2016-09-04T09:31:15Z</time>
      </trkpt>
      <trkpt lat="41.911128" lon="0.891719">
        <ele>506.88</ele>
        <time>2016-09-04T09:31:17Z</time>
      </trkpt>
      <trkpt lat="41.911279" lon="0.891766">
        <ele>512.06</ele>
        <time>2016-09-04T09:31:18Z</time>
      </trkpt>
      <trkpt lat="41.911246" lon="0.891499">
        <ele>515.48</ele>
        <time>2016-09-04T09:31:20Z</time>
      </trkpt>
      <trkpt lat="41.911187" lon="0.891236">
        <ele>518.29</ele>
        <time>2016-09-04T09:31:21Z</time>
      </trkpt>
      <trkpt lat="41.911160" lon="0.890985">
        <ele>522.26</ele>
        <time>2016-09-04T09:31:22Z</time>
      </trkpt>
      <trkpt lat="41.911316" lon="0.891141">
        <ele>525.22</ele>
        <time>2016-09-04T09:31:24Z</time>
      </trkpt>
      <trkpt lat="41.911453" lon="0.891297">
        <ele>527.41</ele>
        <time>2016-09-04T09:31:25Z</time>
      </trkpt>
      <trkpt lat="41.911569" lon="0.891302">
        <ele>532.46</ele>
        <time>2016-09-04T09:31:26Z</time>
      </trkpt>
      <trkpt lat="41.911498" lon="0.891049">
        <ele>535.66</ele>
        <time>2016-09-04T09:31:27Z</time>
      </trkpt>
      <trkpt lat="41.911556" lon="0.891013">
        <ele>539.23</ele>
        <time>2016-09-04T09:31:28Z</time>
      </trkpt>
      <trkpt lat="41.911713" lon="0.891142">
        <ele>542.42</ele>
        <time>2016-09-04T09:31:29Z</time>
      </trkpt>
      <trkpt lat="41.911945" lon="0.891345">
        <ele>546.83</ele>
        <time>2016-09-04T09:31:31Z</time>
      </trkpt>
      <trkpt lat="41.911905" lon="0.891098">
        <ele>551.48</ele>
        <time>2016-09-04T09:31:33Z</time>
      </trkpt>
      <trkpt lat="41.911819" lon="0.890761">
        <ele>556.53</ele>
        <time>2016-09-04T09:31:34Z</time>
      </trkpt>
      <trkpt lat="41.911850" lon="0.890792">
        <ele>556.81</ele>
        <time>2016-09-04T09:31:35Z</time>
      </trkpt>
      <trkpt lat="41.912017" lon="0.890954">
        <ele>559.67</ele>
        <time>2016-09-04T09:31:36Z</time>
      </trkpt>
      <trkpt lat="41.912154" lon="0.891076">
        <ele>562.30</ele>
        <time>2016-09-04T09:31:37Z</time>
      </trkpt>
      <trkpt lat="41.912139" lon="0.890983">
        <ele>564.06</ele>
        <time>2016-09-04T09:31:38Z</time>
      </trkpt>
      <trkpt lat="41.912091" lon="0.890751">
        <ele>568.46</ele>
        <time>2016-09-04T09:31:39Z</time>
      </trkpt>
      <trkpt lat="41.912059" lon="0.890538">
        <ele>572.50</ele>
        <time>2016-09-04T09:31:40Z</time>
      </trkpt>
      <trkpt lat="41.912226" lon="0.890688">
        <ele>576.06</ele>
        <time>2016-09-04T09:31:41Z</time>
      </trkpt>
      <trkpt lat="41.912484" lon="0.890889">
        <ele>582.42</ele>
        <time>2016-09-04T09:31:43Z</time>
      </trkpt>
      <trkpt lat="41.912456" lon="0.890830">
        <ele>582.63</ele>
        <time>2016-09-04T09:31:44Z</time>
      </trkpt>
      <trkpt lat="41.912351" lon="0.890603">
        <ele>583.81</ele>
        <time>2016-09-04T09:31:45Z</time>
      </trkpt>
      <trkpt lat="41.912244" lon="0.890360">
        <ele>582.21</ele>
        <time>2016-09-04T09:31:47Z</time>
      </trkpt>
      <trkpt lat="41.912129" lon="0.890045">
        <ele>581.47</ele>
        <time>2016-09-04T09:31:48Z</time>
      </trkpt>
      <trkpt lat="41.912290" lon="0.890119">
        <ele>588.43</ele>
        <time>2016-09-04T09:31:49Z</time>
      </trkpt>
      <trkpt lat="41.912447" lon="0.890240">
        <ele>594.28</ele>
        <time>2016-09-04T09:31:51Z</time>
      </trkpt>
      <trkpt lat="41.912699" lon="0.890365">
        <ele>603.66</ele>
        <time>2016-09-04T09:31:52Z</time>
      </trkpt>
      <trkpt lat="41.912649" lon="0.890192">
        <ele>604.10</ele>
        <time>2016-09-04T09:31:53Z</time>
      </trkpt>
      <trkpt lat="41.912761" lon="0.890338">
        <ele>607.07</ele>
        <time>2016-09-04T09:31:54Z</time>
      </trkpt>
      <trkpt lat="41.912918" lon="0.890474">
        <ele>612.06</ele>
        <time>2016-09-04T09:31:56Z</time>
      </trkpt>
      <trkpt lat="41.913082" lon="0.890628">
        <ele>616.82</ele>
        <time>2016-09-04T09:31:57Z</time>
      </trkpt>
      <trkpt lat="41.913231" lon="0.890808">
        <ele>620.21</ele>
        <time>2016-09-04T09:31:58Z</time>
      </trkpt>
      <trkpt lat="41.913370" lon="0.891000">
        <ele>624.17</ele>
        <time>2016-09-04T09:32:00Z</time>
      </trkpt>
      <trkpt lat="41.913501" lon="0.891190">
        <ele>627.63</ele>
        <time>2016-09-04T09:32:01Z</time>
      </trkpt>
      <trkpt lat="41.913608" lon="0.891386">
        <ele>629.87</ele>
        <time>2016-09-04T09:32:02Z</time>
      </trkpt>
      <trkpt lat="41.913659" lon="0.891355">
        <ele>633.23</ele>
        <time>2016-09-04T09:32:03Z</time>
      </trkpt>
      <trkpt lat="41.913603" lon="0.891091">
        <ele>635.27</ele>
        <time>2016-09-04T09:32:05Z</time>
      </trkpt>
      <trkpt lat="41.913536" lon="0.890858">
        <ele>635.81</ele>
        <time>2016-09-04T09:32:06Z</time>
      </trkpt>
      <trkpt lat="41.913477" lon="0.890583">
        <ele>636.67</ele>
        <time>2016-09-04T09:32:07Z</time>
      </trkpt>
      <trkpt lat="41.913417" lon="0.890307">
        <ele>638.01</ele>
        <time>2016-09-04T09:32:09Z</time>
      </trkpt>
      <trkpt lat="41.913345" lon="0.890061">
        <ele>638.25</ele>
        <time>2016-09-04T09:32:10Z</time>
      </trkpt>
      <trkpt lat="41.913455" lon="0.890254">
        <ele>640.61</ele>
        <time>2016-09-04T09:32:11Z</time>
      </trkpt>
      <trkpt lat="41.913594" lon="0.890470">
        <ele>644.21</ele>
        <time>2016-09-04T09:32:13Z</time>
      </trkpt>
      <trkpt lat="41.913731" lon="0.890655">
        <ele>648.29</ele>
        <time>2016-09-04T09:32:14Z</time>
      </trkpt>
      <trkpt lat="41.913794" lon="0.890688">
        <ele>650.83</ele>
        <time>2016-09-04T09:32:15Z</time>
      </trkpt>
      <trkpt lat="41.913737" lon="0.890515">
        <ele>650.44</ele>
        <time>2016-09-04T09:32:16Z</time>
      </trkpt>
      <trkpt lat="41.913694" lon="0.890296">
        <ele>651.84</ele>
        <time>2016-09-04T09:32:17Z</time>
      </trkpt>
      <trkpt lat="41.913671" lon="0.890029">
        <ele>652.83</ele>
        <time>2016-09-04T09:32:18Z</time>
      </trkpt>
      <trkpt lat="41.913697" lon="0.889772">
        <ele>654.06</ele>
        <time>2016-09-04T09:32:19Z</time>
      </trkpt>
      <trkpt lat="41.913683" lon="0.889588">
        <ele>653.49</ele>
        <time>2016-09-04T09:32:20Z</time>
      </trkpt>
      <trkpt lat="41.913602" lon="0.889517">
        <ele>650.41</ele>
        <time>2016-09-04T09:32:21Z</time>
      </trkpt>
      <trkpt lat="41.913580" lon="0.889428">
        <ele>649.69</ele>
        <time>2016-09-04T09:32:22Z</time>
      </trkpt>
      <trkpt lat="41.913715" lon="0.889541">
        <ele>654.50</ele>
        <time>2016-09-04T09:32:23Z</time>
      </trkpt>
      <trkpt lat="41.913833" lon="0.889415">
        <ele>662.25</ele>
        <time>2016-09-04T09:32:24Z</time>
      </trkpt>
      <trkpt lat="41.913815" lon="0.889378">
        <ele>660.83</ele>
        <time>2016-09-04T09:32:25Z</time>
      </trkpt>
      <trkpt lat="41.913659" lon="0.889125">
        <ele>654.12</ele>
        <time>2016-09-04T09:32:26Z</time>
      </trkpt>
      <trkpt lat="41.913611" lon="0.888911">
        <ele>653.07</ele>
        <time>2016-09-04T09:32:27Z</time>
      </trkpt>
      <trkpt lat="41.913575" lon="0.888589">
        <ele>652.33</ele>
        <time>2016-09-04T09:32:29Z</time>
      </trkpt>
      <trkpt lat="41.913455" lon="0.888315">
        <ele>646.12</ele>
        <time>2016-09-04T09:32:30Z</time>
      </trkpt>
      <trkpt lat="41.913392" lon="0.888079">
        <ele>641.71</ele>
        <time>2016-09-04T09:32:32Z</time>
      </trkpt>
      <trkpt lat="41.913396" lon="0.887854">
        <ele>642.33</ele>
        <time>2016-09-04T09:32:33Z</time>
      </trkpt>
      <trkpt lat="41.913344" lon="0.887586">
        <ele>641.54</ele>
        <time>2016-09-04T09:32:34Z</time>
      </trkpt>
      <trkpt lat="41.913416" lon="0.887436">
        <ele>647.24</ele>
        <time>2016-09-04T09:32:35Z</time>
      </trkpt>
      <trkpt lat="41.913408" lon="0.886996">
        <ele>647.18</ele>
        <time>2016-09-04T09:32:37Z</time>
      </trkpt>
      <trkpt lat="41.913328" lon="0.886738">
        <ele>645.95</ele>
        <time>2016-09-04T09:32:39Z</time>
      </trkpt>
      <trkpt lat="41.913503" lon="0.885762">
        <ele>651.82</ele>
        <time>2016-09-04T09:32:44Z</time>
      </trkpt>
      <trkpt lat="41.913424" lon="0.885365">
        <ele>647.41</ele>
        <time>2016-09-04T09:32:46Z</time>
      </trkpt>
      <trkpt lat="41.913440" lon="0.884850">
        <ele>638.94</ele>
        <time>2016-09-04T09:32:48Z</time>
      </trkpt>
      <trkpt lat="41.913144" lon="0.883799">
        <ele>604.75</ele>
        <time>2016-09-04T09:32:54Z</time>
      </trkpt>
      <trkpt lat="41.913216" lon="0.883584">
        <ele>611.25</ele>
        <time>2016-09-04T09:32:55Z</time>
      </trkpt>
      <trkpt lat="41.915388" lon="0.883337">
        <ele>669.21</ele>
        <time>2016-09-04T09:33:10Z</time>
      </trkpt>
      <trkpt lat="41.916162" lon="0.883380">
        <ele>670.81</ele>
        <time>2016-09-04T09:33:15Z</time>
      </trkpt>
      <trkpt lat="41.917088" lon="0.883305">
        <ele>661.09</ele>
        <time>2016-09-04T09:33:21Z</time>
      </trkpt>
      <trkpt lat="41.918150" lon="0.883133">
        <ele>665.84</ele>
        <time>2016-09-04T09:33:28Z</time>
      </trkpt>
      <trkpt lat="41.918286" lon="0.884078">
        <ele>662.54</ele>
        <time>2016-09-04T09:33:33Z</time>
      </trkpt>
      <trkpt lat="41.918725" lon="0.885258">
        <ele>660.64</ele>
        <time>2016-09-04T09:33:39Z</time>
      </trkpt>
      <trkpt lat="41.919299" lon="0.886610">
        <ele>654.41</ele>
        <time>2016-09-04T09:33:47Z</time>
      </trkpt>
      <trkpt lat="41.919643" lon="0.886942">
        <ele>652.74</ele>
        <time>2016-09-04T09:33:50Z</time>
      </trkpt>
      <trkpt lat="41.920146" lon="0.888970">
        <ele>626.24</ele>
        <time>2016-09-04T09:34:00Z</time>
      </trkpt>
      <trkpt lat="41.920376" lon="0.890499">
        <ele>607.64</ele>
        <time>2016-09-04T09:34:08Z</time>
      </trkpt>
      <trkpt lat="41.920384" lon="0.890669">
        <ele>602.80</ele>
        <time>2016-09-04T09:34:09Z</time>
      </trkpt>
      <trkpt lat="41.920384" lon="0.890921">
        <ele>603.01</ele>
        <time>2016-09-04T09:34:10Z</time>
      </trkpt>
      <trkpt lat="41.920397" lon="0.891143">
        <ele>602.61</ele>
        <time>2016-09-04T09:34:11Z</time>
      </trkpt>
      <trkpt lat="41.920416" lon="0.891478">
        <ele>601.68</ele>
        <time>2016-09-04T09:34:13Z</time>
      </trkpt>
      <trkpt lat="41.920446" lon="0.891727">
        <ele>602.62</ele>
        <time>2016-09-04T09:34:14Z</time>
      </trkpt>
      <trkpt lat="41.920454" lon="0.891780">
        <ele>602.82</ele>
        <time>2016-09-04T09:34:15Z</time>
      </trkpt>
      <trkpt lat="41.920499" lon="0.892027">
        <ele>603.29</ele>
        <time>2016-09-04T09:34:16Z</time>
      </trkpt>
      <trkpt lat="41.920525" lon="0.892227">
        <ele>602.02</ele>
        <time>2016-09-04T09:34:17Z</time>
      </trkpt>
      <trkpt lat="41.920494" lon="0.892410">
        <ele>603.45</ele>
        <time>2016-09-04T09:34:18Z</time>
      </trkpt>
      <trkpt lat="41.920524" lon="0.892671">
        <ele>606.22</ele>
        <time>2016-09-04T09:34:19Z</time>
      </trkpt>
      <trkpt lat="41.920536" lon="0.892922">
        <ele>608.70</ele>
        <time>2016-09-04T09:34:20Z</time>
      </trkpt>
      <trkpt lat="41.920545" lon="0.893048">
        <ele>610.02</ele>
        <time>2016-09-04T09:34:21Z</time>
      </trkpt>
      <trkpt lat="41.920602" lon="0.893310">
        <ele>616.01</ele>
        <time>2016-09-04T09:34:22Z</time>
      </trkpt>
      <trkpt lat="41.920638" lon="0.893594">
        <ele>622.43</ele>
        <time>2016-09-04T09:34:24Z</time>
      </trkpt>
      <trkpt lat="41.920685" lon="0.893857">
        <ele>628.69</ele>
        <time>2016-09-04T09:34:25Z</time>
      </trkpt>
      <trkpt lat="41.920716" lon="0.894124">
        <ele>633.48</ele>
        <time>2016-09-04T09:34:27Z</time>
      </trkpt>
      <trkpt lat="41.920733" lon="0.894346">
        <ele>637.44</ele>
        <time>2016-09-04T09:34:28Z</time>
      </trkpt>
      <trkpt lat="41.920722" lon="0.894603">
        <ele>641.69</ele>
        <time>2016-09-04T09:34:29Z</time>
      </trkpt>
      <trkpt lat="41.920754" lon="0.894853">
        <ele>644.43</ele>
        <time>2016-09-04T09:34:30Z</time>
      </trkpt>
      <trkpt lat="41.920784" lon="0.895105">
        <ele>645.25</ele>
        <time>2016-09-04T09:34:31Z</time>
      </trkpt>
      <trkpt lat="41.920777" lon="0.895382">
        <ele>645.97</ele>
        <time>2016-09-04T09:34:33Z</time>
      </trkpt>
      <trkpt lat="41.920802" lon="0.895628">
        <ele>646.27</ele>
        <time>2016-09-04T09:34:34Z</time>
      </trkpt>
      <trkpt lat="41.920848" lon="0.895883">
        <ele>645.24</ele>
        <time>2016-09-04T09:34:35Z</time>
      </trkpt>
      <trkpt lat="41.920941" lon="0.896219">
        <ele>644.41</ele>
        <time>2016-09-04T09:34:37Z</time>
      </trkpt>
      <trkpt lat="41.921041" lon="0.896424">
        <ele>644.22</ele>
        <time>2016-09-04T09:34:38Z</time>
      </trkpt>
      <trkpt lat="41.921136" lon="0.896588">
        <ele>644.69</ele>
        <time>2016-09-04T09:34:39Z</time>
      </trkpt>
      <trkpt lat="41.921167" lon="0.896677">
        <ele>644.81</ele>
        <time>2016-09-04T09:34:40Z</time>
      </trkpt>
      <trkpt lat="41.921227" lon="0.896923">
        <ele>644.70</ele>
        <time>2016-09-04T09:34:41Z</time>
      </trkpt>
      <trkpt lat="41.921245" lon="0.897177">
        <ele>643.21</ele>
        <time>2016-09-04T09:34:42Z</time>
      </trkpt>
      <trkpt lat="41.921281" lon="0.897541">
        <ele>642.02</ele>
        <time>2016-09-04T09:34:44Z</time>
      </trkpt>
      <trkpt lat="41.921277" lon="0.897798">
        <ele>641.26</ele>
        <time>2016-09-04T09:34:45Z</time>
      </trkpt>
      <trkpt lat="41.921248" lon="0.898051">
        <ele>641.29</ele>
        <time>2016-09-04T09:34:47Z</time>
      </trkpt>
      <trkpt lat="41.921233" lon="0.898292">
        <ele>640.88</ele>
        <time>2016-09-04T09:34:48Z</time>
      </trkpt>
      <trkpt lat="41.921168" lon="0.898534">
        <ele>640.22</ele>
        <time>2016-09-04T09:34:49Z</time>
      </trkpt>
      <trkpt lat="41.921174" lon="0.898773">
        <ele>640.21</ele>
        <time>2016-09-04T09:34:50Z</time>
      </trkpt>
      <trkpt lat="41.921249" lon="0.899014">
        <ele>640.25</ele>
        <time>2016-09-04T09:34:52Z</time>
      </trkpt>
      <trkpt lat="41.921323" lon="0.899242">
        <ele>640.09</ele>
        <time>2016-09-04T09:34:53Z</time>
      </trkpt>
      <trkpt lat="41.921388" lon="0.899481">
        <ele>639.66</ele>
        <time>2016-09-04T09:34:54Z</time>
      </trkpt>
      <trkpt lat="41.921513" lon="0.899692">
        <ele>639.62</ele>
        <time>2016-09-04T09:34:56Z</time>
      </trkpt>
      <trkpt lat="41.921596" lon="0.899938">
        <ele>639.07</ele>
        <time>2016-09-04T09:34:57Z</time>
      </trkpt>
      <trkpt lat="41.921645" lon="0.900180">
        <ele>637.66</ele>
        <time>2016-09-04T09:34:58Z</time>
      </trkpt>
      <trkpt lat="41.921678" lon="0.900338">
        <ele>636.84</ele>
        <time>2016-09-04T09:34:59Z</time>
      </trkpt>
      <trkpt lat="41.921709" lon="0.900604">
        <ele>635.44</ele>
        <time>2016-09-04T09:35:00Z</time>
      </trkpt>
      <trkpt lat="41.921765" lon="0.900868">
        <ele>634.63</ele>
        <time>2016-09-04T09:35:02Z</time>
      </trkpt>
      <trkpt lat="41.921818" lon="0.901136">
        <ele>633.66</ele>
        <time>2016-09-04T09:35:03Z</time>
      </trkpt>
      <trkpt lat="41.921883" lon="0.901376">
        <ele>632.81</ele>
        <time>2016-09-04T09:35:04Z</time>
      </trkpt>
      <trkpt lat="41.921959" lon="0.901629">
        <ele>632.61</ele>
        <time>2016-09-04T09:35:06Z</time>
      </trkpt>
      <trkpt lat="41.921962" lon="0.901870">
        <ele>632.46</ele>
        <time>2016-09-04T09:35:07Z</time>
      </trkpt>
      <trkpt lat="41.921909" lon="0.902121">
        <ele>631.68</ele>
        <time>2016-09-04T09:35:08Z</time>
      </trkpt>
      <trkpt lat="41.921908" lon="0.902338">
        <ele>632.16</ele>
        <time>2016-09-04T09:35:09Z</time>
      </trkpt>
      <trkpt lat="41.921950" lon="0.902583">
        <ele>633.68</ele>
        <time>2016-09-04T09:35:10Z</time>
      </trkpt>
      <trkpt lat="41.922002" lon="0.902833">
        <ele>634.42</ele>
        <time>2016-09-04T09:35:12Z</time>
      </trkpt>
      <trkpt lat="41.922009" lon="0.903103">
        <ele>634.83</ele>
        <time>2016-09-04T09:35:13Z</time>
      </trkpt>
      <trkpt lat="41.922050" lon="0.903371">
        <ele>635.67</ele>
        <time>2016-09-04T09:35:14Z</time>
      </trkpt>
      <trkpt lat="41.922096" lon="0.903634">
        <ele>636.46</ele>
        <time>2016-09-04T09:35:16Z</time>
      </trkpt>
      <trkpt lat="41.922120" lon="0.903903">
        <ele>637.02</ele>
        <time>2016-09-04T09:35:17Z</time>
      </trkpt>
      <trkpt lat="41.922114" lon="0.904144">
        <ele>637.21</ele>
        <time>2016-09-04T09:35:18Z</time>
      </trkpt>
      <trkpt lat="41.922127" lon="0.904406">
        <ele>637.68</ele>
        <time>2016-09-04T09:35:20Z</time>
      </trkpt>
      <trkpt lat="41.922137" lon="0.904647">
        <ele>638.10</ele>
        <time>2016-09-04T09:35:21Z</time>
      </trkpt>
      <trkpt lat="41.922141" lon="0.904906">
        <ele>637.82</ele>
        <time>2016-09-04T09:35:22Z</time>
      </trkpt>
      <trkpt lat="41.922154" lon="0.905155">
        <ele>637.69</ele>
        <time>2016-09-04T09:35:23Z</time>
      </trkpt>
      <trkpt lat="41.922160" lon="0.905506">
        <ele>637.68</ele>
        <time>2016-09-04T09:35:25Z</time>
      </trkpt>
      <trkpt lat="41.922194" lon="0.905752">
        <ele>638.23</ele>
        <time>2016-09-04T09:35:26Z</time>
      </trkpt>
      <trkpt lat="41.922195" lon="0.905790">
        <ele>638.26</ele>
        <time>2016-09-04T09:35:27Z</time>
      </trkpt>
      <trkpt lat="41.922188" lon="0.906045">
        <ele>638.84</ele>
        <time>2016-09-04T09:35:28Z</time>
      </trkpt>
      <trkpt lat="41.922155" lon="0.906314">
        <ele>639.26</ele>
        <time>2016-09-04T09:35:29Z</time>
      </trkpt>
      <trkpt lat="41.922136" lon="0.906559">
        <ele>639.21</ele>
        <time>2016-09-04T09:35:30Z</time>
      </trkpt>
      <trkpt lat="41.922253" lon="0.906756">
        <ele>640.41</ele>
        <time>2016-09-04T09:35:32Z</time>
      </trkpt>
      <trkpt lat="41.922407" lon="0.906942">
        <ele>641.70</ele>
        <time>2016-09-04T09:35:33Z</time>
      </trkpt>
      <trkpt lat="41.922505" lon="0.907170">
        <ele>641.08</ele>
        <time>2016-09-04T09:35:34Z</time>
      </trkpt>
      <trkpt lat="41.922536" lon="0.907322">
        <ele>641.45</ele>
        <time>2016-09-04T09:35:35Z</time>
      </trkpt>
      <trkpt lat="41.922627" lon="0.907538">
        <ele>641.85</ele>
        <time>2016-09-04T09:35:36Z</time>
      </trkpt>
      <trkpt lat="41.922711" lon="0.907779">
        <ele>642.42</ele>
        <time>2016-09-04T09:35:38Z</time>
      </trkpt>
      <trkpt lat="41.922759" lon="0.908048">
        <ele>643.49</ele>
        <time>2016-09-04T09:35:39Z</time>
      </trkpt>
      <trkpt lat="41.922791" lon="0.908286">
        <ele>644.85</ele>
        <time>2016-09-04T09:35:40Z</time>
      </trkpt>
      <trkpt lat="41.922825" lon="0.908528">
        <ele>646.24</ele>
        <time>2016-09-04T09:35:41Z</time>
      </trkpt>
      <trkpt lat="41.922874" lon="0.908796">
        <ele>647.88</ele>
        <time>2016-09-04T09:35:43Z</time>
      </trkpt>
      <trkpt lat="41.922891" lon="0.909078">
        <ele>650.04</ele>
        <time>2016-09-04T09:35:44Z</time>
      </trkpt>
      <trkpt lat="41.922885" lon="0.909326">
        <ele>652.02</ele>
        <time>2016-09-04T09:35:45Z</time>
      </trkpt>
      <trkpt lat="41.922857" lon="0.909581">
        <ele>653.61</ele>
        <time>2016-09-04T09:35:47Z</time>
      </trkpt>
      <trkpt lat="41.922801" lon="0.909816">
        <ele>654.30</ele>
        <time>2016-09-04T09:35:48Z</time>
      </trkpt>
      <trkpt lat="41.922757" lon="0.910063">
        <ele>653.30</ele>
        <time>2016-09-04T09:35:49Z</time>
      </trkpt>
      <trkpt lat="41.922688" lon="0.910328">
        <ele>654.87</ele>
        <time>2016-09-04T09:35:51Z</time>
      </trkpt>
      <trkpt lat="41.922542" lon="0.910615">
        <ele>657.07</ele>
        <time>2016-09-04T09:35:52Z</time>
      </trkpt>
      <trkpt lat="41.922447" lon="0.910860">
        <ele>658.84</ele>
        <time>2016-09-04T09:35:54Z</time>
      </trkpt>
      <trkpt lat="41.922403" lon="0.911112">
        <ele>660.46</ele>
        <time>2016-09-04T09:35:55Z</time>
      </trkpt>
      <trkpt lat="41.922364" lon="0.911374">
        <ele>661.26</ele>
        <time>2016-09-04T09:35:56Z</time>
      </trkpt>
      <trkpt lat="41.922331" lon="0.911627">
        <ele>661.09</ele>
        <time>2016-09-04T09:35:58Z</time>
      </trkpt>
      <trkpt lat="41.922304" lon="0.911882">
        <ele>660.47</ele>
        <time>2016-09-04T09:35:59Z</time>
      </trkpt>
      <trkpt lat="41.922278" lon="0.912136">
        <ele>659.82</ele>
        <time>2016-09-04T09:36:00Z</time>
      </trkpt>
      <trkpt lat="41.922260" lon="0.912385">
        <ele>660.61</ele>
        <time>2016-09-04T09:36:01Z</time>
      </trkpt>
      <trkpt lat="41.922214" lon="0.912633">
        <ele>662.68</ele>
        <time>2016-09-04T09:36:03Z</time>
      </trkpt>
      <trkpt lat="41.922181" lon="0.912895">
        <ele>663.62</ele>
        <time>2016-09-04T09:36:04Z</time>
      </trkpt>
      <trkpt lat="41.922102" lon="0.913122">
        <ele>661.23</ele>
        <time>2016-09-04T09:36:05Z</time>
      </trkpt>
      <trkpt lat="41.922029" lon="0.913346">
        <ele>662.24</ele>
        <time>2016-09-04T09:36:06Z</time>
      </trkpt>
      <trkpt lat="41.921948" lon="0.913391">
        <ele>662.02</ele>
        <time>2016-09-04T09:36:07Z</time>
      </trkpt>
      <trkpt lat="41.922064" lon="0.913575">
        <ele>664.07</ele>
        <time>2016-09-04T09:36:08Z</time>
      </trkpt>
      <trkpt lat="41.922184" lon="0.913803">
        <ele>663.80</ele>
        <time>2016-09-04T09:36:10Z</time>
      </trkpt>
      <trkpt lat="41.922287" lon="0.914051">
        <ele>665.82</ele>
        <time>2016-09-04T09:36:11Z</time>
      </trkpt>
      <trkpt lat="41.922400" lon="0.914240">
        <ele>669.61</ele>
        <time>2016-09-04T09:36:12Z</time>
      </trkpt>
      <trkpt lat="41.922525" lon="0.914467">
        <ele>671.62</ele>
        <time>2016-09-04T09:36:14Z</time>
      </trkpt>
      <trkpt lat="41.922625" lon="0.914700">
        <ele>673.03</ele>
        <time>2016-09-04T09:36:15Z</time>
      </trkpt>
      <trkpt lat="41.922696" lon="0.914959">
        <ele>673.23</ele>
        <time>2016-09-04T09:36:16Z</time>
      </trkpt>
      <trkpt lat="41.922743" lon="0.915224">
        <ele>673.29</ele>
        <time>2016-09-04T09:36:18Z</time>
      </trkpt>
      <trkpt lat="41.922762" lon="0.915476">
        <ele>673.26</ele>
        <time>2016-09-04T09:36:19Z</time>
      </trkpt>
      <trkpt lat="41.922760" lon="0.915729">
        <ele>671.25</ele>
        <time>2016-09-04T09:36:20Z</time>
      </trkpt>
      <trkpt lat="41.922698" lon="0.915961">
        <ele>669.49</ele>
        <time>2016-09-04T09:36:22Z</time>
      </trkpt>
      <trkpt lat="41.922608" lon="0.916193">
        <ele>670.05</ele>
        <time>2016-09-04T09:36:23Z</time>
      </trkpt>
      <trkpt lat="41.922486" lon="0.916383">
        <ele>670.66</ele>
        <time>2016-09-04T09:36:24Z</time>
      </trkpt>
      <trkpt lat="41.922383" lon="0.916594">
        <ele>670.20</ele>
        <time>2016-09-04T09:36:25Z</time>
      </trkpt>
      <trkpt lat="41.922301" lon="0.916733">
        <ele>668.68</ele>
        <time>2016-09-04T09:36:26Z</time>
      </trkpt>
      <trkpt lat="41.922180" lon="0.916910">
        <ele>666.27</ele>
        <time>2016-09-04T09:36:27Z</time>
      </trkpt>
      <trkpt lat="41.922032" lon="0.917072">
        <ele>665.67</ele>
        <time>2016-09-04T09:36:29Z</time>
      </trkpt>
      <trkpt lat="41.921906" lon="0.917263">
        <ele>666.23</ele>
        <time>2016-09-04T09:36:30Z</time>
      </trkpt>
      <trkpt lat="41.921836" lon="0.917496">
        <ele>666.85</ele>
        <time>2016-09-04T09:36:31Z</time>
      </trkpt>
      <trkpt lat="41.921791" lon="0.917659">
        <ele>666.65</ele>
        <time>2016-09-04T09:36:32Z</time>
      </trkpt>
      <trkpt lat="41.921746" lon="0.917739">
        <ele>666.23</ele>
        <time>2016-09-04T09:36:33Z</time>
      </trkpt>
      <trkpt lat="41.921677" lon="0.917981">
        <ele>666.06</ele>
        <time>2016-09-04T09:36:34Z</time>
      </trkpt>
      <trkpt lat="41.921613" lon="0.918225">
        <ele>666.61</ele>
        <time>2016-09-04T09:36:35Z</time>
      </trkpt>
      <trkpt lat="41.921604" lon="0.918466">
        <ele>668.21</ele>
        <time>2016-09-04T09:36:36Z</time>
      </trkpt>
      <trkpt lat="41.921595" lon="0.918732">
        <ele>670.08</ele>
        <time>2016-09-04T09:36:38Z</time>
      </trkpt>
      <trkpt lat="41.921613" lon="0.918990">
        <ele>672.43</ele>
        <time>2016-09-04T09:36:39Z</time>
      </trkpt>
      <trkpt lat="41.921668" lon="0.919243">
        <ele>675.89</ele>
        <time>2016-09-04T09:36:40Z</time>
      </trkpt>
      <trkpt lat="41.921740" lon="0.919497">
        <ele>679.45</ele>
        <time>2016-09-04T09:36:42Z</time>
      </trkpt>
      <trkpt lat="41.921749" lon="0.919747">
        <ele>682.43</ele>
        <time>2016-09-04T09:36:43Z</time>
      </trkpt>
      <trkpt lat="41.921684" lon="0.920001">
        <ele>683.89</ele>
        <time>2016-09-04T09:36:44Z</time>
      </trkpt>
      <trkpt lat="41.921638" lon="0.920147">
        <ele>684.82</ele>
        <time>2016-09-04T09:36:45Z</time>
      </trkpt>
      <trkpt lat="41.921542" lon="0.920328">
        <ele>685.65</ele>
        <time>2016-09-04T09:36:46Z</time>
      </trkpt>
      <trkpt lat="41.921475" lon="0.920375">
        <ele>685.43</ele>
        <time>2016-09-04T09:36:47Z</time>
      </trkpt>
      <trkpt lat="41.921321" lon="0.920525">
        <ele>683.69</ele>
        <time>2016-09-04T09:36:48Z</time>
      </trkpt>
      <trkpt lat="41.921183" lon="0.920708">
        <ele>681.61</ele>
        <time>2016-09-04T09:36:49Z</time>
      </trkpt>
      <trkpt lat="41.921069" lon="0.920900">
        <ele>680.61</ele>
        <time>2016-09-04T09:36:50Z</time>
      </trkpt>
      <trkpt lat="41.920966" lon="0.921090">
        <ele>676.42</ele>
        <time>2016-09-04T09:36:52Z</time>
      </trkpt>
      <trkpt lat="41.920913" lon="0.921329">
        <ele>673.66</ele>
        <time>2016-09-04T09:36:53Z</time>
      </trkpt>
      <trkpt lat="41.920904" lon="0.921571">
        <ele>673.22</ele>
        <time>2016-09-04T09:36:54Z</time>
      </trkpt>
      <trkpt lat="41.920953" lon="0.921816">
        <ele>672.23</ele>
        <time>2016-09-04T09:36:55Z</time>
      </trkpt>
      <trkpt lat="41.921028" lon="0.922035">
        <ele>672.64</ele>
        <time>2016-09-04T09:36:56Z</time>
      </trkpt>
      <trkpt lat="41.921058" lon="0.922270">
        <ele>671.07</ele>
        <time>2016-09-04T09:36:58Z</time>
      </trkpt>
      <trkpt lat="41.921041" lon="0.922513">
        <ele>668.25</ele>
        <time>2016-09-04T09:36:59Z</time>
      </trkpt>
      <trkpt lat="41.921089" lon="0.922750">
        <ele>668.63</ele>
        <time>2016-09-04T09:37:00Z</time>
      </trkpt>
      <trkpt lat="41.921172" lon="0.922986">
        <ele>670.46</ele>
        <time>2016-09-04T09:37:01Z</time>
      </trkpt>
      <trkpt lat="41.921233" lon="0.923191">
        <ele>670.41</ele>
        <time>2016-09-04T09:37:02Z</time>
      </trkpt>
      <trkpt lat="41.921242" lon="0.923389">
        <ele>667.48</ele>
        <time>2016-09-04T09:37:03Z</time>
      </trkpt>
      <trkpt lat="41.921290" lon="0.923636">
        <ele>665.67</ele>
        <time>2016-09-04T09:37:05Z</time>
      </trkpt>
      <trkpt lat="41.921355" lon="0.923853">
        <ele>668.45</ele>
        <time>2016-09-04T09:37:06Z</time>
      </trkpt>
      <trkpt lat="41.921366" lon="0.924098">
        <ele>667.22</ele>
        <time>2016-09-04T09:37:07Z</time>
      </trkpt>
      <trkpt lat="41.921488" lon="0.924252">
        <ele>668.09</ele>
        <time>2016-09-04T09:37:08Z</time>
      </trkpt>
      <trkpt lat="41.921523" lon="0.924277">
        <ele>668.65</ele>
        <time>2016-09-04T09:37:09Z</time>
      </trkpt>
      <trkpt lat="41.921649" lon="0.924425">
        <ele>667.65</ele>
        <time>2016-09-04T09:37:10Z</time>
      </trkpt>
      <trkpt lat="41.921775" lon="0.924604">
        <ele>665.03</ele>
        <time>2016-09-04T09:37:11Z</time>
      </trkpt>
      <trkpt lat="41.921787" lon="0.924782">
        <ele>663.80</ele>
        <time>2016-09-04T09:37:12Z</time>
      </trkpt>
      <trkpt lat="41.921886" lon="0.924872">
        <ele>663.22</ele>
        <time>2016-09-04T09:37:13Z</time>
      </trkpt>
      <trkpt lat="41.922007" lon="0.925049">
        <ele>662.81</ele>
        <time>2016-09-04T09:37:14Z</time>
      </trkpt>
      <trkpt lat="41.922078" lon="0.925292">
        <ele>663.05</ele>
        <time>2016-09-04T09:37:15Z</time>
      </trkpt>
      <trkpt lat="41.922182" lon="0.925492">
        <ele>663.67</ele>
        <time>2016-09-04T09:37:16Z</time>
      </trkpt>
      <trkpt lat="41.922345" lon="0.925596">
        <ele>662.88</ele>
        <time>2016-09-04T09:37:18Z</time>
      </trkpt>
      <trkpt lat="41.922529" lon="0.925596">
        <ele>659.03</ele>
        <time>2016-09-04T09:37:19Z</time>
      </trkpt>
      <trkpt lat="41.922711" lon="0.925662">
        <ele>656.62</ele>
        <time>2016-09-04T09:37:20Z</time>
      </trkpt>
      <trkpt lat="41.922880" lon="0.925743">
        <ele>655.08</ele>
        <time>2016-09-04T09:37:21Z</time>
      </trkpt>
      <trkpt lat="41.922992" lon="0.925845">
        <ele>655.27</ele>
        <time>2016-09-04T09:37:22Z</time>
      </trkpt>
      <trkpt lat="41.923068" lon="0.925892">
        <ele>654.86</ele>
        <time>2016-09-04T09:37:23Z</time>
      </trkpt>
      <trkpt lat="41.923170" lon="0.925993">
        <ele>655.00</ele>
        <time>2016-09-04T09:37:24Z</time>
      </trkpt>
      <trkpt lat="41.923320" lon="0.926129">
        <ele>653.82</ele>
        <time>2016-09-04T09:37:25Z</time>
      </trkpt>
      <trkpt lat="41.923477" lon="0.926245">
        <ele>650.41</ele>
        <time>2016-09-04T09:37:26Z</time>
      </trkpt>
      <trkpt lat="41.923647" lon="0.926285">
        <ele>644.88</ele>
        <time>2016-09-04T09:37:27Z</time>
      </trkpt>
      <trkpt lat="41.923875" lon="0.926326">
        <ele>636.86</ele>
        <time>2016-09-04T09:37:29Z</time>
      </trkpt>
      <trkpt lat="41.924003" lon="0.926355">
        <ele>632.41</ele>
        <time>2016-09-04T09:37:30Z</time>
      </trkpt>
      <trkpt lat="41.924173" lon="0.926416">
        <ele>628.27</ele>
        <time>2016-09-04T09:37:31Z</time>
      </trkpt>
      <trkpt lat="41.924273" lon="0.926501">
        <ele>626.64</ele>
        <time>2016-09-04T09:37:32Z</time>
      </trkpt>
      <trkpt lat="41.924419" lon="0.926668">
        <ele>625.01</ele>
        <time>2016-09-04T09:37:33Z</time>
      </trkpt>
      <trkpt lat="41.924575" lon="0.926785">
        <ele>622.28</ele>
        <time>2016-09-04T09:37:34Z</time>
      </trkpt>
      <trkpt lat="41.924700" lon="0.926968">
        <ele>621.69</ele>
        <time>2016-09-04T09:37:36Z</time>
      </trkpt>
      <trkpt lat="41.924839" lon="0.927137">
        <ele>620.22</ele>
        <time>2016-09-04T09:37:37Z</time>
      </trkpt>
      <trkpt lat="41.924933" lon="0.927366">
        <ele>620.41</ele>
        <time>2016-09-04T09:37:38Z</time>
      </trkpt>
      <trkpt lat="41.924994" lon="0.927603">
        <ele>620.83</ele>
        <time>2016-09-04T09:37:39Z</time>
      </trkpt>
      <trkpt lat="41.925009" lon="0.927843">
        <ele>624.24</ele>
        <time>2016-09-04T09:37:41Z</time>
      </trkpt>
      <trkpt lat="41.925060" lon="0.928093">
        <ele>624.89</ele>
        <time>2016-09-04T09:37:42Z</time>
      </trkpt>
      <trkpt lat="41.925108" lon="0.928338">
        <ele>620.23</ele>
        <time>2016-09-04T09:37:43Z</time>
      </trkpt>
      <trkpt lat="41.925114" lon="0.928590">
        <ele>620.47</ele>
        <time>2016-09-04T09:37:44Z</time>
      </trkpt>
      <trkpt lat="41.925074" lon="0.928850">
        <ele>624.04</ele>
        <time>2016-09-04T09:37:46Z</time>
      </trkpt>
      <trkpt lat="41.924988" lon="0.929074">
        <ele>628.89</ele>
        <time>2016-09-04T09:37:47Z</time>
      </trkpt>
      <trkpt lat="41.924971" lon="0.929329">
        <ele>626.28</ele>
        <time>2016-09-04T09:37:48Z</time>
      </trkpt>
      <trkpt lat="41.924937" lon="0.929590">
        <ele>625.09</ele>
        <time>2016-09-04T09:37:49Z</time>
      </trkpt>
      <trkpt lat="41.924875" lon="0.929880">
        <ele>622.81</ele>
        <time>2016-09-04T09:37:51Z</time>
      </trkpt>
      <trkpt lat="41.924841" lon="0.930008">
        <ele>621.06</ele>
        <time>2016-09-04T09:37:52Z</time>
      </trkpt>
      <trkpt lat="41.924726" lon="0.930288">
        <ele>618.61</ele>
        <time>2016-09-04T09:37:53Z</time>
      </trkpt>
      <trkpt lat="41.924679" lon="0.930386">
        <ele>617.84</ele>
        <time>2016-09-04T09:37:54Z</time>
      </trkpt>
      <trkpt lat="41.924587" lon="0.930530">
        <ele>616.28</ele>
        <time>2016-09-04T09:37:55Z</time>
      </trkpt>
      <trkpt lat="41.924399" lon="0.930617">
        <ele>620.08</ele>
        <time>2016-09-04T09:37:56Z</time>
      </trkpt>
      <trkpt lat="41.924317" lon="0.930681">
        <ele>621.41</ele>
        <time>2016-09-04T09:37:57Z</time>
      </trkpt>
      <trkpt lat="41.924352" lon="0.930830">
        <ele>617.63</ele>
        <time>2016-09-04T09:37:58Z</time>
      </trkpt>
      <trkpt lat="41.924174" lon="0.930852">
        <ele>620.21</ele>
        <time>2016-09-04T09:37:59Z</time>
      </trkpt>
      <trkpt lat="41.924012" lon="0.930965">
        <ele>618.61</ele>
        <time>2016-09-04T09:38:00Z</time>
      </trkpt>
      <trkpt lat="41.923883" lon="0.931132">
        <ele>614.27</ele>
        <time>2016-09-04T09:38:02Z</time>
      </trkpt>
      <trkpt lat="41.923752" lon="0.931303">
        <ele>608.44</ele>
        <time>2016-09-04T09:38:03Z</time>
      </trkpt>
      <trkpt lat="41.923630" lon="0.931482">
        <ele>601.75</ele>
        <time>2016-09-04T09:38:04Z</time>
      </trkpt>
      <trkpt lat="41.923491" lon="0.931642">
        <ele>595.48</ele>
        <time>2016-09-04T09:38:05Z</time>
      </trkpt>
      <trkpt lat="41.923341" lon="0.931779">
        <ele>592.66</ele>
        <time>2016-09-04T09:38:06Z</time>
      </trkpt>
      <trkpt lat="41.923172" lon="0.931907">
        <ele>591.07</ele>
        <time>2016-09-04T09:38:08Z</time>
      </trkpt>
      <trkpt lat="41.922966" lon="0.931926">
        <ele>593.68</ele>
        <time>2016-09-04T09:38:09Z</time>
      </trkpt>
      <trkpt lat="41.922850" lon="0.931877">
        <ele>597.41</ele>
        <time>2016-09-04T09:38:10Z</time>
      </trkpt>
      <trkpt lat="41.922678" lon="0.931980">
        <ele>602.01</ele>
        <time>2016-09-04T09:38:11Z</time>
      </trkpt>
      <trkpt lat="41.922685" lon="0.932220">
        <ele>598.81</ele>
        <time>2016-09-04T09:38:13Z</time>
      </trkpt>
      <trkpt lat="41.922758" lon="0.932443">
        <ele>591.84</ele>
        <time>2016-09-04T09:38:14Z</time>
      </trkpt>
      <trkpt lat="41.922811" lon="0.932681">
        <ele>585.65</ele>
        <time>2016-09-04T09:38:15Z</time>
      </trkpt>
      <trkpt lat="41.922846" lon="0.932908">
        <ele>584.03</ele>
        <time>2016-09-04T09:38:16Z</time>
      </trkpt>
      <trkpt lat="41.922816" lon="0.933110">
        <ele>585.09</ele>
        <time>2016-09-04T09:38:17Z</time>
      </trkpt>
      <trkpt lat="41.922742" lon="0.933344">
        <ele>584.04</ele>
        <time>2016-09-04T09:38:18Z</time>
      </trkpt>
      <trkpt lat="41.922723" lon="0.933426">
        <ele>583.66</ele>
        <time>2016-09-04T09:38:19Z</time>
      </trkpt>
      <trkpt lat="41.922635" lon="0.933647">
        <ele>586.44</ele>
        <time>2016-09-04T09:38:20Z</time>
      </trkpt>
      <trkpt lat="41.922536" lon="0.933888">
        <ele>589.65</ele>
        <time>2016-09-04T09:38:21Z</time>
      </trkpt>
      <trkpt lat="41.922505" lon="0.933970">
        <ele>591.56</ele>
        <time>2016-09-04T09:38:22Z</time>
      </trkpt>
      <trkpt lat="41.922460" lon="0.934190">
        <ele>593.82</ele>
        <time>2016-09-04T09:38:23Z</time>
      </trkpt>
      <trkpt lat="41.922482" lon="0.934379">
        <ele>592.04</ele>
        <time>2016-09-04T09:38:24Z</time>
      </trkpt>
      <trkpt lat="41.922538" lon="0.934607">
        <ele>588.02</ele>
        <time>2016-09-04T09:38:25Z</time>
      </trkpt>
      <trkpt lat="41.922591" lon="0.934844">
        <ele>583.46</ele>
        <time>2016-09-04T09:38:26Z</time>
      </trkpt>
      <trkpt lat="41.922574" lon="0.934950">
        <ele>583.41</ele>
        <time>2016-09-04T09:38:27Z</time>
      </trkpt>
      <trkpt lat="41.922560" lon="0.935214">
        <ele>580.08</ele>
        <time>2016-09-04T09:38:28Z</time>
      </trkpt>
      <trkpt lat="41.922570" lon="0.935439">
        <ele>576.03</ele>
        <time>2016-09-04T09:38:29Z</time>
      </trkpt>
      <trkpt lat="41.922529" lon="0.935599">
        <ele>576.03</ele>
        <time>2016-09-04T09:38:30Z</time>
      </trkpt>
      <trkpt lat="41.922521" lon="0.935962">
        <ele>570.07</ele>
        <time>2016-09-04T09:38:32Z</time>
      </trkpt>
      <trkpt lat="41.922492" lon="0.936151">
        <ele>567.03</ele>
        <time>2016-09-04T09:38:33Z</time>
      </trkpt>
      <trkpt lat="41.922438" lon="0.936374">
        <ele>564.48</ele>
        <time>2016-09-04T09:38:34Z</time>
      </trkpt>
      <trkpt lat="41.922358" lon="0.936513">
        <ele>563.23</ele>
        <time>2016-09-04T09:38:35Z</time>
      </trkpt>
      <trkpt lat="41.922294" lon="0.936705">
        <ele>559.40</ele>
        <time>2016-09-04T09:38:36Z</time>
      </trkpt>
      <trkpt lat="41.922259" lon="0.936880">
        <ele>555.42</ele>
        <time>2016-09-04T09:38:37Z</time>
      </trkpt>
      <trkpt lat="41.922129" lon="0.937054">
        <ele>554.07</ele>
        <time>2016-09-04T09:38:38Z</time>
      </trkpt>
      <trkpt lat="41.921982" lon="0.937191">
        <ele>555.24</ele>
        <time>2016-09-04T09:38:39Z</time>
      </trkpt>
      <trkpt lat="41.921841" lon="0.937350">
        <ele>554.23</ele>
        <time>2016-09-04T09:38:41Z</time>
      </trkpt>
      <trkpt lat="41.921749" lon="0.937565">
        <ele>551.09</ele>
        <time>2016-09-04T09:38:42Z</time>
      </trkpt>
      <trkpt lat="41.921692" lon="0.937731">
        <ele>549.06</ele>
        <time>2016-09-04T09:38:43Z</time>
      </trkpt>
      <trkpt lat="41.921625" lon="0.937902">
        <ele>547.24</ele>
        <time>2016-09-04T09:38:44Z</time>
      </trkpt>
      <trkpt lat="41.921613" lon="0.937943">
        <ele>546.67</ele>
        <time>2016-09-04T09:38:45Z</time>
      </trkpt>
      <trkpt lat="41.921521" lon="0.938279">
        <ele>540.01</ele>
        <time>2016-09-04T09:38:46Z</time>
      </trkpt>
      <trkpt lat="41.921509" lon="0.938530">
        <ele>532.85</ele>
        <time>2016-09-04T09:38:48Z</time>
      </trkpt>
      <trkpt lat="41.921411" lon="0.938820">
        <ele>526.85</ele>
        <time>2016-09-04T09:38:49Z</time>
      </trkpt>
      <trkpt lat="41.921307" lon="0.939015">
        <ele>526.70</ele>
        <time>2016-09-04T09:38:50Z</time>
      </trkpt>
      <trkpt lat="41.921267" lon="0.939066">
        <ele>527.04</ele>
        <time>2016-09-04T09:38:51Z</time>
      </trkpt>
      <trkpt lat="41.921119" lon="0.939218">
        <ele>529.29</ele>
        <time>2016-09-04T09:38:52Z</time>
      </trkpt>
      <trkpt lat="41.920985" lon="0.939404">
        <ele>528.41</ele>
        <time>2016-09-04T09:38:53Z</time>
      </trkpt>
      <trkpt lat="41.920822" lon="0.939731">
        <ele>524.23</ele>
        <time>2016-09-04T09:38:55Z</time>
      </trkpt>
      <trkpt lat="41.920812" lon="0.939968">
        <ele>520.82</ele>
        <time>2016-09-04T09:38:56Z</time>
      </trkpt>
      <trkpt lat="41.920780" lon="0.940294">
        <ele>516.44</ele>
        <time>2016-09-04T09:38:58Z</time>
      </trkpt>
      <trkpt lat="41.920813" lon="0.940478">
        <ele>512.86</ele>
        <time>2016-09-04T09:38:59Z</time>
      </trkpt>
      <trkpt lat="41.920872" lon="0.940668">
        <ele>508.23</ele>
        <time>2016-09-04T09:39:00Z</time>
      </trkpt>
      <trkpt lat="41.920858" lon="0.940931">
        <ele>503.63</ele>
        <time>2016-09-04T09:39:01Z</time>
      </trkpt>
      <trkpt lat="41.920761" lon="0.941129">
        <ele>501.86</ele>
        <time>2016-09-04T09:39:03Z</time>
      </trkpt>
      <trkpt lat="41.920719" lon="0.941373">
        <ele>498.29</ele>
        <time>2016-09-04T09:39:04Z</time>
      </trkpt>
      <trkpt lat="41.920700" lon="0.941619">
        <ele>494.24</ele>
        <time>2016-09-04T09:39:05Z</time>
      </trkpt>
      <trkpt lat="41.920640" lon="0.941811">
        <ele>492.63</ele>
        <time>2016-09-04T09:39:06Z</time>
      </trkpt>
      <trkpt lat="41.920600" lon="0.941993">
        <ele>490.41</ele>
        <time>2016-09-04T09:39:07Z</time>
      </trkpt>
      <trkpt lat="41.920564" lon="0.942238">
        <ele>486.47</ele>
        <time>2016-09-04T09:39:08Z</time>
      </trkpt>
      <trkpt lat="41.920482" lon="0.942466">
        <ele>485.03</ele>
        <time>2016-09-04T09:39:10Z</time>
      </trkpt>
      <trkpt lat="41.920348" lon="0.942692">
        <ele>484.83</ele>
        <time>2016-09-04T09:39:11Z</time>
      </trkpt>
      <trkpt lat="41.920204" lon="0.942848">
        <ele>484.88</ele>
        <time>2016-09-04T09:39:12Z</time>
      </trkpt>
      <trkpt lat="41.920160" lon="0.942936">
        <ele>484.26</ele>
        <time>2016-09-04T09:39:13Z</time>
      </trkpt>
      <trkpt lat="41.920087" lon="0.943207">
        <ele>479.64</ele>
        <time>2016-09-04T09:39:14Z</time>
      </trkpt>
      <trkpt lat="41.919991" lon="0.943407">
        <ele>478.43</ele>
        <time>2016-09-04T09:39:15Z</time>
      </trkpt>
      <trkpt lat="41.919855" lon="0.943586">
        <ele>479.45</ele>
        <time>2016-09-04T09:39:17Z</time>
      </trkpt>
      <trkpt lat="41.919734" lon="0.943772">
        <ele>480.21</ele>
        <time>2016-09-04T09:39:18Z</time>
      </trkpt>
      <trkpt lat="41.919688" lon="0.944032">
        <ele>478.43</ele>
        <time>2016-09-04T09:39:19Z</time>
      </trkpt>
      <trkpt lat="41.919684" lon="0.944282">
        <ele>476.04</ele>
        <time>2016-09-04T09:39:20Z</time>
      </trkpt>
      <trkpt lat="41.919683" lon="0.944385">
        <ele>475.09</ele>
        <time>2016-09-04T09:39:21Z</time>
      </trkpt>
      <trkpt lat="41.919664" lon="0.944592">
        <ele>473.26</ele>
        <time>2016-09-04T09:39:22Z</time>
      </trkpt>
      <trkpt lat="41.919642" lon="0.944832">
        <ele>470.46</ele>
        <time>2016-09-04T09:39:23Z</time>
      </trkpt>
      <trkpt lat="41.919624" lon="0.945079">
        <ele>468.89</ele>
        <time>2016-09-04T09:39:24Z</time>
      </trkpt>
      <trkpt lat="41.919601" lon="0.945317">
        <ele>467.50</ele>
        <time>2016-09-04T09:39:26Z</time>
      </trkpt>
      <trkpt lat="41.919582" lon="0.945552">
        <ele>465.08</ele>
        <time>2016-09-04T09:39:27Z</time>
      </trkpt>
      <trkpt lat="41.919577" lon="0.945860">
        <ele>460.01</ele>
        <time>2016-09-04T09:39:28Z</time>
      </trkpt>
      <trkpt lat="41.919651" lon="0.946247">
        <ele>452.02</ele>
        <time>2016-09-04T09:39:30Z</time>
      </trkpt>
      <trkpt lat="41.919637" lon="0.946490">
        <ele>448.89</ele>
        <time>2016-09-04T09:39:32Z</time>
      </trkpt>
      <trkpt lat="41.919554" lon="0.946711">
        <ele>447.27</ele>
        <time>2016-09-04T09:39:33Z</time>
      </trkpt>
      <trkpt lat="41.919496" lon="0.946944">
        <ele>445.45</ele>
        <time>2016-09-04T09:39:34Z</time>
      </trkpt>
      <trkpt lat="41.919467" lon="0.947143">
        <ele>444.26</ele>
        <time>2016-09-04T09:39:35Z</time>
      </trkpt>
      <trkpt lat="41.919479" lon="0.947387">
        <ele>441.05</ele>
        <time>2016-09-04T09:39:36Z</time>
      </trkpt>
      <trkpt lat="41.919487" lon="0.947502">
        <ele>439.44</ele>
        <time>2016-09-04T09:39:37Z</time>
      </trkpt>
      <trkpt lat="41.919432" lon="0.947730">
        <ele>438.05</ele>
        <time>2016-09-04T09:39:38Z</time>
      </trkpt>
      <trkpt lat="41.919376" lon="0.947972">
        <ele>436.03</ele>
        <time>2016-09-04T09:39:39Z</time>
      </trkpt>
      <trkpt lat="41.919316" lon="0.948201">
        <ele>434.62</ele>
        <time>2016-09-04T09:39:40Z</time>
      </trkpt>
      <trkpt lat="41.919224" lon="0.948357">
        <ele>435.01</ele>
        <time>2016-09-04T09:39:41Z</time>
      </trkpt>
      <trkpt lat="41.919206" lon="0.948386">
        <ele>435.05</ele>
        <time>2016-09-04T09:39:42Z</time>
      </trkpt>
      <trkpt lat="41.919072" lon="0.948605">
        <ele>435.64</ele>
        <time>2016-09-04T09:39:43Z</time>
      </trkpt>
      <trkpt lat="41.919071" lon="0.948766">
        <ele>433.25</ele>
        <time>2016-09-04T09:39:44Z</time>
      </trkpt>
      <trkpt lat="41.919103" lon="0.949077">
        <ele>428.46</ele>
        <time>2016-09-04T09:39:45Z</time>
      </trkpt>
      <trkpt lat="41.919082" lon="0.949321">
        <ele>426.61</ele>
        <time>2016-09-04T09:39:47Z</time>
      </trkpt>
      <trkpt lat="41.919041" lon="0.949560">
        <ele>425.69</ele>
        <time>2016-09-04T09:39:48Z</time>
      </trkpt>
      <trkpt lat="41.918973" lon="0.949795">
        <ele>423.49</ele>
        <time>2016-09-04T09:39:49Z</time>
      </trkpt>
      <trkpt lat="41.918952" lon="0.949906">
        <ele>422.07</ele>
        <time>2016-09-04T09:39:50Z</time>
      </trkpt>
      <trkpt lat="41.918899" lon="0.950137">
        <ele>419.02</ele>
        <time>2016-09-04T09:39:51Z</time>
      </trkpt>
      <trkpt lat="41.918727" lon="0.949983">
        <ele>423.86</ele>
        <time>2016-09-04T09:39:52Z</time>
      </trkpt>
      <trkpt lat="41.918768" lon="0.949774">
        <ele>426.43</ele>
        <time>2016-09-04T09:39:53Z</time>
      </trkpt>
      <trkpt lat="41.918782" lon="0.949739">
        <ele>426.85</ele>
        <time>2016-09-04T09:39:54Z</time>
      </trkpt>
      <trkpt lat="41.918791" lon="0.949536">
        <ele>431.89</ele>
        <time>2016-09-04T09:39:55Z</time>
      </trkpt>
      <trkpt lat="41.918666" lon="0.949635">
        <ele>431.04</ele>
        <time>2016-09-04T09:39:56Z</time>
      </trkpt>
      <trkpt lat="41.918470" lon="0.949789">
        <ele>430.28</ele>
        <time>2016-09-04T09:39:57Z</time>
      </trkpt>
      <trkpt lat="41.918281" lon="0.949813">
        <ele>432.47</ele>
        <time>2016-09-04T09:39:58Z</time>
      </trkpt>
      <trkpt lat="41.918298" lon="0.949692">
        <ele>434.40</ele>
        <time>2016-09-04T09:39:59Z</time>
      </trkpt>
      <trkpt lat="41.918446" lon="0.949502">
        <ele>437.22</ele>
        <time>2016-09-04T09:40:00Z</time>
      </trkpt>
      <trkpt lat="41.918462" lon="0.949369">
        <ele>440.41</ele>
        <time>2016-09-04T09:40:01Z</time>
      </trkpt>
      <trkpt lat="41.918368" lon="0.949387">
        <ele>441.29</ele>
        <time>2016-09-04T09:40:02Z</time>
      </trkpt>
      <trkpt lat="41.918205" lon="0.949491">
        <ele>441.30</ele>
        <time>2016-09-04T09:40:03Z</time>
      </trkpt>
      <trkpt lat="41.918035" lon="0.949598">
        <ele>443.21</ele>
        <time>2016-09-04T09:40:04Z</time>
      </trkpt>
      <trkpt lat="41.917881" lon="0.949730">
        <ele>443.66</ele>
        <time>2016-09-04T09:40:05Z</time>
      </trkpt>
      <trkpt lat="41.917690" lon="0.949703">
        <ele>449.42</ele>
        <time>2016-09-04T09:40:07Z</time>
      </trkpt>
      <trkpt lat="41.917501" lon="0.949759">
        <ele>453.25</ele>
        <time>2016-09-04T09:40:08Z</time>
      </trkpt>
      <trkpt lat="41.917331" lon="0.949873">
        <ele>455.24</ele>
        <time>2016-09-04T09:40:09Z</time>
      </trkpt>
      <trkpt lat="41.917282" lon="0.949948">
        <ele>456.88</ele>
        <time>2016-09-04T09:40:10Z</time>
      </trkpt>
      <trkpt lat="41.917248" lon="0.950110">
        <ele>453.06</ele>
        <time>2016-09-04T09:40:35Z</time>
      </trkpt>
      <trkpt lat="41.917258" lon="0.950369">
        <ele>449.41</ele>
        <time>2016-09-04T09:40:37Z</time>
      </trkpt>
      <trkpt lat="41.917186" lon="0.950585">
        <ele>452.03</ele>
        <time>2016-09-04T09:40:38Z</time>
      </trkpt>
      <trkpt lat="41.917044" lon="0.950744">
        <ele>454.88</ele>
        <time>2016-09-04T09:40:39Z</time>
      </trkpt>
      <trkpt lat="41.916863" lon="0.950819">
        <ele>459.87</ele>
        <time>2016-09-04T09:40:40Z</time>
      </trkpt>
      <trkpt lat="41.916705" lon="0.950721">
        <ele>466.27</ele>
        <time>2016-09-04T09:40:41Z</time>
      </trkpt>
      <trkpt lat="41.916661" lon="0.950533">
        <ele>468.88</ele>
        <time>2016-09-04T09:40:42Z</time>
      </trkpt>
      <trkpt lat="41.916621" lon="0.950334">
        <ele>468.63</ele>
        <time>2016-09-04T09:40:43Z</time>
      </trkpt>
      <trkpt lat="41.916532" lon="0.950324">
        <ele>469.44</ele>
        <time>2016-09-04T09:40:44Z</time>
      </trkpt>
      <trkpt lat="41.916368" lon="0.950442">
        <ele>467.23</ele>
        <time>2016-09-04T09:40:45Z</time>
      </trkpt>
      <trkpt lat="41.916220" lon="0.950588">
        <ele>467.42</ele>
        <time>2016-09-04T09:40:47Z</time>
      </trkpt>
      <trkpt lat="41.916157" lon="0.950825">
        <ele>466.62</ele>
        <time>2016-09-04T09:40:48Z</time>
      </trkpt>
      <trkpt lat="41.916121" lon="0.951066">
        <ele>466.41</ele>
        <time>2016-09-04T09:40:49Z</time>
      </trkpt>
      <trkpt lat="41.916095" lon="0.951318">
        <ele>467.27</ele>
        <time>2016-09-04T09:40:50Z</time>
      </trkpt>
      <trkpt lat="41.916118" lon="0.951571">
        <ele>466.03</ele>
        <time>2016-09-04T09:40:52Z</time>
      </trkpt>
      <trkpt lat="41.916123" lon="0.951820">
        <ele>463.66</ele>
        <time>2016-09-04T09:40:53Z</time>
      </trkpt>
      <trkpt lat="41.916152" lon="0.952076">
        <ele>463.27</ele>
        <time>2016-09-04T09:40:54Z</time>
      </trkpt>
      <trkpt lat="41.916155" lon="0.952328">
        <ele>462.05</ele>
        <time>2016-09-04T09:40:55Z</time>
      </trkpt>
      <trkpt lat="41.916174" lon="0.952576">
        <ele>459.44</ele>
        <time>2016-09-04T09:40:57Z</time>
      </trkpt>
      <trkpt lat="41.916114" lon="0.952807">
        <ele>458.66</ele>
        <time>2016-09-04T09:40:58Z</time>
      </trkpt>
      <trkpt lat="41.916102" lon="0.953000">
        <ele>458.66</ele>
        <time>2016-09-04T09:40:59Z</time>
      </trkpt>
      <trkpt lat="41.915943" lon="0.953242">
        <ele>456.49</ele>
        <time>2016-09-04T09:41:00Z</time>
      </trkpt>
      <trkpt lat="41.915886" lon="0.953247">
        <ele>456.82</ele>
        <time>2016-09-04T09:41:01Z</time>
      </trkpt>
      <trkpt lat="41.915728" lon="0.953329">
        <ele>455.82</ele>
        <time>2016-09-04T09:41:02Z</time>
      </trkpt>
      <trkpt lat="41.915636" lon="0.953516">
        <ele>447.29</ele>
        <time>2016-09-04T09:41:03Z</time>
      </trkpt>
      <trkpt lat="41.915654" lon="0.953667">
        <ele>444.63</ele>
        <time>2016-09-04T09:41:04Z</time>
      </trkpt>
      <trkpt lat="41.915542" lon="0.953786">
        <ele>438.06</ele>
        <time>2016-09-04T09:41:05Z</time>
      </trkpt>
      <trkpt lat="41.915392" lon="0.953962">
        <ele>431.62</ele>
        <time>2016-09-04T09:41:06Z</time>
      </trkpt>
      <trkpt lat="41.915242" lon="0.954100">
        <ele>422.25</ele>
        <time>2016-09-04T09:41:08Z</time>
      </trkpt>
      <trkpt lat="41.915121" lon="0.954278">
        <ele>414.44</ele>
        <time>2016-09-04T09:41:09Z</time>
      </trkpt>
      <trkpt lat="41.915053" lon="0.954484">
        <ele>408.89</ele>
        <time>2016-09-04T09:41:10Z</time>
      </trkpt>
      <trkpt lat="41.914975" lon="0.954708">
        <ele>402.84</ele>
        <time>2016-09-04T09:41:11Z</time>
      </trkpt>
      <trkpt lat="41.914898" lon="0.954918">
        <ele>395.43</ele>
        <time>2016-09-04T09:41:12Z</time>
      </trkpt>
      <trkpt lat="41.914804" lon="0.955068">
        <ele>387.81</ele>
        <time>2016-09-04T09:41:13Z</time>
      </trkpt>
      <trkpt lat="41.914812" lon="0.955250">
        <ele>382.45</ele>
        <time>2016-09-04T09:41:14Z</time>
      </trkpt>
      <trkpt lat="41.914690" lon="0.955409">
        <ele>374.50</ele>
        <time>2016-09-04T09:41:15Z</time>
      </trkpt>
      <trkpt lat="41.914543" lon="0.955582">
        <ele>370.09</ele>
        <time>2016-09-04T09:41:17Z</time>
      </trkpt>
      <trkpt lat="41.914373" lon="0.955862">
        <ele>357.90</ele>
        <time>2016-09-04T09:41:18Z</time>
      </trkpt>
      <trkpt lat="41.914368" lon="0.955876">
        <ele>357.22</ele>
        <time>2016-09-04T09:41:19Z</time>
      </trkpt>
      <trkpt lat="41.914270" lon="0.956080">
        <ele>354.63</ele>
        <time>2016-09-04T09:41:20Z</time>
      </trkpt>
      <trkpt lat="41.914202" lon="0.956222">
        <ele>352.25</ele>
        <time>2016-09-04T09:41:21Z</time>
      </trkpt>
      <trkpt lat="41.914196" lon="0.956234">
        <ele>352.80</ele>
        <time>2016-09-04T09:41:37Z</time>
      </trkpt>
      <trkpt lat="41.914176" lon="0.956355">
        <ele>351.01</ele>
        <time>2016-09-04T09:41:38Z</time>
      </trkpt>
      <trkpt lat="41.914094" lon="0.956572">
        <ele>347.61</ele>
        <time>2016-09-04T09:41:39Z</time>
      </trkpt>
      <trkpt lat="41.914008" lon="0.956772">
        <ele>341.46</ele>
        <time>2016-09-04T09:41:40Z</time>
      </trkpt>
      <trkpt lat="41.913916" lon="0.956987">
        <ele>333.85</ele>
        <time>2016-09-04T09:41:41Z</time>
      </trkpt>
      <trkpt lat="41.913853" lon="0.957212">
        <ele>333.06</ele>
        <time>2016-09-04T09:41:42Z</time>
      </trkpt>
      <trkpt lat="41.913768" lon="0.957331">
        <ele>331.49</ele>
        <time>2016-09-04T09:41:43Z</time>
      </trkpt>
      <trkpt lat="41.913729" lon="0.957398">
        <ele>330.07</ele>
        <time>2016-09-04T09:41:44Z</time>
      </trkpt>
      <trkpt lat="41.913650" lon="0.957626">
        <ele>325.27</ele>
        <time>2016-09-04T09:41:45Z</time>
      </trkpt>
      <trkpt lat="41.913585" lon="0.957846">
        <ele>325.49</ele>
        <time>2016-09-04T09:41:46Z</time>
      </trkpt>
      <trkpt lat="41.913524" lon="0.957992">
        <ele>326.26</ele>
        <time>2016-09-04T09:41:47Z</time>
      </trkpt>
      <trkpt lat="41.913357" lon="0.958211">
        <ele>327.41</ele>
        <time>2016-09-04T09:41:48Z</time>
      </trkpt>
      <trkpt lat="41.913311" lon="0.958449">
        <ele>326.49</ele>
        <time>2016-09-04T09:41:50Z</time>
      </trkpt>
      <trkpt lat="41.913281" lon="0.958665">
        <ele>325.29</ele>
        <time>2016-09-04T09:41:51Z</time>
      </trkpt>
      <trkpt lat="41.913214" lon="0.958853">
        <ele>323.64</ele>
        <time>2016-09-04T09:41:52Z</time>
      </trkpt>
      <trkpt lat="41.913128" lon="0.959024">
        <ele>320.48</ele>
        <time>2016-09-04T09:41:53Z</time>
      </trkpt>
      <trkpt lat="41.913042" lon="0.959166">
        <ele>316.86</ele>
        <time>2016-09-04T09:41:54Z</time>
      </trkpt>
      <trkpt lat="41.912960" lon="0.959378">
        <ele>312.07</ele>
        <time>2016-09-04T09:41:55Z</time>
      </trkpt>
      <trkpt lat="41.912853" lon="0.959583">
        <ele>312.69</ele>
        <time>2016-09-04T09:41:56Z</time>
      </trkpt>
      <trkpt lat="41.912865" lon="0.959778">
        <ele>313.83</ele>
        <time>2016-09-04T09:41:57Z</time>
      </trkpt>
      <trkpt lat="41.912779" lon="0.959950">
        <ele>312.88</ele>
        <time>2016-09-04T09:41:58Z</time>
      </trkpt>
      <trkpt lat="41.912671" lon="0.959989">
        <ele>313.43</ele>
        <time>2016-09-04T09:41:59Z</time>
      </trkpt>
      <trkpt lat="41.912585" lon="0.959972">
        <ele>314.23</ele>
        <time>2016-09-04T09:42:00Z</time>
      </trkpt>
      <trkpt lat="41.912456" lon="0.960115">
        <ele>313.21</ele>
        <time>2016-09-04T09:42:01Z</time>
      </trkpt>
      <trkpt lat="41.912354" lon="0.960279">
        <ele>310.08</ele>
        <time>2016-09-04T09:42:02Z</time>
      </trkpt>
      <trkpt lat="41.912257" lon="0.960498">
        <ele>305.26</ele>
        <time>2016-09-04T09:42:03Z</time>
      </trkpt>
      <trkpt lat="41.912290" lon="0.960605">
        <ele>305.42</ele>
        <time>2016-09-04T09:42:04Z</time>
      </trkpt>
      <trkpt lat="41.912052" lon="0.960727">
        <ele>298.68</ele>
        <time>2016-09-04T09:42:05Z</time>
      </trkpt>
      <trkpt lat="41.912162" lon="0.960626">
        <ele>302.46</ele>
        <time>2016-09-04T09:42:06Z</time>
      </trkpt>
      <trkpt lat="41.912032" lon="0.960590">
        <ele>300.62</ele>
        <time>2016-09-04T09:42:07Z</time>
      </trkpt>
      <trkpt lat="41.911983" lon="0.960374">
        <ele>300.01</ele>
        <time>2016-09-04T09:42:08Z</time>
      </trkpt>
      <trkpt lat="41.912007" lon="0.960221">
        <ele>300.48</ele>
        <time>2016-09-04T09:42:09Z</time>
      </trkpt>
      <trkpt lat="41.911915" lon="0.960054">
        <ele>299.07</ele>
        <time>2016-09-04T09:42:10Z</time>
      </trkpt>
      <trkpt lat="41.912016" lon="0.959892">
        <ele>304.29</ele>
        <time>2016-09-04T09:42:11Z</time>
      </trkpt>
      <trkpt lat="41.912091" lon="0.959793">
        <ele>307.63</ele>
        <time>2016-09-04T09:42:12Z</time>
      </trkpt>
      <trkpt lat="41.912172" lon="0.959683">
        <ele>310.03</ele>
        <time>2016-09-04T09:42:13Z</time>
      </trkpt>
      <trkpt lat="41.912292" lon="0.959399">
        <ele>310.90</ele>
        <time>2016-09-04T09:42:14Z</time>
      </trkpt>
      <trkpt lat="41.912410" lon="0.959210">
        <ele>312.89</ele>
        <time>2016-09-04T09:42:16Z</time>
      </trkpt>
      <trkpt lat="41.912548" lon="0.959050">
        <ele>310.24</ele>
        <time>2016-09-04T09:42:17Z</time>
      </trkpt>
      <trkpt lat="41.912567" lon="0.958889">
        <ele>312.43</ele>
        <time>2016-09-04T09:42:18Z</time>
      </trkpt>
      <trkpt lat="41.912565" lon="0.958568">
        <ele>308.23</ele>
        <time>2016-09-04T09:42:19Z</time>
      </trkpt>
      <trkpt lat="41.912562" lon="0.958473">
        <ele>307.06</ele>
        <time>2016-09-04T09:42:20Z</time>
      </trkpt>
      <trkpt lat="41.912530" lon="0.958312">
        <ele>304.23</ele>
        <time>2016-09-04T09:42:21Z</time>
      </trkpt>
      <trkpt lat="41.912561" lon="0.958062">
        <ele>305.03</ele>
        <time>2016-09-04T09:42:22Z</time>
      </trkpt>
      <trkpt lat="41.912597" lon="0.957921">
        <ele>304.29</ele>
        <time>2016-09-04T09:42:23Z</time>
      </trkpt>
      <trkpt lat="41.912685" lon="0.957622">
        <ele>303.50</ele>
        <time>2016-09-04T09:42:24Z</time>
      </trkpt>
      <trkpt lat="41.912745" lon="0.957383">
        <ele>305.45</ele>
        <time>2016-09-04T09:42:25Z</time>
      </trkpt>
      <trkpt lat="41.912772" lon="0.957144">
        <ele>306.27</ele>
        <time>2016-09-04T09:42:27Z</time>
      </trkpt>
      <trkpt lat="41.912801" lon="0.956873">
        <ele>305.88</ele>
        <time>2016-09-04T09:42:28Z</time>
      </trkpt>
      <trkpt lat="41.912791" lon="0.956776">
        <ele>304.44</ele>
        <time>2016-09-04T09:42:29Z</time>
      </trkpt>
      <trkpt lat="41.912792" lon="0.956401">
        <ele>299.82</ele>
        <time>2016-09-04T09:42:30Z</time>
      </trkpt>
      <trkpt lat="41.912784" lon="0.956241">
        <ele>299.69</ele>
        <time>2016-09-04T09:42:31Z</time>
      </trkpt>
      <trkpt lat="41.912762" lon="0.956160">
        <ele>298.75</ele>
        <time>2016-09-04T09:42:32Z</time>
      </trkpt>
      <trkpt lat="41.912693" lon="0.955937">
        <ele>295.66</ele>
        <time>2016-09-04T09:42:33Z</time>
      </trkpt>
      <trkpt lat="41.912574" lon="0.955651">
        <ele>289.51</ele>
        <time>2016-09-04T09:42:34Z</time>
      </trkpt>
      <trkpt lat="41.912540" lon="0.955520">
        <ele>287.88</ele>
        <time>2016-09-04T09:42:35Z</time>
      </trkpt>
      <trkpt lat="41.912527" lon="0.955330">
        <ele>287.65</ele>
        <time>2016-09-04T09:42:36Z</time>
      </trkpt>
      <trkpt lat="41.912510" lon="0.955062">
        <ele>287.65</ele>
        <time>2016-09-04T09:42:37Z</time>
      </trkpt>
      <trkpt lat="41.912517" lon="0.954922">
        <ele>288.21</ele>
        <time>2016-09-04T09:42:38Z</time>
      </trkpt>
      <trkpt lat="41.912403" lon="0.954750">
        <ele>284.03</ele>
        <time>2016-09-04T09:42:39Z</time>
      </trkpt>
      <trkpt lat="41.912339" lon="0.954502">
        <ele>286.06</ele>
        <time>2016-09-04T09:42:41Z</time>
      </trkpt>
      <trkpt lat="41.912278" lon="0.954269">
        <ele>287.81</ele>
        <time>2016-09-04T09:42:42Z</time>
      </trkpt>
      <trkpt lat="41.912207" lon="0.954036">
        <ele>289.61</ele>
        <time>2016-09-04T09:42:43Z</time>
      </trkpt>
      <trkpt lat="41.912124" lon="0.953818">
        <ele>289.48</ele>
        <time>2016-09-04T09:42:44Z</time>
      </trkpt>
      <trkpt lat="41.912057" lon="0.953595">
        <ele>287.27</ele>
        <time>2016-09-04T09:42:45Z</time>
      </trkpt>
      <trkpt lat="41.912007" lon="0.953391">
        <ele>287.87</ele>
        <time>2016-09-04T09:42:47Z</time>
      </trkpt>
      <trkpt lat="41.911998" lon="0.953143">
        <ele>291.07</ele>
        <time>2016-09-04T09:42:48Z</time>
      </trkpt>
      <trkpt lat="41.911997" lon="0.952989">
        <ele>291.85</ele>
        <time>2016-09-04T09:42:49Z</time>
      </trkpt>
      <trkpt lat="41.911974" lon="0.952732">
        <ele>290.67</ele>
        <time>2016-09-04T09:42:50Z</time>
      </trkpt>
      <trkpt lat="41.911944" lon="0.952488">
        <ele>289.64</ele>
        <time>2016-09-04T09:42:51Z</time>
      </trkpt>
      <trkpt lat="41.911912" lon="0.952241">
        <ele>288.64</ele>
        <time>2016-09-04T09:42:52Z</time>
      </trkpt>
      <trkpt lat="41.911870" lon="0.951969">
        <ele>287.63</ele>
        <time>2016-09-04T09:42:54Z</time>
      </trkpt>
      <trkpt lat="41.911841" lon="0.951704">
        <ele>287.06</ele>
        <time>2016-09-04T09:42:55Z</time>
      </trkpt>
      <trkpt lat="41.911860" lon="0.951435">
        <ele>285.61</ele>
        <time>2016-09-04T09:42:56Z</time>
      </trkpt>
      <trkpt lat="41.911929" lon="0.951177">
        <ele>289.01</ele>
        <time>2016-09-04T09:42:58Z</time>
      </trkpt>
      <trkpt lat="41.912021" lon="0.950967">
        <ele>292.01</ele>
        <time>2016-09-04T09:42:59Z</time>
      </trkpt>
      <trkpt lat="41.912134" lon="0.950772">
        <ele>290.86</ele>
        <time>2016-09-04T09:43:00Z</time>
      </trkpt>
      <trkpt lat="41.912265" lon="0.950565">
        <ele>289.88</ele>
        <time>2016-09-04T09:43:01Z</time>
      </trkpt>
      <trkpt lat="41.912378" lon="0.950343">
        <ele>290.58</ele>
        <time>2016-09-04T09:43:03Z</time>
      </trkpt>
      <trkpt lat="41.912490" lon="0.950128">
        <ele>294.07</ele>
        <time>2016-09-04T09:43:04Z</time>
      </trkpt>
      <trkpt lat="41.912580" lon="0.949910">
        <ele>297.68</ele>
        <time>2016-09-04T09:43:05Z</time>
      </trkpt>
      <trkpt lat="41.912649" lon="0.949661">
        <ele>297.87</ele>
        <time>2016-09-04T09:43:07Z</time>
      </trkpt>
      <trkpt lat="41.912757" lon="0.949432">
        <ele>300.87</ele>
        <time>2016-09-04T09:43:08Z</time>
      </trkpt>
      <trkpt lat="41.912815" lon="0.949174">
        <ele>300.04</ele>
        <time>2016-09-04T09:43:09Z</time>
      </trkpt>
      <trkpt lat="41.912866" lon="0.948923">
        <ele>297.48</ele>
        <time>2016-09-04T09:43:11Z</time>
      </trkpt>
      <trkpt lat="41.912928" lon="0.948656">
        <ele>299.41</ele>
        <time>2016-09-04T09:43:12Z</time>
      </trkpt>
      <trkpt lat="41.912993" lon="0.948407">
        <ele>298.61</ele>
        <time>2016-09-04T09:43:13Z</time>
      </trkpt>
      <trkpt lat="41.913027" lon="0.948161">
        <ele>296.88</ele>
        <time>2016-09-04T09:43:15Z</time>
      </trkpt>
      <trkpt lat="41.913102" lon="0.947917">
        <ele>296.82</ele>
        <time>2016-09-04T09:43:16Z</time>
      </trkpt>
      <trkpt lat="41.913078" lon="0.947673">
        <ele>296.05</ele>
        <time>2016-09-04T09:43:17Z</time>
      </trkpt>
      <trkpt lat="41.913073" lon="0.947398">
        <ele>295.26</ele>
        <time>2016-09-04T09:43:18Z</time>
      </trkpt>
      <trkpt lat="41.913025" lon="0.947153">
        <ele>293.68</ele>
        <time>2016-09-04T09:43:20Z</time>
      </trkpt>
      <trkpt lat="41.913008" lon="0.946902">
        <ele>292.69</ele>
        <time>2016-09-04T09:43:21Z</time>
      </trkpt>
      <trkpt lat="41.912970" lon="0.946685">
        <ele>292.06</ele>
        <time>2016-09-04T09:43:22Z</time>
      </trkpt>
      <trkpt lat="41.912891" lon="0.946467">
        <ele>290.49</ele>
        <time>2016-09-04T09:43:23Z</time>
      </trkpt>
      <trkpt lat="41.912847" lon="0.946332">
        <ele>290.06</ele>
        <time>2016-09-04T09:43:24Z</time>
      </trkpt>
      <trkpt lat="41.912799" lon="0.946237">
        <ele>289.64</ele>
        <time>2016-09-04T09:43:25Z</time>
      </trkpt>
      <trkpt lat="41.912806" lon="0.946025">
        <ele>291.01</ele>
        <time>2016-09-04T09:43:26Z</time>
      </trkpt>
      <trkpt lat="41.912739" lon="0.945893">
        <ele>291.06</ele>
        <time>2016-09-04T09:43:27Z</time>
      </trkpt>
      <trkpt lat="41.912577" lon="0.945686">
        <ele>290.41</ele>
        <time>2016-09-04T09:43:28Z</time>
      </trkpt>
      <trkpt lat="41.912530" lon="0.945445">
        <ele>294.23</ele>
        <time>2016-09-04T09:43:29Z</time>
      </trkpt>
      <trkpt lat="41.912497" lon="0.945207">
        <ele>297.01</ele>
        <time>2016-09-04T09:43:31Z</time>
      </trkpt>
      <trkpt lat="41.912405" lon="0.944998">
        <ele>296.49</ele>
        <time>2016-09-04T09:43:32Z</time>
      </trkpt>
      <trkpt lat="41.912265" lon="0.944792">
        <ele>296.27</ele>
        <time>2016-09-04T09:43:33Z</time>
      </trkpt>
      <trkpt lat="41.912032" lon="0.944448">
        <ele>294.27</ele>
        <time>2016-09-04T09:43:35Z</time>
      </trkpt>
      <trkpt lat="41.911917" lon="0.944340">
        <ele>292.43</ele>
        <time>2016-09-04T09:43:36Z</time>
      </trkpt>
      <trkpt lat="41.911796" lon="0.944143">
        <ele>291.42</ele>
        <time>2016-09-04T09:43:38Z</time>
      </trkpt>
      <trkpt lat="41.911718" lon="0.943921">
        <ele>294.21</ele>
        <time>2016-09-04T09:43:39Z</time>
      </trkpt>
      <trkpt lat="41.911642" lon="0.943685">
        <ele>293.58</ele>
        <time>2016-09-04T09:43:40Z</time>
      </trkpt>
      <trkpt lat="41.911597" lon="0.943529">
        <ele>292.88</ele>
        <time>2016-09-04T09:43:41Z</time>
      </trkpt>
      <trkpt lat="41.911523" lon="0.943314">
        <ele>292.86</ele>
        <time>2016-09-04T09:43:42Z</time>
      </trkpt>
      <trkpt lat="41.911378" lon="0.943278">
        <ele>290.01</ele>
        <time>2016-09-04T09:43:43Z</time>
      </trkpt>
      <trkpt lat="41.911230" lon="0.943133">
        <ele>288.25</ele>
        <time>2016-09-04T09:43:44Z</time>
      </trkpt>
      <trkpt lat="41.911105" lon="0.942786">
        <ele>288.83</ele>
        <time>2016-09-04T09:43:46Z</time>
      </trkpt>
      <trkpt lat="41.911023" lon="0.942570">
        <ele>289.06</ele>
        <time>2016-09-04T09:43:48Z</time>
      </trkpt>
      <trkpt lat="41.910931" lon="0.942302">
        <ele>290.61</ele>
        <time>2016-09-04T09:43:49Z</time>
      </trkpt>
      <trkpt lat="41.911000" lon="0.942074">
        <ele>295.01</ele>
        <time>2016-09-04T09:43:50Z</time>
      </trkpt>
      <trkpt lat="41.910982" lon="0.941813">
        <ele>296.66</ele>
        <time>2016-09-04T09:43:52Z</time>
      </trkpt>
      <trkpt lat="41.910943" lon="0.941555">
        <ele>298.69</ele>
        <time>2016-09-04T09:43:53Z</time>
      </trkpt>
      <trkpt lat="41.910927" lon="0.941299">
        <ele>302.28</ele>
        <time>2016-09-04T09:43:54Z</time>
      </trkpt>
      <trkpt lat="41.910926" lon="0.941052">
        <ele>304.06</ele>
        <time>2016-09-04T09:43:55Z</time>
      </trkpt>
      <trkpt lat="41.910904" lon="0.940796">
        <ele>304.88</ele>
        <time>2016-09-04T09:43:57Z</time>
      </trkpt>
      <trkpt lat="41.910854" lon="0.940551">
        <ele>305.62</ele>
        <time>2016-09-04T09:43:58Z</time>
      </trkpt>
      <trkpt lat="41.910787" lon="0.940305">
        <ele>304.43</ele>
        <time>2016-09-04T09:43:59Z</time>
      </trkpt>
      <trkpt lat="41.910716" lon="0.940054">
        <ele>303.47</ele>
        <time>2016-09-04T09:44:00Z</time>
      </trkpt>
      <trkpt lat="41.910704" lon="0.940017">
        <ele>303.46</ele>
        <time>2016-09-04T09:44:01Z</time>
      </trkpt>
      <trkpt lat="41.910589" lon="0.939824">
        <ele>301.42</ele>
        <time>2016-09-04T09:44:02Z</time>
      </trkpt>
      <trkpt lat="41.910472" lon="0.939643">
        <ele>298.61</ele>
        <time>2016-09-04T09:44:03Z</time>
      </trkpt>
      <trkpt lat="41.910383" lon="0.939415">
        <ele>296.41</ele>
        <time>2016-09-04T09:44:04Z</time>
      </trkpt>
      <trkpt lat="41.910359" lon="0.939317">
        <ele>296.07</ele>
        <time>2016-09-04T09:44:05Z</time>
      </trkpt>
      <trkpt lat="41.910347" lon="0.939079">
        <ele>296.67</ele>
        <time>2016-09-04T09:44:06Z</time>
      </trkpt>
      <trkpt lat="41.910308" lon="0.938871">
        <ele>296.05</ele>
        <time>2016-09-04T09:44:07Z</time>
      </trkpt>
      <trkpt lat="41.910262" lon="0.938646">
        <ele>294.29</ele>
        <time>2016-09-04T09:44:08Z</time>
      </trkpt>
      <trkpt lat="41.910310" lon="0.938522">
        <ele>295.83</ele>
        <time>2016-09-04T09:44:09Z</time>
      </trkpt>
      <trkpt lat="41.910448" lon="0.938387">
        <ele>298.83</ele>
        <time>2016-09-04T09:44:10Z</time>
      </trkpt>
      <trkpt lat="41.910568" lon="0.938275">
        <ele>301.04</ele>
        <time>2016-09-04T09:44:11Z</time>
      </trkpt>
      <trkpt lat="41.910481" lon="0.938168">
        <ele>297.88</ele>
        <time>2016-09-04T09:44:12Z</time>
      </trkpt>
      <trkpt lat="41.910304" lon="0.938066">
        <ele>292.24</ele>
        <time>2016-09-04T09:44:13Z</time>
      </trkpt>
      <trkpt lat="41.910197" lon="0.937854">
        <ele>291.20</ele>
        <time>2016-09-04T09:44:14Z</time>
      </trkpt>
      <trkpt lat="41.910165" lon="0.937727">
        <ele>291.61</ele>
        <time>2016-09-04T09:44:15Z</time>
      </trkpt>
      <trkpt lat="41.910161" lon="0.937511">
        <ele>293.66</ele>
        <time>2016-09-04T09:44:16Z</time>
      </trkpt>
      <trkpt lat="41.910117" lon="0.937307">
        <ele>295.49</ele>
        <time>2016-09-04T09:44:17Z</time>
      </trkpt>
      <trkpt lat="41.910068" lon="0.937092">
        <ele>294.27</ele>
        <time>2016-09-04T09:44:18Z</time>
      </trkpt>
      <trkpt lat="41.909999" lon="0.936871">
        <ele>291.01</ele>
        <time>2016-09-04T09:44:20Z</time>
      </trkpt>
      <trkpt lat="41.909947" lon="0.936640">
        <ele>288.44</ele>
        <time>2016-09-04T09:44:21Z</time>
      </trkpt>
      <trkpt lat="41.909926" lon="0.936407">
        <ele>287.03</ele>
        <time>2016-09-04T09:44:22Z</time>
      </trkpt>
      <trkpt lat="41.910009" lon="0.936187">
        <ele>289.49</ele>
        <time>2016-09-04T09:44:23Z</time>
      </trkpt>
      <trkpt lat="41.910101" lon="0.935962">
        <ele>292.46</ele>
        <time>2016-09-04T09:44:24Z</time>
      </trkpt>
      <trkpt lat="41.910129" lon="0.935695">
        <ele>291.42</ele>
        <time>2016-09-04T09:44:26Z</time>
      </trkpt>
      <trkpt lat="41.910158" lon="0.935432">
        <ele>289.01</ele>
        <time>2016-09-04T09:44:27Z</time>
      </trkpt>
      <trkpt lat="41.910208" lon="0.935197">
        <ele>288.23</ele>
        <time>2016-09-04T09:44:28Z</time>
      </trkpt>
      <trkpt lat="41.910226" lon="0.935098">
        <ele>287.84</ele>
        <time>2016-09-04T09:44:29Z</time>
      </trkpt>
      <trkpt lat="41.910218" lon="0.934831">
        <ele>284.03</ele>
        <time>2016-09-04T09:44:30Z</time>
      </trkpt>
      <trkpt lat="41.910225" lon="0.934663">
        <ele>282.45</ele>
        <time>2016-09-04T09:44:31Z</time>
      </trkpt>
      <trkpt lat="41.910286" lon="0.934441">
        <ele>282.49</ele>
        <time>2016-09-04T09:44:32Z</time>
      </trkpt>
      <trkpt lat="41.910318" lon="0.934199">
        <ele>282.06</ele>
        <time>2016-09-04T09:44:33Z</time>
      </trkpt>
      <trkpt lat="41.910334" lon="0.933939">
        <ele>281.49</ele>
        <time>2016-09-04T09:44:35Z</time>
      </trkpt>
      <trkpt lat="41.910422" lon="0.933718">
        <ele>288.27</ele>
        <time>2016-09-04T09:44:36Z</time>
      </trkpt>
      <trkpt lat="41.910507" lon="0.933590">
        <ele>290.23</ele>
        <time>2016-09-04T09:44:37Z</time>
      </trkpt>
      <trkpt lat="41.910648" lon="0.933399">
        <ele>286.86</ele>
        <time>2016-09-04T09:44:38Z</time>
      </trkpt>
      <trkpt lat="41.910747" lon="0.933184">
        <ele>284.21</ele>
        <time>2016-09-04T09:44:39Z</time>
      </trkpt>
      <trkpt lat="41.910862" lon="0.932904">
        <ele>289.83</ele>
        <time>2016-09-04T09:44:41Z</time>
      </trkpt>
      <trkpt lat="41.910948" lon="0.932632">
        <ele>295.07</ele>
        <time>2016-09-04T09:44:42Z</time>
      </trkpt>
      <trkpt lat="41.910984" lon="0.932276">
        <ele>297.24</ele>
        <time>2016-09-04T09:44:44Z</time>
      </trkpt>
      <trkpt lat="41.910967" lon="0.932012">
        <ele>297.25</ele>
        <time>2016-09-04T09:44:45Z</time>
      </trkpt>
      <trkpt lat="41.910986" lon="0.931772">
        <ele>299.10</ele>
        <time>2016-09-04T09:44:47Z</time>
      </trkpt>
      <trkpt lat="41.911000" lon="0.931515">
        <ele>302.07</ele>
        <time>2016-09-04T09:44:48Z</time>
      </trkpt>
      <trkpt lat="41.910951" lon="0.931274">
        <ele>302.65</ele>
        <time>2016-09-04T09:44:49Z</time>
      </trkpt>
      <trkpt lat="41.910947" lon="0.931000">
        <ele>306.06</ele>
        <time>2016-09-04T09:44:51Z</time>
      </trkpt>
      <trkpt lat="41.910902" lon="0.930746">
        <ele>307.02</ele>
        <time>2016-09-04T09:44:52Z</time>
      </trkpt>
      <trkpt lat="41.910775" lon="0.930551">
        <ele>303.81</ele>
        <time>2016-09-04T09:44:53Z</time>
      </trkpt>
      <trkpt lat="41.910679" lon="0.930346">
        <ele>303.82</ele>
        <time>2016-09-04T09:44:54Z</time>
      </trkpt>
      <trkpt lat="41.910544" lon="0.930158">
        <ele>302.69</ele>
        <time>2016-09-04T09:44:56Z</time>
      </trkpt>
      <trkpt lat="41.910399" lon="0.930000">
        <ele>300.49</ele>
        <time>2016-09-04T09:44:57Z</time>
      </trkpt>
      <trkpt lat="41.910270" lon="0.929790">
        <ele>300.07</ele>
        <time>2016-09-04T09:44:58Z</time>
      </trkpt>
      <trkpt lat="41.910221" lon="0.929648">
        <ele>299.48</ele>
        <time>2016-09-04T09:44:59Z</time>
      </trkpt>
      <trkpt lat="41.910175" lon="0.929415">
        <ele>297.85</ele>
        <time>2016-09-04T09:45:00Z</time>
      </trkpt>
      <trkpt lat="41.910185" lon="0.929151">
        <ele>297.67</ele>
        <time>2016-09-04T09:45:01Z</time>
      </trkpt>
      <trkpt lat="41.910232" lon="0.928900">
        <ele>291.24</ele>
        <time>2016-09-04T09:45:03Z</time>
      </trkpt>
      <trkpt lat="41.910219" lon="0.928638">
        <ele>287.82</ele>
        <time>2016-09-04T09:45:04Z</time>
      </trkpt>
      <trkpt lat="41.910210" lon="0.928403">
        <ele>285.04</ele>
        <time>2016-09-04T09:45:05Z</time>
      </trkpt>
      <trkpt lat="41.910189" lon="0.928155">
        <ele>282.40</ele>
        <time>2016-09-04T09:45:06Z</time>
      </trkpt>
      <trkpt lat="41.910207" lon="0.928019">
        <ele>282.21</ele>
        <time>2016-09-04T09:45:07Z</time>
      </trkpt>
      <trkpt lat="41.910234" lon="0.927776">
        <ele>283.48</ele>
        <time>2016-09-04T09:45:08Z</time>
      </trkpt>
      <trkpt lat="41.910254" lon="0.927516">
        <ele>285.06</ele>
        <time>2016-09-04T09:45:10Z</time>
      </trkpt>
      <trkpt lat="41.910294" lon="0.927250">
        <ele>288.47</ele>
        <time>2016-09-04T09:45:11Z</time>
      </trkpt>
      <trkpt lat="41.910302" lon="0.927001">
        <ele>289.09</ele>
        <time>2016-09-04T09:45:12Z</time>
      </trkpt>
      <trkpt lat="41.910280" lon="0.926873">
        <ele>288.65</ele>
        <time>2016-09-04T09:45:13Z</time>
      </trkpt>
      <trkpt lat="41.910300" lon="0.926628">
        <ele>289.08</ele>
        <time>2016-09-04T09:45:14Z</time>
      </trkpt>
      <trkpt lat="41.910319" lon="0.926367">
        <ele>289.08</ele>
        <time>2016-09-04T09:45:15Z</time>
      </trkpt>
      <trkpt lat="41.910349" lon="0.926117">
        <ele>288.89</ele>
        <time>2016-09-04T09:45:17Z</time>
      </trkpt>
      <trkpt lat="41.910352" lon="0.925869">
        <ele>288.46</ele>
        <time>2016-09-04T09:45:18Z</time>
      </trkpt>
      <trkpt lat="41.910372" lon="0.925599">
        <ele>288.47</ele>
        <time>2016-09-04T09:45:19Z</time>
      </trkpt>
      <trkpt lat="41.910376" lon="0.925341">
        <ele>288.01</ele>
        <time>2016-09-04T09:45:21Z</time>
      </trkpt>
      <trkpt lat="41.910418" lon="0.925083">
        <ele>288.41</ele>
        <time>2016-09-04T09:45:22Z</time>
      </trkpt>
      <trkpt lat="41.910460" lon="0.924833">
        <ele>288.82</ele>
        <time>2016-09-04T09:45:23Z</time>
      </trkpt>
      <trkpt lat="41.910477" lon="0.924591">
        <ele>289.07</ele>
        <time>2016-09-04T09:45:24Z</time>
      </trkpt>
      <trkpt lat="41.910475" lon="0.924347">
        <ele>289.65</ele>
        <time>2016-09-04T09:45:26Z</time>
      </trkpt>
      <trkpt lat="41.910506" lon="0.924102">
        <ele>291.62</ele>
        <time>2016-09-04T09:45:27Z</time>
      </trkpt>
      <trkpt lat="41.910524" lon="0.923899">
        <ele>293.04</ele>
        <time>2016-09-04T09:45:28Z</time>
      </trkpt>
      <trkpt lat="41.910506" lon="0.923625">
        <ele>293.90</ele>
        <time>2016-09-04T09:45:29Z</time>
      </trkpt>
      <trkpt lat="41.910516" lon="0.923492">
        <ele>296.04</ele>
        <time>2016-09-04T09:45:30Z</time>
      </trkpt>
      <trkpt lat="41.910539" lon="0.923205">
        <ele>301.06</ele>
        <time>2016-09-04T09:45:31Z</time>
      </trkpt>
      <trkpt lat="41.910510" lon="0.922949">
        <ele>303.05</ele>
        <time>2016-09-04T09:45:33Z</time>
      </trkpt>
      <trkpt lat="41.910409" lon="0.922752">
        <ele>301.35</ele>
        <time>2016-09-04T09:45:34Z</time>
      </trkpt>
      <trkpt lat="41.910249" lon="0.922529">
        <ele>298.61</ele>
        <time>2016-09-04T09:45:35Z</time>
      </trkpt>
      <trkpt lat="41.910142" lon="0.922355">
        <ele>297.85</ele>
        <time>2016-09-04T09:45:36Z</time>
      </trkpt>
      <trkpt lat="41.910092" lon="0.922154">
        <ele>299.29</ele>
        <time>2016-09-04T09:45:37Z</time>
      </trkpt>
      <trkpt lat="41.910022" lon="0.922022">
        <ele>297.01</ele>
        <time>2016-09-04T09:45:38Z</time>
      </trkpt>
      <trkpt lat="41.909798" lon="0.921828">
        <ele>293.43</ele>
        <time>2016-09-04T09:45:40Z</time>
      </trkpt>
      <trkpt lat="41.909699" lon="0.921623">
        <ele>296.45</ele>
        <time>2016-09-04T09:45:41Z</time>
      </trkpt>
      <trkpt lat="41.909515" lon="0.921268">
        <ele>303.48</ele>
        <time>2016-09-04T09:45:43Z</time>
      </trkpt>
      <trkpt lat="41.909511" lon="0.921231">
        <ele>304.42</ele>
        <time>2016-09-04T09:45:44Z</time>
      </trkpt>
      <trkpt lat="41.909719" lon="0.921012">
        <ele>303.36</ele>
        <time>2016-09-04T09:45:45Z</time>
      </trkpt>
      <trkpt lat="41.909788" lon="0.920929">
        <ele>300.86</ele>
        <time>2016-09-04T09:45:46Z</time>
      </trkpt>
      <trkpt lat="41.909811" lon="0.920803">
        <ele>299.62</ele>
        <time>2016-09-04T09:45:47Z</time>
      </trkpt>
      <trkpt lat="41.909894" lon="0.920496">
        <ele>296.05</ele>
        <time>2016-09-04T09:45:48Z</time>
      </trkpt>
      <trkpt lat="41.909930" lon="0.920389">
        <ele>296.44</ele>
        <time>2016-09-04T09:45:49Z</time>
      </trkpt>
      <trkpt lat="41.909967" lon="0.920262">
        <ele>297.49</ele>
        <time>2016-09-04T09:45:50Z</time>
      </trkpt>
      <trkpt lat="41.909969" lon="0.919916">
        <ele>295.41</ele>
        <time>2016-09-04T09:45:51Z</time>
      </trkpt>
      <trkpt lat="41.909997" lon="0.919797">
        <ele>295.89</ele>
        <time>2016-09-04T09:45:52Z</time>
      </trkpt>
      <trkpt lat="41.909986" lon="0.919578">
        <ele>293.68</ele>
        <time>2016-09-04T09:45:53Z</time>
      </trkpt>
      <trkpt lat="41.910065" lon="0.919423">
        <ele>296.29</ele>
        <time>2016-09-04T09:45:54Z</time>
      </trkpt>
      <trkpt lat="41.910122" lon="0.919272">
        <ele>297.82</ele>
        <time>2016-09-04T09:45:55Z</time>
      </trkpt>
      <trkpt lat="41.910134" lon="0.919225">
        <ele>298.07</ele>
        <time>2016-09-04T09:45:56Z</time>
      </trkpt>
      <trkpt lat="41.910276" lon="0.919079">
        <ele>301.61</ele>
        <time>2016-09-04T09:45:57Z</time>
      </trkpt>
      <trkpt lat="41.910363" lon="0.918899">
        <ele>302.48</ele>
        <time>2016-09-04T09:45:58Z</time>
      </trkpt>
      <trkpt lat="41.910364" lon="0.918645">
        <ele>301.46</ele>
        <time>2016-09-04T09:45:59Z</time>
      </trkpt>
      <trkpt lat="41.910423" lon="0.918409">
        <ele>299.50</ele>
        <time>2016-09-04T09:46:00Z</time>
      </trkpt>
      <trkpt lat="41.910576" lon="0.918113">
        <ele>295.66</ele>
        <time>2016-09-04T09:46:02Z</time>
      </trkpt>
      <trkpt lat="41.910607" lon="0.917926">
        <ele>293.61</ele>
        <time>2016-09-04T09:46:03Z</time>
      </trkpt>
      <trkpt lat="41.910610" lon="0.917804">
        <ele>291.80</ele>
        <time>2016-09-04T09:46:04Z</time>
      </trkpt>
      <trkpt lat="41.910592" lon="0.917607">
        <ele>288.45</ele>
        <time>2016-09-04T09:46:05Z</time>
      </trkpt>
      <trkpt lat="41.910621" lon="0.917362">
        <ele>284.86</ele>
        <time>2016-09-04T09:46:06Z</time>
      </trkpt>
      <trkpt lat="41.910770" lon="0.917186">
        <ele>284.87</ele>
        <time>2016-09-04T09:46:07Z</time>
      </trkpt>
      <trkpt lat="41.910885" lon="0.917153">
        <ele>287.68</ele>
        <time>2016-09-04T09:46:08Z</time>
      </trkpt>
      <trkpt lat="41.910834" lon="0.917001">
        <ele>286.63</ele>
        <time>2016-09-04T09:46:09Z</time>
      </trkpt>
      <trkpt lat="41.910693" lon="0.916850">
        <ele>284.07</ele>
        <time>2016-09-04T09:46:10Z</time>
      </trkpt>
      <trkpt lat="41.910695" lon="0.916778">
        <ele>284.21</ele>
        <time>2016-09-04T09:46:11Z</time>
      </trkpt>
      <trkpt lat="41.910798" lon="0.916626">
        <ele>286.21</ele>
        <time>2016-09-04T09:46:12Z</time>
      </trkpt>
      <trkpt lat="41.910888" lon="0.916425">
        <ele>289.68</ele>
        <time>2016-09-04T09:46:13Z</time>
      </trkpt>
      <trkpt lat="41.910873" lon="0.916214">
        <ele>290.29</ele>
        <time>2016-09-04T09:46:14Z</time>
      </trkpt>
      <trkpt lat="41.910874" lon="0.915947">
        <ele>291.66</ele>
        <time>2016-09-04T09:46:15Z</time>
      </trkpt>
      <trkpt lat="41.910865" lon="0.915647">
        <ele>293.48</ele>
        <time>2016-09-04T09:46:17Z</time>
      </trkpt>
      <trkpt lat="41.910849" lon="0.915333">
        <ele>295.66</ele>
        <time>2016-09-04T09:46:18Z</time>
      </trkpt>
      <trkpt lat="41.910845" lon="0.915201">
        <ele>296.48</ele>
        <time>2016-09-04T09:46:19Z</time>
      </trkpt>
      <trkpt lat="41.910752" lon="0.915003">
        <ele>293.81</ele>
        <time>2016-09-04T09:46:20Z</time>
      </trkpt>
      <trkpt lat="41.910726" lon="0.914757">
        <ele>294.61</ele>
        <time>2016-09-04T09:46:21Z</time>
      </trkpt>
      <trkpt lat="41.910768" lon="0.914563">
        <ele>298.49</ele>
        <time>2016-09-04T09:46:22Z</time>
      </trkpt>
      <trkpt lat="41.910828" lon="0.914468">
        <ele>302.45</ele>
        <time>2016-09-04T09:46:23Z</time>
      </trkpt>
      <trkpt lat="41.910887" lon="0.914296">
        <ele>307.05</ele>
        <time>2016-09-04T09:46:24Z</time>
      </trkpt>
      <trkpt lat="41.910773" lon="0.914239">
        <ele>302.22</ele>
        <time>2016-09-04T09:46:26Z</time>
      </trkpt>
      <trkpt lat="41.910747" lon="0.914035">
        <ele>303.21</ele>
        <time>2016-09-04T09:46:27Z</time>
      </trkpt>
      <trkpt lat="41.910765" lon="0.913820">
        <ele>306.04</ele>
        <time>2016-09-04T09:46:28Z</time>
      </trkpt>
      <trkpt lat="41.910750" lon="0.913661">
        <ele>306.68</ele>
        <time>2016-09-04T09:46:29Z</time>
      </trkpt>
      <trkpt lat="41.910787" lon="0.913533">
        <ele>309.42</ele>
        <time>2016-09-04T09:46:30Z</time>
      </trkpt>
      <trkpt lat="41.910934" lon="0.913259">
        <ele>318.09</ele>
        <time>2016-09-04T09:46:31Z</time>
      </trkpt>
      <trkpt lat="41.911039" lon="0.913239">
        <ele>322.42</ele>
        <time>2016-09-04T09:46:32Z</time>
      </trkpt>
      <trkpt lat="41.911105" lon="0.913159">
        <ele>325.70</ele>
        <time>2016-09-04T09:46:33Z</time>
      </trkpt>
      <trkpt lat="41.911129" lon="0.912969">
        <ele>327.33</ele>
        <time>2016-09-04T09:46:34Z</time>
      </trkpt>
      <trkpt lat="41.910993" lon="0.912794">
        <ele>322.23</ele>
        <time>2016-09-04T09:46:35Z</time>
      </trkpt>
      <trkpt lat="41.910994" lon="0.912574">
        <ele>322.81</ele>
        <time>2016-09-04T09:46:36Z</time>
      </trkpt>
      <trkpt lat="41.911017" lon="0.912312">
        <ele>327.38</ele>
        <time>2016-09-04T09:46:37Z</time>
      </trkpt>
      <trkpt lat="41.911048" lon="0.912139">
        <ele>330.91</ele>
        <time>2016-09-04T09:46:38Z</time>
      </trkpt>
      <trkpt lat="41.910939" lon="0.912004">
        <ele>325.68</ele>
        <time>2016-09-04T09:46:39Z</time>
      </trkpt>
      <trkpt lat="41.910922" lon="0.911783">
        <ele>326.01</ele>
        <time>2016-09-04T09:46:40Z</time>
      </trkpt>
      <trkpt lat="41.910931" lon="0.911761">
        <ele>326.63</ele>
        <time>2016-09-04T09:46:41Z</time>
      </trkpt>
      <trkpt lat="41.911091" lon="0.911620">
        <ele>336.43</ele>
        <time>2016-09-04T09:46:42Z</time>
      </trkpt>
      <trkpt lat="41.911077" lon="0.911354">
        <ele>337.41</ele>
        <time>2016-09-04T09:46:43Z</time>
      </trkpt>
      <trkpt lat="41.911022" lon="0.911292">
        <ele>335.28</ele>
        <time>2016-09-04T09:46:44Z</time>
      </trkpt>
      <trkpt lat="41.910987" lon="0.911023">
        <ele>336.50</ele>
        <time>2016-09-04T09:46:45Z</time>
      </trkpt>
      <trkpt lat="41.911009" lon="0.910925">
        <ele>338.84</ele>
        <time>2016-09-04T09:46:46Z</time>
      </trkpt>
      <trkpt lat="41.910996" lon="0.910756">
        <ele>339.26</ele>
        <time>2016-09-04T09:46:47Z</time>
      </trkpt>
      <trkpt lat="41.910815" lon="0.910651">
        <ele>331.46</ele>
        <time>2016-09-04T09:46:49Z</time>
      </trkpt>
      <trkpt lat="41.910731" lon="0.910371">
        <ele>332.29</ele>
        <time>2016-09-04T09:46:50Z</time>
      </trkpt>
      <trkpt lat="41.910755" lon="0.910119">
        <ele>339.01</ele>
        <time>2016-09-04T09:46:51Z</time>
      </trkpt>
      <trkpt lat="41.910695" lon="0.909943">
        <ele>340.21</ele>
        <time>2016-09-04T09:46:52Z</time>
      </trkpt>
      <trkpt lat="41.910640" lon="0.909792">
        <ele>340.86</ele>
        <time>2016-09-04T09:46:53Z</time>
      </trkpt>
      <trkpt lat="41.910583" lon="0.909550">
        <ele>340.65</ele>
        <time>2016-09-04T09:46:54Z</time>
      </trkpt>
      <trkpt lat="41.910565" lon="0.909184">
        <ele>343.63</ele>
        <time>2016-09-04T09:46:56Z</time>
      </trkpt>
      <trkpt lat="41.910560" lon="0.909081">
        <ele>344.45</ele>
        <time>2016-09-04T09:46:57Z</time>
      </trkpt>
      <trkpt lat="41.910450" lon="0.908844">
        <ele>341.65</ele>
        <time>2016-09-04T09:46:58Z</time>
      </trkpt>
      <trkpt lat="41.910405" lon="0.908687">
        <ele>343.02</ele>
        <time>2016-09-04T09:46:59Z</time>
      </trkpt>
      <trkpt lat="41.910390" lon="0.908437">
        <ele>347.21</ele>
        <time>2016-09-04T09:47:00Z</time>
      </trkpt>
      <trkpt lat="41.910266" lon="0.908094">
        <ele>347.08</ele>
        <time>2016-09-04T09:47:02Z</time>
      </trkpt>
      <trkpt lat="41.910177" lon="0.907871">
        <ele>346.06</ele>
        <time>2016-09-04T09:47:03Z</time>
      </trkpt>
      <trkpt lat="41.910109" lon="0.907629">
        <ele>346.23</ele>
        <time>2016-09-04T09:47:05Z</time>
      </trkpt>
      <trkpt lat="41.910077" lon="0.907387">
        <ele>348.14</ele>
        <time>2016-09-04T09:47:06Z</time>
      </trkpt>
      <trkpt lat="41.910082" lon="0.907129">
        <ele>349.66</ele>
        <time>2016-09-04T09:47:07Z</time>
      </trkpt>
      <trkpt lat="41.910036" lon="0.907007">
        <ele>349.01</ele>
        <time>2016-09-04T09:47:08Z</time>
      </trkpt>
      <trkpt lat="41.909984" lon="0.906754">
        <ele>349.09</ele>
        <time>2016-09-04T09:47:09Z</time>
      </trkpt>
      <trkpt lat="41.909953" lon="0.906635">
        <ele>349.09</ele>
        <time>2016-09-04T09:47:10Z</time>
      </trkpt>
      <trkpt lat="41.909899" lon="0.906314">
        <ele>350.25</ele>
        <time>2016-09-04T09:47:11Z</time>
      </trkpt>
      <trkpt lat="41.909760" lon="0.906139">
        <ele>345.01</ele>
        <time>2016-09-04T09:47:13Z</time>
      </trkpt>
      <trkpt lat="41.909712" lon="0.905882">
        <ele>346.01</ele>
        <time>2016-09-04T09:47:14Z</time>
      </trkpt>
      <trkpt lat="41.909662" lon="0.905633">
        <ele>346.97</ele>
        <time>2016-09-04T09:47:15Z</time>
      </trkpt>
      <trkpt lat="41.909634" lon="0.905362">
        <ele>349.29</ele>
        <time>2016-09-04T09:47:17Z</time>
      </trkpt>
      <trkpt lat="41.909598" lon="0.905095">
        <ele>350.22</ele>
        <time>2016-09-04T09:47:18Z</time>
      </trkpt>
      <trkpt lat="41.909555" lon="0.904855">
        <ele>350.43</ele>
        <time>2016-09-04T09:47:19Z</time>
      </trkpt>
      <trkpt lat="41.909543" lon="0.904611">
        <ele>351.09</ele>
        <time>2016-09-04T09:47:20Z</time>
      </trkpt>
      <trkpt lat="41.909491" lon="0.904367">
        <ele>348.85</ele>
        <time>2016-09-04T09:47:22Z</time>
      </trkpt>
      <trkpt lat="41.909503" lon="0.904119">
        <ele>350.29</ele>
        <time>2016-09-04T09:47:23Z</time>
      </trkpt>
      <trkpt lat="41.909558" lon="0.903882">
        <ele>353.89</ele>
        <time>2016-09-04T09:47:24Z</time>
      </trkpt>
      <trkpt lat="41.909630" lon="0.903676">
        <ele>357.66</ele>
        <time>2016-09-04T09:47:25Z</time>
      </trkpt>
      <trkpt lat="41.909666" lon="0.903495">
        <ele>360.21</ele>
        <time>2016-09-04T09:47:26Z</time>
      </trkpt>
      <trkpt lat="41.909588" lon="0.903446">
        <ele>356.02</ele>
        <time>2016-09-04T09:47:27Z</time>
      </trkpt>
      <trkpt lat="41.909457" lon="0.903392">
        <ele>348.83</ele>
        <time>2016-09-04T09:47:28Z</time>
      </trkpt>
      <trkpt lat="41.909303" lon="0.903249">
        <ele>340.62</ele>
        <time>2016-09-04T09:47:29Z</time>
      </trkpt>
      <trkpt lat="41.909305" lon="0.903143">
        <ele>341.02</ele>
        <time>2016-09-04T09:47:30Z</time>
      </trkpt>
      <trkpt lat="41.909262" lon="0.902965">
        <ele>339.87</ele>
        <time>2016-09-04T09:47:31Z</time>
      </trkpt>
      <trkpt lat="41.909120" lon="0.902636">
        <ele>335.03</ele>
        <time>2016-09-04T09:47:32Z</time>
      </trkpt>
      <trkpt lat="41.909143" lon="0.902291">
        <ele>339.64</ele>
        <time>2016-09-04T09:47:34Z</time>
      </trkpt>
      <trkpt lat="41.909182" lon="0.902229">
        <ele>342.20</ele>
        <time>2016-09-04T09:47:35Z</time>
      </trkpt>
      <trkpt lat="41.909188" lon="0.901980">
        <ele>343.81</ele>
        <time>2016-09-04T09:47:36Z</time>
      </trkpt>
      <trkpt lat="41.909139" lon="0.901675">
        <ele>342.65</ele>
        <time>2016-09-04T09:47:37Z</time>
      </trkpt>
      <trkpt lat="41.909123" lon="0.901455">
        <ele>342.90</ele>
        <time>2016-09-04T09:47:38Z</time>
      </trkpt>
      <trkpt lat="41.909144" lon="0.901254">
        <ele>343.25</ele>
        <time>2016-09-04T09:47:39Z</time>
      </trkpt>
      <trkpt lat="41.909142" lon="0.901230">
        <ele>343.02</ele>
        <time>2016-09-04T09:47:40Z</time>
      </trkpt>
      <trkpt lat="41.909109" lon="0.900894">
        <ele>338.25</ele>
        <time>2016-09-04T09:47:41Z</time>
      </trkpt>
      <trkpt lat="41.909152" lon="0.900644">
        <ele>338.66</ele>
        <time>2016-09-04T09:47:43Z</time>
      </trkpt>
      <trkpt lat="41.909186" lon="0.900306">
        <ele>338.61</ele>
        <time>2016-09-04T09:47:44Z</time>
      </trkpt>
      <trkpt lat="41.909105" lon="0.900183">
        <ele>331.41</ele>
        <time>2016-09-04T09:47:45Z</time>
      </trkpt>
      <trkpt lat="41.909007" lon="0.899964">
        <ele>325.64</ele>
        <time>2016-09-04T09:47:46Z</time>
      </trkpt>
      <trkpt lat="41.909075" lon="0.899640">
        <ele>324.28</ele>
        <time>2016-09-04T09:47:48Z</time>
      </trkpt>
      <trkpt lat="41.909120" lon="0.899614">
        <ele>327.46</ele>
        <time>2016-09-04T09:47:49Z</time>
      </trkpt>
      <trkpt lat="41.909266" lon="0.899464">
        <ele>338.05</ele>
        <time>2016-09-04T09:47:50Z</time>
      </trkpt>
      <trkpt lat="41.909216" lon="0.899315">
        <ele>333.68</ele>
        <time>2016-09-04T09:47:51Z</time>
      </trkpt>
      <trkpt lat="41.909061" lon="0.899007">
        <ele>321.47</ele>
        <time>2016-09-04T09:47:52Z</time>
      </trkpt>
      <trkpt lat="41.909010" lon="0.898789">
        <ele>320.68</ele>
        <time>2016-09-04T09:47:54Z</time>
      </trkpt>
      <trkpt lat="41.909133" lon="0.898526">
        <ele>324.41</ele>
        <time>2016-09-04T09:47:55Z</time>
      </trkpt>
      <trkpt lat="41.909180" lon="0.898259">
        <ele>327.09</ele>
        <time>2016-09-04T09:47:56Z</time>
      </trkpt>
      <trkpt lat="41.909214" lon="0.898099">
        <ele>327.02</ele>
        <time>2016-09-04T09:47:57Z</time>
      </trkpt>
      <trkpt lat="41.909275" lon="0.898024">
        <ele>329.26</ele>
        <time>2016-09-04T09:47:58Z</time>
      </trkpt>
      <trkpt lat="41.909376" lon="0.897866">
        <ele>333.06</ele>
        <time>2016-09-04T09:47:59Z</time>
      </trkpt>
      <trkpt lat="41.909474" lon="0.897666">
        <ele>336.66</ele>
        <time>2016-09-04T09:48:00Z</time>
      </trkpt>
      <trkpt lat="41.909610" lon="0.897607">
        <ele>341.48</ele>
        <time>2016-09-04T09:48:01Z</time>
      </trkpt>
      <trkpt lat="41.909745" lon="0.897672">
        <ele>348.02</ele>
        <time>2016-09-04T09:48:02Z</time>
      </trkpt>
      <trkpt lat="41.909885" lon="0.897487">
        <ele>350.69</ele>
        <time>2016-09-04T09:48:03Z</time>
      </trkpt>
      <trkpt lat="41.909967" lon="0.897361">
        <ele>351.04</ele>
        <time>2016-09-04T09:48:04Z</time>
      </trkpt>
      <trkpt lat="41.909809" lon="0.897385">
        <ele>345.87</ele>
        <time>2016-09-04T09:48:05Z</time>
      </trkpt>
      <trkpt lat="41.909708" lon="0.897394">
        <ele>341.89</ele>
        <time>2016-09-04T09:48:06Z</time>
      </trkpt>
      <trkpt lat="41.909555" lon="0.897361">
        <ele>335.02</ele>
        <time>2016-09-04T09:48:07Z</time>
      </trkpt>
      <trkpt lat="41.909421" lon="0.897393">
        <ele>330.06</ele>
        <time>2016-09-04T09:48:08Z</time>
      </trkpt>
      <trkpt lat="41.909176" lon="0.897194">
        <ele>318.22</ele>
        <time>2016-09-04T09:48:10Z</time>
      </trkpt>
      <trkpt lat="41.909241" lon="0.897316">
        <ele>321.47</ele>
        <time>2016-09-04T09:48:11Z</time>
      </trkpt>
      <trkpt lat="41.909107" lon="0.897493">
        <ele>316.89</ele>
        <time>2016-09-04T09:48:12Z</time>
      </trkpt>
      <trkpt lat="41.909102" lon="0.897382">
        <ele>315.86</ele>
        <time>2016-09-04T09:48:13Z</time>
      </trkpt>
      <trkpt lat="41.908968" lon="0.897467">
        <ele>315.05</ele>
        <time>2016-09-04T09:48:14Z</time>
      </trkpt>
      <trkpt lat="41.908830" lon="0.897500">
        <ele>315.48</ele>
        <time>2016-09-04T09:48:15Z</time>
      </trkpt>
      <trkpt lat="41.908778" lon="0.897662">
        <ele>316.81</ele>
        <time>2016-09-04T09:48:16Z</time>
      </trkpt>
      <trkpt lat="41.908700" lon="0.897839">
        <ele>317.64</ele>
        <time>2016-09-04T09:48:17Z</time>
      </trkpt>
      <trkpt lat="41.908691" lon="0.897598">
        <ele>316.62</ele>
        <time>2016-09-04T09:48:18Z</time>
      </trkpt>
      <trkpt lat="41.908774" lon="0.897337">
        <ele>314.48</ele>
        <time>2016-09-04T09:48:20Z</time>
      </trkpt>
      <trkpt lat="41.908657" lon="0.897157">
        <ele>314.01</ele>
        <time>2016-09-04T09:48:21Z</time>
      </trkpt>
      <trkpt lat="41.908559" lon="0.896941">
        <ele>314.28</ele>
        <time>2016-09-04T09:48:22Z</time>
      </trkpt>
      <trkpt lat="41.908610" lon="0.896745">
        <ele>314.65</ele>
        <time>2016-09-04T09:48:23Z</time>
      </trkpt>
      <trkpt lat="41.908687" lon="0.896516">
        <ele>320.42</ele>
        <time>2016-09-04T09:48:25Z</time>
      </trkpt>
      <trkpt lat="41.908609" lon="0.896247">
        <ele>321.41</ele>
        <time>2016-09-04T09:48:26Z</time>
      </trkpt>
      <trkpt lat="41.908457" lon="0.895941">
        <ele>319.38</ele>
        <time>2016-09-04T09:48:28Z</time>
      </trkpt>
      <trkpt lat="41.908286" lon="0.895410">
        <ele>317.29</ele>
        <time>2016-09-04T09:48:29Z</time>
      </trkpt>
      <trkpt lat="41.908294" lon="0.895321">
        <ele>317.44</ele>
        <time>2016-09-04T09:48:31Z</time>
      </trkpt>
      <trkpt lat="41.908086" lon="0.895130">
        <ele>320.45</ele>
        <time>2016-09-04T09:48:32Z</time>
      </trkpt>
      <trkpt lat="41.907794" lon="0.894648">
        <ele>321.49</ele>
        <time>2016-09-04T09:48:33Z</time>
      </trkpt>
      <trkpt lat="41.907460" lon="0.894884">
        <ele>322.41</ele>
        <time>2016-09-04T09:48:34Z</time>
      </trkpt>
      <trkpt lat="41.907068" lon="0.894360">
        <ele>294.06</ele>
        <time>2016-09-04T09:48:41Z</time>
      </trkpt>
      <trkpt lat="41.906688" lon="0.894525">
        <ele>306.00</ele>
        <time>2016-09-04T09:48:43Z</time>
      </trkpt>
      <trkpt lat="41.906575" lon="0.894219">
        <ele>302.02</ele>
        <time>2016-09-04T09:48:45Z</time>
      </trkpt>
      <trkpt lat="41.906340" lon="0.894420">
        <ele>317.01</ele>
        <time>2016-09-04T09:48:47Z</time>
      </trkpt>
      <trkpt lat="41.906380" lon="0.894562">
        <ele>317.09</ele>
        <time>2016-09-04T09:48:48Z</time>
      </trkpt>
      <trkpt lat="41.906828" lon="0.894848">
        <ele>303.08</ele>
        <time>2016-09-04T09:48:51Z</time>
      </trkpt>
      <trkpt lat="41.906918" lon="0.895056">
        <ele>313.04</ele>
        <time>2016-09-04T09:48:52Z</time>
      </trkpt>
      <trkpt lat="41.906729" lon="0.895056">
        <ele>321.07</ele>
        <time>2016-09-04T09:48:54Z</time>
      </trkpt>
      <trkpt lat="41.907191" lon="0.895529">
        <ele>316.10</ele>
        <time>2016-09-04T09:48:58Z</time>
      </trkpt>
      <trkpt lat="41.906573" lon="0.895142">
        <ele>330.02</ele>
        <time>2016-09-04T09:49:03Z</time>
      </trkpt>
      <trkpt lat="41.905744" lon="0.895347">
        <ele>356.09</ele>
        <time>2016-09-04T09:49:08Z</time>
      </trkpt>
      <trkpt lat="41.905027" lon="0.895062">
        <ele>384.15</ele>
        <time>2016-09-04T09:49:13Z</time>
      </trkpt>
      <trkpt lat="41.905558" lon="0.893694">
        <ele>360.09</ele>
        <time>2016-09-04T09:49:21Z</time>
      </trkpt>
      <trkpt lat="41.905131" lon="0.892727">
        <ele>383.02</ele>
        <time>2016-09-04T09:49:27Z</time>
      </trkpt>
      <trkpt lat="41.904898" lon="0.892512">
        <ele>377.01</ele>
        <time>2016-09-04T09:49:29Z</time>
      </trkpt>
      <trkpt lat="41.904865" lon="0.892088">
        <ele>369.07</ele>
        <time>2016-09-04T09:49:31Z</time>
      </trkpt>
      <trkpt lat="41.904411" lon="0.891510">
        <ele>354.05</ele>
        <time>2016-09-04T09:49:35Z</time>
      </trkpt>
      <trkpt lat="41.903834" lon="0.891368">
        <ele>391.04</ele>
        <time>2016-09-04T09:49:39Z</time>
      </trkpt>
      <trkpt lat="41.903284" lon="0.891001">
        <ele>401.06</ele>
        <time>2016-09-04T09:49:43Z</time>
      </trkpt>
      <trkpt lat="41.902997" lon="0.890600">
        <ele>378.02</ele>
        <time>2016-09-04T09:49:46Z</time>
      </trkpt>
      <trkpt lat="41.901116" lon="0.889645">
        <ele>404.05</ele>
        <time>2016-09-04T09:49:59Z</time>
      </trkpt>
      <trkpt lat="41.900985" lon="0.889597">
        <ele>441.04</ele>
        <time>2016-09-04T09:50:00Z</time>
      </trkpt>
      <trkpt lat="41.900114" lon="0.888794">
        <ele>457.08</ele>
        <time>2016-09-04T09:50:07Z</time>
      </trkpt>
      <trkpt lat="41.899441" lon="0.888920">
        <ele>477.05</ele>
        <time>2016-09-04T09:50:11Z</time>
      </trkpt>
      <trkpt lat="41.898943" lon="0.888692">
        <ele>494.00</ele>
        <time>2016-09-04T09:50:15Z</time>
      </trkpt>
      <trkpt lat="41.898952" lon="0.888353">
        <ele>490.01</ele>
        <time>2016-09-04T09:50:17Z</time>
      </trkpt>
      <trkpt lat="41.898286" lon="0.888320">
        <ele>515.01</ele>
        <time>2016-09-04T09:50:21Z</time>
      </trkpt>
      <trkpt lat="41.898145" lon="0.887971">
        <ele>523.08</ele>
        <time>2016-09-04T09:50:23Z</time>
      </trkpt>
      <trkpt lat="41.897489" lon="0.887737">
        <ele>538.07</ele>
        <time>2016-09-04T09:50:28Z</time>
      </trkpt>
      <trkpt lat="41.897152" lon="0.887225">
        <ele>546.04</ele>
        <time>2016-09-04T09:50:31Z</time>
      </trkpt>
      <trkpt lat="41.896573" lon="0.887890">
        <ele>563.04</ele>
        <time>2016-09-04T09:50:36Z</time>
      </trkpt>
      <trkpt lat="41.896582" lon="0.888217">
        <ele>569.07</ele>
        <time>2016-09-04T09:50:38Z</time>
      </trkpt>
      <trkpt lat="41.896481" lon="0.888286">
        <ele>586.05</ele>
        <time>2016-09-04T09:50:39Z</time>
      </trkpt>
      <trkpt lat="41.896304" lon="0.888034">
        <ele>579.12</ele>
        <time>2016-09-04T09:50:40Z</time>
      </trkpt>
      <trkpt lat="41.895746" lon="0.888265">
        <ele>611.10</ele>
        <time>2016-09-04T09:50:44Z</time>
      </trkpt>
      <trkpt lat="41.895712" lon="0.888265">
        <ele>649.45</ele>
        <time>2016-09-04T09:50:45Z</time>
      </trkpt>
      <trkpt lat="41.895756" lon="0.888396">
        <ele>643.07</ele>
        <time>2016-09-04T09:50:46Z</time>
      </trkpt>
      <trkpt lat="41.895782" lon="0.888581">
        <ele>651.08</ele>
        <time>2016-09-04T09:50:47Z</time>
      </trkpt>
      <trkpt lat="41.895823" lon="0.888698">
        <ele>662.34</ele>
        <time>2016-09-04T09:50:48Z</time>
      </trkpt>
      <trkpt lat="41.895833" lon="0.888885">
        <ele>667.29</ele>
        <time>2016-09-04T09:50:49Z</time>
      </trkpt>
      <trkpt lat="41.895838" lon="0.889107">
        <ele>664.03</ele>
        <time>2016-09-04T09:50:50Z</time>
      </trkpt>
      <trkpt lat="41.895943" lon="0.889162">
        <ele>666.69</ele>
        <time>2016-09-04T09:50:51Z</time>
      </trkpt>
      <trkpt lat="41.895935" lon="0.889408">
        <ele>674.51</ele>
        <time>2016-09-04T09:50:52Z</time>
      </trkpt>
      <trkpt lat="41.895645" lon="0.889325">
        <ele>682.53</ele>
        <time>2016-09-04T09:50:54Z</time>
      </trkpt>
      <trkpt lat="41.895678" lon="0.889443">
        <ele>700.51</ele>
        <time>2016-09-04T09:50:55Z</time>
      </trkpt>
      <trkpt lat="41.895767" lon="0.889663">
        <ele>708.42</ele>
        <time>2016-09-04T09:50:56Z</time>
      </trkpt>
      <trkpt lat="41.895718" lon="0.889787">
        <ele>717.22</ele>
        <time>2016-09-04T09:50:57Z</time>
      </trkpt>
      <trkpt lat="41.895615" lon="0.889998">
        <ele>723.10</ele>
        <time>2016-09-04T09:50:58Z</time>
      </trkpt>
      <trkpt lat="41.895572" lon="0.890245">
        <ele>746.67</ele>
        <time>2016-09-04T09:50:59Z</time>
      </trkpt>
      <trkpt lat="41.895560" lon="0.890368">
        <ele>750.46</ele>
        <time>2016-09-04T09:51:00Z</time>
      </trkpt>
      <trkpt lat="41.895533" lon="0.890387">
        <ele>742.71</ele>
        <time>2016-09-04T09:51:01Z</time>
      </trkpt>
      <trkpt lat="41.895523" lon="0.890265">
        <ele>743.13</ele>
        <time>2016-09-04T09:51:02Z</time>
      </trkpt>
      <trkpt lat="41.895558" lon="0.890545">
        <ele>743.65</ele>
        <time>2016-09-04T09:51:03Z</time>
      </trkpt>
      <trkpt lat="41.895637" lon="0.890673">
        <ele>742.65</ele>
        <time>2016-09-04T09:51:04Z</time>
      </trkpt>
      <trkpt lat="41.895623" lon="0.890803">
        <ele>743.23</ele>
        <time>2016-09-04T09:51:05Z</time>
      </trkpt>
      <trkpt lat="41.895537" lon="0.891042">
        <ele>742.76</ele>
        <time>2016-09-04T09:51:06Z</time>
      </trkpt>
      <trkpt lat="41.895495" lon="0.891210">
        <ele>733.85</ele>
        <time>2016-09-04T09:51:07Z</time>
      </trkpt>
      <trkpt lat="41.895403" lon="0.891275">
        <ele>736.30</ele>
        <time>2016-09-04T09:51:08Z</time>
      </trkpt>
      <trkpt lat="41.895238" lon="0.891388">
        <ele>729.81</ele>
        <time>2016-09-04T09:51:09Z</time>
      </trkpt>
      <trkpt lat="41.895148" lon="0.891472">
        <ele>740.29</ele>
        <time>2016-09-04T09:51:10Z</time>
      </trkpt>
      <trkpt lat="41.894982" lon="0.891585">
        <ele>744.93</ele>
        <time>2016-09-04T09:51:11Z</time>
      </trkpt>
      <trkpt lat="41.894905" lon="0.891680">
        <ele>744.97</ele>
        <time>2016-09-04T09:51:12Z</time>
      </trkpt>
      <trkpt lat="41.894852" lon="0.891802">
        <ele>747.83</ele>
        <time>2016-09-04T09:51:13Z</time>
      </trkpt>
      <trkpt lat="41.894695" lon="0.891998">
        <ele>750.44</ele>
        <time>2016-09-04T09:51:14Z</time>
      </trkpt>
      <trkpt lat="41.894603" lon="0.892092">
        <ele>751.66</ele>
        <time>2016-09-04T09:51:15Z</time>
      </trkpt>
      <trkpt lat="41.894413" lon="0.892097">
        <ele>749.46</ele>
        <time>2016-09-04T09:51:16Z</time>
      </trkpt>
      <trkpt lat="41.894317" lon="0.892178">
        <ele>752.22</ele>
        <time>2016-09-04T09:51:17Z</time>
      </trkpt>
      <trkpt lat="41.894143" lon="0.892342">
        <ele>753.04</ele>
        <time>2016-09-04T09:51:18Z</time>
      </trkpt>
      <trkpt lat="41.894038" lon="0.892443">
        <ele>755.93</ele>
        <time>2016-09-04T09:51:19Z</time>
      </trkpt>
      <trkpt lat="41.893933" lon="0.892535">
        <ele>757.91</ele>
        <time>2016-09-04T09:51:20Z</time>
      </trkpt>
      <trkpt lat="41.893845" lon="0.892563">
        <ele>758.99</ele>
        <time>2016-09-04T09:51:21Z</time>
      </trkpt>
      <trkpt lat="41.893633" lon="0.892705">
        <ele>752.74</ele>
        <time>2016-09-04T09:51:22Z</time>
      </trkpt>
      <trkpt lat="41.893532" lon="0.892763">
        <ele>751.44</ele>
        <time>2016-09-04T09:51:23Z</time>
      </trkpt>
      <trkpt lat="41.893338" lon="0.892832">
        <ele>751.45</ele>
        <time>2016-09-04T09:51:24Z</time>
      </trkpt>
      <trkpt lat="41.893235" lon="0.892827">
        <ele>752.95</ele>
        <time>2016-09-04T09:51:25Z</time>
      </trkpt>
      <trkpt lat="41.893117" lon="0.892838">
        <ele>753.61</ele>
        <time>2016-09-04T09:51:26Z</time>
      </trkpt>
      <trkpt lat="41.892900" lon="0.892855">
        <ele>757.27</ele>
        <time>2016-09-04T09:51:27Z</time>
      </trkpt>
      <trkpt lat="41.892778" lon="0.892872">
        <ele>756.52</ele>
        <time>2016-09-04T09:51:28Z</time>
      </trkpt>
      <trkpt lat="41.892670" lon="0.892848">
        <ele>758.63</ele>
        <time>2016-09-04T09:51:29Z</time>
      </trkpt>
      <trkpt lat="41.892473" lon="0.892738">
        <ele>760.14</ele>
        <time>2016-09-04T09:51:30Z</time>
      </trkpt>
      <trkpt lat="41.892397" lon="0.892663">
        <ele>761.57</ele>
        <time>2016-09-04T09:51:31Z</time>
      </trkpt>
      <trkpt lat="41.892228" lon="0.892490">
        <ele>759.02</ele>
        <time>2016-09-04T09:51:32Z</time>
      </trkpt>
      <trkpt lat="41.892125" lon="0.892477">
        <ele>759.90</ele>
        <time>2016-09-04T09:51:33Z</time>
      </trkpt>
      <trkpt lat="41.891933" lon="0.892525">
        <ele>762.32</ele>
        <time>2016-09-04T09:51:34Z</time>
      </trkpt>
      <trkpt lat="41.891855" lon="0.892608">
        <ele>758.91</ele>
        <time>2016-09-04T09:51:35Z</time>
      </trkpt>
      <trkpt lat="41.891682" lon="0.892740">
        <ele>754.03</ele>
        <time>2016-09-04T09:51:36Z</time>
      </trkpt>
      <trkpt lat="41.891627" lon="0.892853">
        <ele>757.10</ele>
        <time>2016-09-04T09:51:37Z</time>
      </trkpt>
      <trkpt lat="41.891535" lon="0.893115">
        <ele>760.55</ele>
        <time>2016-09-04T09:51:38Z</time>
      </trkpt>
      <trkpt lat="41.891480" lon="0.893242">
        <ele>760.37</ele>
        <time>2016-09-04T09:51:39Z</time>
      </trkpt>
      <trkpt lat="41.891443" lon="0.893387">
        <ele>761.05</ele>
        <time>2016-09-04T09:51:40Z</time>
      </trkpt>
      <trkpt lat="41.891348" lon="0.893657">
        <ele>764.23</ele>
        <time>2016-09-04T09:51:41Z</time>
      </trkpt>
      <trkpt lat="41.891298" lon="0.893758">
        <ele>765.36</ele>
        <time>2016-09-04T09:51:42Z</time>
      </trkpt>
      <trkpt lat="41.891205" lon="0.893997">
        <ele>768.61</ele>
        <time>2016-09-04T09:51:43Z</time>
      </trkpt>
      <trkpt lat="41.891158" lon="0.894127">
        <ele>764.72</ele>
        <time>2016-09-04T09:51:44Z</time>
      </trkpt>
      <trkpt lat="41.891120" lon="0.894242">
        <ele>761.27</ele>
        <time>2016-09-04T09:51:45Z</time>
      </trkpt>
      <trkpt lat="41.891058" lon="0.894508">
        <ele>762.15</ele>
        <time>2016-09-04T09:51:46Z</time>
      </trkpt>
      <trkpt lat="41.891073" lon="0.894647">
        <ele>767.59</ele>
        <time>2016-09-04T09:51:47Z</time>
      </trkpt>
      <trkpt lat="41.891077" lon="0.894913">
        <ele>765.04</ele>
        <time>2016-09-04T09:51:48Z</time>
      </trkpt>
      <trkpt lat="41.891030" lon="0.895062">
        <ele>762.96</ele>
        <time>2016-09-04T09:51:49Z</time>
      </trkpt>
      <trkpt lat="41.890958" lon="0.895315">
        <ele>757.38</ele>
        <time>2016-09-04T09:51:50Z</time>
      </trkpt>
      <trkpt lat="41.890935" lon="0.895452">
        <ele>756.71</ele>
        <time>2016-09-04T09:51:51Z</time>
      </trkpt>
      <trkpt lat="41.890962" lon="0.895715">
        <ele>757.63</ele>
        <time>2016-09-04T09:51:52Z</time>
      </trkpt>
      <trkpt lat="41.890963" lon="0.895850">
        <ele>760.35</ele>
        <time>2016-09-04T09:51:53Z</time>
      </trkpt>
      <trkpt lat="41.890913" lon="0.896100">
        <ele>756.45</ele>
        <time>2016-09-04T09:51:54Z</time>
      </trkpt>
      <trkpt lat="41.890862" lon="0.896225">
        <ele>751.09</ele>
        <time>2016-09-04T09:51:55Z</time>
      </trkpt>
      <trkpt lat="41.890787" lon="0.896482">
        <ele>743.02</ele>
        <time>2016-09-04T09:51:56Z</time>
      </trkpt>
      <trkpt lat="41.890785" lon="0.896622">
        <ele>735.29</ele>
        <time>2016-09-04T09:51:57Z</time>
      </trkpt>
      <trkpt lat="41.890800" lon="0.896767">
        <ele>733.92</ele>
        <time>2016-09-04T09:51:58Z</time>
      </trkpt>
      <trkpt lat="41.890813" lon="0.897045">
        <ele>732.01</ele>
        <time>2016-09-04T09:51:59Z</time>
      </trkpt>
      <trkpt lat="41.890857" lon="0.897152">
        <ele>728.61</ele>
        <time>2016-09-04T09:52:00Z</time>
      </trkpt>
      <trkpt lat="41.890637" lon="0.897163">
        <ele>755.84</ele>
        <time>2016-09-04T09:52:01Z</time>
      </trkpt>
      <trkpt lat="41.890542" lon="0.897143">
        <ele>754.45</ele>
        <time>2016-09-04T09:52:02Z</time>
      </trkpt>
      <trkpt lat="41.890338" lon="0.897173">
        <ele>751.24</ele>
        <time>2016-09-04T09:52:03Z</time>
      </trkpt>
      <trkpt lat="41.890252" lon="0.897242">
        <ele>748.59</ele>
        <time>2016-09-04T09:52:04Z</time>
      </trkpt>
      <trkpt lat="41.890108" lon="0.897417">
        <ele>747.83</ele>
        <time>2016-09-04T09:52:05Z</time>
      </trkpt>
      <trkpt lat="41.890015" lon="0.897463">
        <ele>744.77</ele>
        <time>2016-09-04T09:52:06Z</time>
      </trkpt>
      <trkpt lat="41.889798" lon="0.897473">
        <ele>742.51</ele>
        <time>2016-09-04T09:52:07Z</time>
      </trkpt>
      <trkpt lat="41.889680" lon="0.897487">
        <ele>741.11</ele>
        <time>2016-09-04T09:52:08Z</time>
      </trkpt>
      <trkpt lat="41.889577" lon="0.897498">
        <ele>740.42</ele>
        <time>2016-09-04T09:52:09Z</time>
      </trkpt>
      <trkpt lat="41.889352" lon="0.897520">
        <ele>741.26</ele>
        <time>2016-09-04T09:52:10Z</time>
      </trkpt>
      <trkpt lat="41.889238" lon="0.897552">
        <ele>742.85</ele>
        <time>2016-09-04T09:52:11Z</time>
      </trkpt>
      <trkpt lat="41.889122" lon="0.897578">
        <ele>744.95</ele>
        <time>2016-09-04T09:52:12Z</time>
      </trkpt>
      <trkpt lat="41.888900" lon="0.897580">
        <ele>747.15</ele>
        <time>2016-09-04T09:52:13Z</time>
      </trkpt>
      <trkpt lat="41.888802" lon="0.897590">
        <ele>747.18</ele>
        <time>2016-09-04T09:52:14Z</time>
      </trkpt>
      <trkpt lat="41.888693" lon="0.897602">
        <ele>749.42</ele>
        <time>2016-09-04T09:52:15Z</time>
      </trkpt>
      <trkpt lat="41.888482" lon="0.897627">
        <ele>748.51</ele>
        <time>2016-09-04T09:52:16Z</time>
      </trkpt>
      <trkpt lat="41.888378" lon="0.897635">
        <ele>748.31</ele>
        <time>2016-09-04T09:52:17Z</time>
      </trkpt>
      <trkpt lat="41.888182" lon="0.897667">
        <ele>749.43</ele>
        <time>2016-09-04T09:52:18Z</time>
      </trkpt>
      <trkpt lat="41.888090" lon="0.897693">
        <ele>749.23</ele>
        <time>2016-09-04T09:52:19Z</time>
      </trkpt>
      <trkpt lat="41.887882" lon="0.897747">
        <ele>745.04</ele>
        <time>2016-09-04T09:52:20Z</time>
      </trkpt>
      <trkpt lat="41.887778" lon="0.897757">
        <ele>744.43</ele>
        <time>2016-09-04T09:52:21Z</time>
      </trkpt>
      <trkpt lat="41.887592" lon="0.897763">
        <ele>745.09</ele>
        <time>2016-09-04T09:52:22Z</time>
      </trkpt>
      <trkpt lat="41.887500" lon="0.897775">
        <ele>743.87</ele>
        <time>2016-09-04T09:52:23Z</time>
      </trkpt>
      <trkpt lat="41.887302" lon="0.897753">
        <ele>744.42</ele>
        <time>2016-09-04T09:52:24Z</time>
      </trkpt>
      <trkpt lat="41.887215" lon="0.897818">
        <ele>742.21</ele>
        <time>2016-09-04T09:52:25Z</time>
      </trkpt>
      <trkpt lat="41.887043" lon="0.897785">
        <ele>732.28</ele>
        <time>2016-09-04T09:52:26Z</time>
      </trkpt>
      <trkpt lat="41.886912" lon="0.897702">
        <ele>681.59</ele>
        <time>2016-09-04T09:52:27Z</time>
      </trkpt>
      <trkpt lat="41.886812" lon="0.897713">
        <ele>680.65</ele>
        <time>2016-09-04T09:52:28Z</time>
      </trkpt>
      <trkpt lat="41.886622" lon="0.897785">
        <ele>660.89</ele>
        <time>2016-09-04T09:52:29Z</time>
      </trkpt>
      <trkpt lat="41.886538" lon="0.897733">
        <ele>654.13</ele>
        <time>2016-09-04T09:52:30Z</time>
      </trkpt>
      <trkpt lat="41.886383" lon="0.897852">
        <ele>682.68</ele>
        <time>2016-09-04T09:52:31Z</time>
      </trkpt>
      <trkpt lat="41.886278" lon="0.897742">
        <ele>645.51</ele>
        <time>2016-09-04T09:52:32Z</time>
      </trkpt>
      <trkpt lat="41.886245" lon="0.897620">
        <ele>624.18</ele>
        <time>2016-09-04T09:52:33Z</time>
      </trkpt>
      <trkpt lat="41.886195" lon="0.897373">
        <ele>620.46</ele>
        <time>2016-09-04T09:52:34Z</time>
      </trkpt>
      <trkpt lat="41.886190" lon="0.897250">
        <ele>591.12</ele>
        <time>2016-09-04T09:52:35Z</time>
      </trkpt>
      <trkpt lat="41.886192" lon="0.896988">
        <ele>595.63</ele>
        <time>2016-09-04T09:52:36Z</time>
      </trkpt>
      <trkpt lat="41.886117" lon="0.896913">
        <ele>588.17</ele>
        <time>2016-09-04T09:52:37Z</time>
      </trkpt>
      <trkpt lat="41.885948" lon="0.896790">
        <ele>598.84</ele>
        <time>2016-09-04T09:52:38Z</time>
      </trkpt>
      <trkpt lat="41.885878" lon="0.896712">
        <ele>590.76</ele>
        <time>2016-09-04T09:52:39Z</time>
      </trkpt>
      <trkpt lat="41.885723" lon="0.896578">
        <ele>565.81</ele>
        <time>2016-09-04T09:52:40Z</time>
      </trkpt>
      <trkpt lat="41.885533" lon="0.896597">
        <ele>553.62</ele>
        <time>2016-09-04T09:52:41Z</time>
      </trkpt>
      <trkpt lat="41.885443" lon="0.896608">
        <ele>540.45</ele>
        <time>2016-09-04T09:52:42Z</time>
      </trkpt>
      <trkpt lat="41.885240" lon="0.896673">
        <ele>538.72</ele>
        <time>2016-09-04T09:52:43Z</time>
      </trkpt>
      <trkpt lat="41.885130" lon="0.896638">
        <ele>542.21</ele>
        <time>2016-09-04T09:52:44Z</time>
      </trkpt>
      <trkpt lat="41.884953" lon="0.896560">
        <ele>542.91</ele>
        <time>2016-09-04T09:52:45Z</time>
      </trkpt>
      <trkpt lat="41.884880" lon="0.896443">
        <ele>542.38</ele>
        <time>2016-09-04T09:52:46Z</time>
      </trkpt>
      <trkpt lat="41.884772" lon="0.896238">
        <ele>540.82</ele>
        <time>2016-09-04T09:52:47Z</time>
      </trkpt>
      <trkpt lat="41.884752" lon="0.896093">
        <ele>541.21</ele>
        <time>2016-09-04T09:52:48Z</time>
      </trkpt>
      <trkpt lat="41.884742" lon="0.895950">
        <ele>541.96</ele>
        <time>2016-09-04T09:52:49Z</time>
      </trkpt>
      <trkpt lat="41.884658" lon="0.895675">
        <ele>543.95</ele>
        <time>2016-09-04T09:52:50Z</time>
      </trkpt>
      <trkpt lat="41.884585" lon="0.895567">
        <ele>545.02</ele>
        <time>2016-09-04T09:52:51Z</time>
      </trkpt>
      <trkpt lat="41.884502" lon="0.895460">
        <ele>547.25</ele>
        <time>2016-09-04T09:52:52Z</time>
      </trkpt>
      <trkpt lat="41.884357" lon="0.895275">
        <ele>549.95</ele>
        <time>2016-09-04T09:52:53Z</time>
      </trkpt>
      <trkpt lat="41.884255" lon="0.895072">
        <ele>553.74</ele>
        <time>2016-09-04T09:52:54Z</time>
      </trkpt>
      <trkpt lat="41.884180" lon="0.895155">
        <ele>549.92</ele>
        <time>2016-09-04T09:52:55Z</time>
      </trkpt>
      <trkpt lat="41.884180" lon="0.895290">
        <ele>549.52</ele>
        <time>2016-09-04T09:52:56Z</time>
      </trkpt>
      <trkpt lat="41.884178" lon="0.895522">
        <ele>545.17</ele>
        <time>2016-09-04T09:52:57Z</time>
      </trkpt>
      <trkpt lat="41.884012" lon="0.895572">
        <ele>541.14</ele>
        <time>2016-09-04T09:52:58Z</time>
      </trkpt>
      <trkpt lat="41.883930" lon="0.895517">
        <ele>540.99</ele>
        <time>2016-09-04T09:52:59Z</time>
      </trkpt>
      <trkpt lat="41.883742" lon="0.895402">
        <ele>537.34</ele>
        <time>2016-09-04T09:53:00Z</time>
      </trkpt>
      <trkpt lat="41.883623" lon="0.895385">
        <ele>536.24</ele>
        <time>2016-09-04T09:53:01Z</time>
      </trkpt>
      <trkpt lat="41.883523" lon="0.895350">
        <ele>535.87</ele>
        <time>2016-09-04T09:53:02Z</time>
      </trkpt>
      <trkpt lat="41.883387" lon="0.895185">
        <ele>536.01</ele>
        <time>2016-09-04T09:53:03Z</time>
      </trkpt>
      <trkpt lat="41.883365" lon="0.895063">
        <ele>534.91</ele>
        <time>2016-09-04T09:53:04Z</time>
      </trkpt>
      <trkpt lat="41.883342" lon="0.894812">
        <ele>535.93</ele>
        <time>2016-09-04T09:53:05Z</time>
      </trkpt>
      <trkpt lat="41.883152" lon="0.894880">
        <ele>532.18</ele>
        <time>2016-09-04T09:53:06Z</time>
      </trkpt>
      <trkpt lat="41.883080" lon="0.894988">
        <ele>530.50</ele>
        <time>2016-09-04T09:53:07Z</time>
      </trkpt>
      <trkpt lat="41.883042" lon="0.895118">
        <ele>530.42</ele>
        <time>2016-09-04T09:53:08Z</time>
      </trkpt>
      <trkpt lat="41.882938" lon="0.895328">
        <ele>520.47</ele>
        <time>2016-09-04T09:53:09Z</time>
      </trkpt>
      <trkpt lat="41.882790" lon="0.895372">
        <ele>517.43</ele>
        <time>2016-09-04T09:53:10Z</time>
      </trkpt>
      <trkpt lat="41.882812" lon="0.895497">
        <ele>516.89</ele>
        <time>2016-09-04T09:53:11Z</time>
      </trkpt>
      <trkpt lat="41.882785" lon="0.895585">
        <ele>512.91</ele>
        <time>2016-09-04T09:53:12Z</time>
      </trkpt>
      <trkpt lat="41.882678" lon="0.895540">
        <ele>511.58</ele>
        <time>2016-09-04T09:53:13Z</time>
      </trkpt>
      <trkpt lat="41.882517" lon="0.895368">
        <ele>510.27</ele>
        <time>2016-09-04T09:53:14Z</time>
      </trkpt>
      <trkpt lat="41.882423" lon="0.895312">
        <ele>508.46</ele>
        <time>2016-09-04T09:53:15Z</time>
      </trkpt>
      <trkpt lat="41.882322" lon="0.895300">
        <ele>506.65</ele>
        <time>2016-09-04T09:53:16Z</time>
      </trkpt>
      <trkpt lat="41.882178" lon="0.895067">
        <ele>505.12</ele>
        <time>2016-09-04T09:53:17Z</time>
      </trkpt>
      <trkpt lat="41.882113" lon="0.894972">
        <ele>504.00</ele>
        <time>2016-09-04T09:53:18Z</time>
      </trkpt>
      <trkpt lat="41.882098" lon="0.894733">
        <ele>503.97</ele>
        <time>2016-09-04T09:53:19Z</time>
      </trkpt>
      <trkpt lat="41.882100" lon="0.894592">
        <ele>504.61</ele>
        <time>2016-09-04T09:53:20Z</time>
      </trkpt>
      <trkpt lat="41.882177" lon="0.894337">
        <ele>505.07</ele>
        <time>2016-09-04T09:53:21Z</time>
      </trkpt>
      <trkpt lat="41.882195" lon="0.894185">
        <ele>506.63</ele>
        <time>2016-09-04T09:53:22Z</time>
      </trkpt>
      <trkpt lat="41.882197" lon="0.893907">
        <ele>507.97</ele>
        <time>2016-09-04T09:53:23Z</time>
      </trkpt>
      <trkpt lat="41.882198" lon="0.893753">
        <ele>508.23</ele>
        <time>2016-09-04T09:53:24Z</time>
      </trkpt>
      <trkpt lat="41.882218" lon="0.893623">
        <ele>507.95</ele>
        <time>2016-09-04T09:53:25Z</time>
      </trkpt>
      <trkpt lat="41.882185" lon="0.893355">
        <ele>506.34</ele>
        <time>2016-09-04T09:53:26Z</time>
      </trkpt>
      <trkpt lat="41.882173" lon="0.893230">
        <ele>504.69</ele>
        <time>2016-09-04T09:53:27Z</time>
      </trkpt>
      <trkpt lat="41.882138" lon="0.892960">
        <ele>500.43</ele>
        <time>2016-09-04T09:53:28Z</time>
      </trkpt>
      <trkpt lat="41.882145" lon="0.892817">
        <ele>499.31</ele>
        <time>2016-09-04T09:53:29Z</time>
      </trkpt>
      <trkpt lat="41.882152" lon="0.892537">
        <ele>496.24</ele>
        <time>2016-09-04T09:53:30Z</time>
      </trkpt>
      <trkpt lat="41.882172" lon="0.892408">
        <ele>494.19</ele>
        <time>2016-09-04T09:53:31Z</time>
      </trkpt>
      <trkpt lat="41.882137" lon="0.892167">
        <ele>488.87</ele>
        <time>2016-09-04T09:53:32Z</time>
      </trkpt>
      <trkpt lat="41.882077" lon="0.892067">
        <ele>488.87</ele>
        <time>2016-09-04T09:53:33Z</time>
      </trkpt>
      <trkpt lat="41.881880" lon="0.891958">
        <ele>490.15</ele>
        <time>2016-09-04T09:53:34Z</time>
      </trkpt>
      <trkpt lat="41.881857" lon="0.891818">
        <ele>488.69</ele>
        <time>2016-09-04T09:53:35Z</time>
      </trkpt>
      <trkpt lat="41.881822" lon="0.891543">
        <ele>486.13</ele>
        <time>2016-09-04T09:53:36Z</time>
      </trkpt>
      <trkpt lat="41.881770" lon="0.891442">
        <ele>486.01</ele>
        <time>2016-09-04T09:53:37Z</time>
      </trkpt>
      <trkpt lat="41.881627" lon="0.891273">
        <ele>486.27</ele>
        <time>2016-09-04T09:53:38Z</time>
      </trkpt>
      <trkpt lat="41.881635" lon="0.891132">
        <ele>486.33</ele>
        <time>2016-09-04T09:53:39Z</time>
      </trkpt>
      <trkpt lat="41.881602" lon="0.890845">
        <ele>485.73</ele>
        <time>2016-09-04T09:53:40Z</time>
      </trkpt>
      <trkpt lat="41.881592" lon="0.890695">
        <ele>485.66</ele>
        <time>2016-09-04T09:53:41Z</time>
      </trkpt>
      <trkpt lat="41.881597" lon="0.890560">
        <ele>484.36</ele>
        <time>2016-09-04T09:53:42Z</time>
      </trkpt>
      <trkpt lat="41.881605" lon="0.890273">
        <ele>484.22</ele>
        <time>2016-09-04T09:53:43Z</time>
      </trkpt>
      <trkpt lat="41.881627" lon="0.890138">
        <ele>483.00</ele>
        <time>2016-09-04T09:53:44Z</time>
      </trkpt>
      <trkpt lat="41.881678" lon="0.889885">
        <ele>481.01</ele>
        <time>2016-09-04T09:53:45Z</time>
      </trkpt>
      <trkpt lat="41.881645" lon="0.889752">
        <ele>479.21</ele>
        <time>2016-09-04T09:53:46Z</time>
      </trkpt>
      <trkpt lat="41.881682" lon="0.889480">
        <ele>477.26</ele>
        <time>2016-09-04T09:53:47Z</time>
      </trkpt>
      <trkpt lat="41.881687" lon="0.889353">
        <ele>475.67</ele>
        <time>2016-09-04T09:53:48Z</time>
      </trkpt>
      <trkpt lat="41.881752" lon="0.889113">
        <ele>473.09</ele>
        <time>2016-09-04T09:53:49Z</time>
      </trkpt>
      <trkpt lat="41.881818" lon="0.888990">
        <ele>471.87</ele>
        <time>2016-09-04T09:53:50Z</time>
      </trkpt>
      <trkpt lat="41.881912" lon="0.888780">
        <ele>470.66</ele>
        <time>2016-09-04T09:53:51Z</time>
      </trkpt>
      <trkpt lat="41.881905" lon="0.888645">
        <ele>470.50</ele>
        <time>2016-09-04T09:53:52Z</time>
      </trkpt>
      <trkpt lat="41.881852" lon="0.888492">
        <ele>471.42</ele>
        <time>2016-09-04T09:53:53Z</time>
      </trkpt>
      <trkpt lat="41.881708" lon="0.888327">
        <ele>467.24</ele>
        <time>2016-09-04T09:53:54Z</time>
      </trkpt>
      <trkpt lat="41.881615" lon="0.888240">
        <ele>466.23</ele>
        <time>2016-09-04T09:53:55Z</time>
      </trkpt>
      <trkpt lat="41.881513" lon="0.887997">
        <ele>462.88</ele>
        <time>2016-09-04T09:53:56Z</time>
      </trkpt>
      <trkpt lat="41.881522" lon="0.887867">
        <ele>460.37</ele>
        <time>2016-09-04T09:53:57Z</time>
      </trkpt>
      <trkpt lat="41.881453" lon="0.887648">
        <ele>454.91</ele>
        <time>2016-09-04T09:53:58Z</time>
      </trkpt>
      <trkpt lat="41.881398" lon="0.887528">
        <ele>452.52</ele>
        <time>2016-09-04T09:53:59Z</time>
      </trkpt>
      <trkpt lat="41.881443" lon="0.887282">
        <ele>449.06</ele>
        <time>2016-09-04T09:54:00Z</time>
      </trkpt>
      <trkpt lat="41.881473" lon="0.887158">
        <ele>449.22</ele>
        <time>2016-09-04T09:54:01Z</time>
      </trkpt>
      <trkpt lat="41.881443" lon="0.886855">
        <ele>447.59</ele>
        <time>2016-09-04T09:54:02Z</time>
      </trkpt>
      <trkpt lat="41.881397" lon="0.886728">
        <ele>446.04</ele>
        <time>2016-09-04T09:54:03Z</time>
      </trkpt>
      <trkpt lat="41.881322" lon="0.886632">
        <ele>445.63</ele>
        <time>2016-09-04T09:54:04Z</time>
      </trkpt>
      <trkpt lat="41.881387" lon="0.886407">
        <ele>446.04</ele>
        <time>2016-09-04T09:54:05Z</time>
      </trkpt>
      <trkpt lat="41.881470" lon="0.886188">
        <ele>445.77</ele>
        <time>2016-09-04T09:54:06Z</time>
      </trkpt>
      <trkpt lat="41.881523" lon="0.886053">
        <ele>444.63</ele>
        <time>2016-09-04T09:54:07Z</time>
      </trkpt>
      <trkpt lat="41.881622" lon="0.885815">
        <ele>444.04</ele>
        <time>2016-09-04T09:54:08Z</time>
      </trkpt>
      <trkpt lat="41.881688" lon="0.885702">
        <ele>443.73</ele>
        <time>2016-09-04T09:54:09Z</time>
      </trkpt>
      <trkpt lat="41.881722" lon="0.885570">
        <ele>442.31</ele>
        <time>2016-09-04T09:54:10Z</time>
      </trkpt>
      <trkpt lat="41.881617" lon="0.885335">
        <ele>437.62</ele>
        <time>2016-09-04T09:54:11Z</time>
      </trkpt>
      <trkpt lat="41.881573" lon="0.885228">
        <ele>435.38</ele>
        <time>2016-09-04T09:54:12Z</time>
      </trkpt>
      <trkpt lat="41.881482" lon="0.885003">
        <ele>427.85</ele>
        <time>2016-09-04T09:54:13Z</time>
      </trkpt>
      <trkpt lat="41.881489" lon="0.884963">
        <ele>298.06</ele>
        <time>2017-01-18T11:34:49Z</time>
      </trkpt>
      <trkpt lat="41.881540" lon="0.884770">
        <ele>300.06</ele>
        <time>2017-01-18T11:35:09Z</time>
      </trkpt>
      <trkpt lat="41.881586" lon="0.884987">
        <ele>307.03</ele>
        <time>2017-01-18T11:35:29Z</time>
      </trkpt>
      <trkpt lat="41.881658" lon="0.884905">
        <ele>307.10</ele>
        <time>2017-01-18T11:35:49Z</time>
      </trkpt>
      <trkpt lat="41.881648" lon="0.885050">
        <ele>307.02</ele>
        <time>2017-01-18T11:36:09Z</time>
      </trkpt>
      <trkpt lat="41.881706" lon="0.885236">
        <ele>313.05</ele>
        <time>2017-01-18T11:36:29Z</time>
      </trkpt>
      <trkpt lat="41.881747" lon="0.885099">
        <ele>307.01</ele>
        <time>2017-01-18T11:36:49Z</time>
      </trkpt>
      <trkpt lat="41.881839" lon="0.885118">
        <ele>317.01</ele>
        <time>2017-01-18T11:37:09Z</time>
      </trkpt>
      <trkpt lat="41.881887" lon="0.885427">
        <ele>331.02</ele>
        <time>2017-01-18T11:37:29Z</time>
      </trkpt>
      <trkpt lat="41.881955" lon="0.885191">
        <ele>324.04</ele>
        <time>2017-01-18T11:37:49Z</time>
      </trkpt>
      <trkpt lat="41.882073" lon="0.885091">
        <ele>317.02</ele>
        <time>2017-01-18T11:38:09Z</time>
      </trkpt>
      <trkpt lat="41.882235" lon="0.885158">
        <ele>335.09</ele>
        <time>2017-01-18T11:38:29Z</time>
      </trkpt>
      <trkpt lat="41.882137" lon="0.885617">
        <ele>342.07</ele>
        <time>2017-01-18T11:38:49Z</time>
      </trkpt>
      <trkpt lat="41.882347" lon="0.885574">
        <ele>342.07</ele>
        <time>2017-01-18T11:39:09Z</time>
      </trkpt>
      <trkpt lat="41.881967" lon="0.886551">
        <ele>351.06</ele>
        <time>2017-01-18T11:39:29Z</time>
      </trkpt>
      <trkpt lat="41.882011" lon="0.886856">
        <ele>356.08</ele>
        <time>2017-01-18T11:39:49Z</time>
      </trkpt>
      <trkpt lat="41.882167" lon="0.886486">
        <ele>359.08</ele>
        <time>2017-01-18T11:40:09Z</time>
      </trkpt>
      <trkpt lat="41.882678" lon="0.886127">
        <ele>373.04</ele>
        <time>2017-01-18T11:40:29Z</time>
      </trkpt>
      <trkpt lat="41.882454" lon="0.886803">
        <ele>374.01</ele>
        <time>2017-01-18T11:40:49Z</time>
      </trkpt>
      <trkpt lat="41.882858" lon="0.886363">
        <ele>377.02</ele>
        <time>2017-01-18T11:41:09Z</time>
      </trkpt>
      <trkpt lat="41.882698" lon="0.887141">
        <ele>392.09</ele>
        <time>2017-01-18T11:41:29Z</time>
      </trkpt>
      <trkpt lat="41.883453" lon="0.886137">
        <ele>380.03</ele>
        <time>2017-01-18T11:41:49Z</time>
      </trkpt>
      <trkpt lat="41.883569" lon="0.886293">
        <ele>392.09</ele>
        <time>2017-01-18T11:42:09Z</time>
      </trkpt>
      <trkpt lat="41.883593" lon="0.886256">
        <ele>392.03</ele>
        <time>2017-01-18T11:42:29Z</time>
      </trkpt>
      <trkpt lat="41.883764" lon="0.886518">
        <ele>399.03</ele>
        <time>2017-01-18T11:42:49Z</time>
      </trkpt>
      <trkpt lat="41.883804" lon="0.886250">
        <ele>399.08</ele>
        <time>2017-01-18T11:43:09Z</time>
      </trkpt>
      <trkpt lat="41.883884" lon="0.886170">
        <ele>391.03</ele>
        <time>2017-01-18T11:43:29Z</time>
      </trkpt>
      <trkpt lat="41.884208" lon="0.886529">
        <ele>405.10</ele>
        <time>2017-01-18T11:43:49Z</time>
      </trkpt>
      <trkpt lat="41.884192" lon="0.886277">
        <ele>402.07</ele>
        <time>2017-01-18T11:44:09Z</time>
      </trkpt>
      <trkpt lat="41.884379" lon="0.886524">
        <ele>399.06</ele>
        <time>2017-01-18T11:44:29Z</time>
      </trkpt>
      <trkpt lat="41.884391" lon="0.886272">
        <ele>399.01</ele>
        <time>2017-01-18T11:44:49Z</time>
      </trkpt>
      <trkpt lat="41.884755" lon="0.886706">
        <ele>394.02</ele>
        <time>2017-01-18T11:45:09Z</time>
      </trkpt>
      <trkpt lat="41.884943" lon="0.886808">
        <ele>390.03</ele>
        <time>2017-01-18T11:45:29Z</time>
      </trkpt>
      <trkpt lat="41.885146" lon="0.886567">
        <ele>382.05</ele>
        <time>2017-01-18T11:45:49Z</time>
      </trkpt>
      <trkpt lat="41.885114" lon="0.886835">
        <ele>390.05</ele>
        <time>2017-01-18T11:46:09Z</time>
      </trkpt>
      <trkpt lat="41.885206" lon="0.886776">
        <ele>382.03</ele>
        <time>2017-01-18T11:46:29Z</time>
      </trkpt>
      <trkpt lat="41.885186" lon="0.886958">
        <ele>388.03</ele>
        <time>2017-01-18T11:46:49Z</time>
      </trkpt>
      <trkpt lat="41.885284" lon="0.886993">
        <ele>388.06</ele>
        <time>2017-01-18T11:47:09Z</time>
      </trkpt>
      <trkpt lat="41.885412" lon="0.886966">
        <ele>388.09</ele>
        <time>2017-01-18T11:47:29Z</time>
      </trkpt>
      <trkpt lat="41.885699" lon="0.887116">
        <ele>400.07</ele>
        <time>2017-01-18T11:47:49Z</time>
      </trkpt>
      <trkpt lat="41.885729" lon="0.887060">
        <ele>394.06</ele>
        <time>2017-01-18T11:48:09Z</time>
      </trkpt>
      <trkpt lat="41.885829" lon="0.886996">
        <ele>394.06</ele>
        <time>2017-01-18T11:48:29Z</time>
      </trkpt>
      <trkpt lat="41.885957" lon="0.886768">
        <ele>387.01</ele>
        <time>2017-01-18T11:48:49Z</time>
      </trkpt>
      <trkpt lat="41.885957" lon="0.886899">
        <ele>394.01</ele>
        <time>2017-01-18T11:49:09Z</time>
      </trkpt>
      <trkpt lat="41.885979" lon="0.886956">
        <ele>401.05</ele>
        <time>2017-01-18T11:49:29Z</time>
      </trkpt>
      <trkpt lat="41.886231" lon="0.886618">
        <ele>395.05</ele>
        <time>2017-01-18T11:49:49Z</time>
      </trkpt>
      <trkpt lat="41.886207" lon="0.886835">
        <ele>401.09</ele>
        <time>2017-01-18T11:50:09Z</time>
      </trkpt>
      <trkpt lat="41.886219" lon="0.887009">
        <ele>401.03</ele>
        <time>2017-01-18T11:50:29Z</time>
      </trkpt>
      <trkpt lat="41.886276" lon="0.887173">
        <ele>415.05</ele>
        <time>2017-01-18T11:50:49Z</time>
      </trkpt>
      <trkpt lat="41.886320" lon="0.886921">
        <ele>410.08</ele>
        <time>2017-01-18T11:51:09Z</time>
      </trkpt>
      <trkpt lat="41.886414" lon="0.887119">
        <ele>415.10</ele>
        <time>2017-01-18T11:51:29Z</time>
      </trkpt>
      <trkpt lat="41.886458" lon="0.886956">
        <ele>410.10</ele>
        <time>2017-01-18T11:51:49Z</time>
      </trkpt>
      <trkpt lat="41.886520" lon="0.886891">
        <ele>410.05</ele>
        <time>2017-01-18T11:52:09Z</time>
      </trkpt>
      <trkpt lat="41.886542" lon="0.887119">
        <ele>426.01</ele>
        <time>2017-01-18T11:52:29Z</time>
      </trkpt>
      <trkpt lat="41.886578" lon="0.886996">
        <ele>420.01</ele>
        <time>2017-01-18T11:52:49Z</time>
      </trkpt>
      <trkpt lat="41.886616" lon="0.887119">
        <ele>426.02</ele>
        <time>2017-01-18T11:53:09Z</time>
      </trkpt>
      <trkpt lat="41.886660" lon="0.886931">
        <ele>420.06</ele>
        <time>2017-01-18T11:53:29Z</time>
      </trkpt>
      <trkpt lat="41.886716" lon="0.887135">
        <ele>426.05</ele>
        <time>2017-01-18T11:53:49Z</time>
      </trkpt>
      <trkpt lat="41.886776" lon="0.886985">
        <ele>420.04</ele>
        <time>2017-01-18T11:54:09Z</time>
      </trkpt>
      <trkpt lat="41.886907" lon="0.886931">
        <ele>431.02</ele>
        <time>2017-01-18T11:54:29Z</time>
      </trkpt>
      <trkpt lat="41.887275" lon="0.886760">
        <ele>435.07</ele>
        <time>2017-01-18T11:54:49Z</time>
      </trkpt>
      <trkpt lat="41.887582" lon="0.886540">
        <ele>444.06</ele>
        <time>2017-01-18T11:55:09Z</time>
      </trkpt>
      <trkpt lat="41.887475" lon="0.886792">
        <ele>444.08</ele>
        <time>2017-01-18T11:55:29Z</time>
      </trkpt>
      <trkpt lat="41.887355" lon="0.887087">
        <ele>449.03</ele>
        <time>2017-01-18T11:55:49Z</time>
      </trkpt>
      <trkpt lat="41.887179" lon="0.887446">
        <ele>455.07</ele>
        <time>2017-01-18T11:56:09Z</time>
      </trkpt>
      <trkpt lat="41.887059" lon="0.887629">
        <ele>444.01</ele>
        <time>2017-01-18T11:56:29Z</time>
      </trkpt>
      <trkpt lat="41.887167" lon="0.887731">
        <ele>461.01</ele>
        <time>2017-01-18T11:56:49Z</time>
      </trkpt>
      <trkpt lat="41.887347" lon="0.887473">
        <ele>455.01</ele>
        <time>2017-01-18T11:57:09Z</time>
      </trkpt>
      <trkpt lat="41.887666" lon="0.887205">
        <ele>466.05</ele>
        <time>2017-01-18T11:57:29Z</time>
      </trkpt>
      <trkpt lat="41.887998" lon="0.886856">
        <ele>463.03</ele>
        <time>2017-01-18T11:57:49Z</time>
      </trkpt>
      <trkpt lat="41.888437" lon="0.886905">
        <ele>467.09</ele>
        <time>2017-01-18T11:58:09Z</time>
      </trkpt>
      <trkpt lat="41.888645" lon="0.887114">
        <ele>480.03</ele>
        <time>2017-01-18T11:58:29Z</time>
      </trkpt>
      <trkpt lat="41.888908" lon="0.887259">
        <ele>480.10</ele>
        <time>2017-01-18T11:58:49Z</time>
      </trkpt>
      <trkpt lat="41.889344" lon="0.887200">
        <ele>476.06</ele>
        <time>2017-01-18T11:59:09Z</time>
      </trkpt>
      <trkpt lat="41.889579" lon="0.887607">
        <ele>488.04</ele>
        <time>2017-01-18T11:59:29Z</time>
      </trkpt>
      <trkpt lat="41.889831" lon="0.887908">
        <ele>499.07</ele>
        <time>2017-01-18T11:59:49Z</time>
      </trkpt>
      <trkpt lat="41.890118" lon="0.888047">
        <ele>509.07</ele>
        <time>2017-01-18T12:00:09Z</time>
      </trkpt>
      <trkpt lat="41.890625" lon="0.887967">
        <ele>513.04</ele>
        <time>2017-01-18T12:00:29Z</time>
      </trkpt>
      <trkpt lat="41.890993" lon="0.887763">
        <ele>514.01</ele>
        <time>2017-01-18T12:00:49Z</time>
      </trkpt>
      <trkpt lat="41.891484" lon="0.887758">
        <ele>521.01</ele>
        <time>2017-01-18T12:01:09Z</time>
      </trkpt>
      <trkpt lat="41.892103" lon="0.887548">
        <ele>524.00</ele>
        <time>2017-01-18T12:01:29Z</time>
      </trkpt>
      <trkpt lat="41.892394" lon="0.887650">
        <ele>537.05</ele>
        <time>2017-01-18T12:01:49Z</time>
      </trkpt>
      <trkpt lat="41.892586" lon="0.887640">
        <ele>537.06</ele>
        <time>2017-01-18T12:02:09Z</time>
      </trkpt>
      <trkpt lat="41.892782" lon="0.887693">
        <ele>539.01</ele>
        <time>2017-01-18T12:02:29Z</time>
      </trkpt>
      <trkpt lat="41.892914" lon="0.887602">
        <ele>528.09</ele>
        <time>2017-01-18T12:02:49Z</time>
      </trkpt>
      <trkpt lat="41.893153" lon="0.887634">
        <ele>532.01</ele>
        <time>2017-01-18T12:03:09Z</time>
      </trkpt>
      <trkpt lat="41.893628" lon="0.887371">
        <ele>539.02</ele>
        <time>2017-01-18T12:03:29Z</time>
      </trkpt>
      <trkpt lat="41.893848" lon="0.887479">
        <ele>543.05</ele>
        <time>2017-01-18T12:03:49Z</time>
      </trkpt>
      <trkpt lat="41.894048" lon="0.887484">
        <ele>547.08</ele>
        <time>2017-01-18T12:04:09Z</time>
      </trkpt>
      <trkpt lat="41.894199" lon="0.887307">
        <ele>539.02</ele>
        <time>2017-01-18T12:04:29Z</time>
      </trkpt>
      <trkpt lat="41.894327" lon="0.886985">
        <ele>536.01</ele>
        <time>2017-01-18T12:04:49Z</time>
      </trkpt>
      <trkpt lat="41.894527" lon="0.886894">
        <ele>536.01</ele>
        <time>2017-01-18T12:05:09Z</time>
      </trkpt>
      <trkpt lat="41.894790" lon="0.886953">
        <ele>542.02</ele>
        <time>2017-01-18T12:05:29Z</time>
      </trkpt>
      <trkpt lat="41.895030" lon="0.886829">
        <ele>547.04</ele>
        <time>2017-01-18T12:05:49Z</time>
      </trkpt>
      <trkpt lat="41.895301" lon="0.886347">
        <ele>533.07</ele>
        <time>2017-01-18T12:06:09Z</time>
      </trkpt>
      <trkpt lat="41.895861" lon="0.886170">
        <ele>529.08</ele>
        <time>2017-01-18T12:06:29Z</time>
      </trkpt>
      <trkpt lat="41.896388" lon="0.886454">
        <ele>543.05</ele>
        <time>2017-01-18T12:06:49Z</time>
      </trkpt>
      <trkpt lat="41.897154" lon="0.887208">
        <ele>546.07</ele>
        <time>2017-01-18T12:07:09Z</time>
      </trkpt>
      <trkpt lat="41.897206" lon="0.887315">
        <ele>546.04</ele>
        <time>2017-01-18T12:07:29Z</time>
      </trkpt>
      <trkpt lat="41.897304" lon="0.887538">
        <ele>545.04</ele>
        <time>2017-01-18T12:07:49Z</time>
      </trkpt>
      <trkpt lat="41.897402" lon="0.887650">
        <ele>538.02</ele>
        <time>2017-01-18T12:08:09Z</time>
      </trkpt>
      <trkpt lat="41.897510" lon="0.887741">
        <ele>538.07</ele>
        <time>2017-01-18T12:08:29Z</time>
      </trkpt>
      <trkpt lat="41.897631" lon="0.887803">
        <ele>538.01</ele>
        <time>2017-01-18T12:08:49Z</time>
      </trkpt>
      <trkpt lat="41.897749" lon="0.887862">
        <ele>530.00</ele>
        <time>2017-01-18T12:09:09Z</time>
      </trkpt>
      <trkpt lat="41.897927" lon="0.887935">
        <ele>523.02</ele>
        <time>2017-01-18T12:09:29Z</time>
      </trkpt>
      <trkpt lat="41.898154" lon="0.887945">
        <ele>523.01</ele>
        <time>2017-01-18T12:09:49Z</time>
      </trkpt>
      <trkpt lat="41.898152" lon="0.888087">
        <ele>523.02</ele>
        <time>2017-01-18T12:10:09Z</time>
      </trkpt>
      <trkpt lat="41.898272" lon="0.888101">
        <ele>512.07</ele>
        <time>2017-01-18T12:10:29Z</time>
      </trkpt>
      <trkpt lat="41.898280" lon="0.888310">
        <ele>515.01</ele>
        <time>2017-01-18T12:10:49Z</time>
      </trkpt>
      <trkpt lat="41.898396" lon="0.888310">
        <ele>515.03</ele>
        <time>2017-01-18T12:11:09Z</time>
      </trkpt>
      <trkpt lat="41.898580" lon="0.888321">
        <ele>503.08</ele>
        <time>2017-01-18T12:11:29Z</time>
      </trkpt>
      <trkpt lat="41.898755" lon="0.888315">
        <ele>490.04</ele>
        <time>2017-01-18T12:11:49Z</time>
      </trkpt>
      <trkpt lat="41.898855" lon="0.888380">
        <ele>490.05</ele>
        <time>2017-01-18T12:12:09Z</time>
      </trkpt>
      <trkpt lat="41.898975" lon="0.888305">
        <ele>490.05</ele>
        <time>2017-01-18T12:12:29Z</time>
      </trkpt>
      <trkpt lat="41.898971" lon="0.888428">
        <ele>490.01</ele>
        <time>2017-01-18T12:12:49Z</time>
      </trkpt>
      <trkpt lat="41.898915" lon="0.888557">
        <ele>494.02</ele>
        <time>2017-01-18T12:13:09Z</time>
      </trkpt>
      <trkpt lat="41.899123" lon="0.888653">
        <ele>481.10</ele>
        <time>2017-01-18T12:13:29Z</time>
      </trkpt>
      <trkpt lat="41.899203" lon="0.888761">
        <ele>488.02</ele>
        <time>2017-01-18T12:13:49Z</time>
      </trkpt>
      <trkpt lat="41.899298" lon="0.888825">
        <ele>488.09</ele>
        <time>2017-01-18T12:14:09Z</time>
      </trkpt>
      <trkpt lat="41.899380" lon="0.888900">
        <ele>477.09</ele>
        <time>2017-01-18T12:14:29Z</time>
      </trkpt>
      <trkpt lat="41.899470" lon="0.888900">
        <ele>477.06</ele>
        <time>2017-01-18T12:14:49Z</time>
      </trkpt>
      <trkpt lat="41.899714" lon="0.888830">
        <ele>467.04</ele>
        <time>2017-01-18T12:15:09Z</time>
      </trkpt>
      <trkpt lat="41.899925" lon="0.888750">
        <ele>439.08</ele>
        <time>2017-01-18T12:15:29Z</time>
      </trkpt>
      <trkpt lat="41.900241" lon="0.888825">
        <ele>439.02</ele>
        <time>2017-01-18T12:15:49Z</time>
      </trkpt>
      <trkpt lat="41.900436" lon="0.889072">
        <ele>438.08</ele>
        <time>2017-01-18T12:16:09Z</time>
      </trkpt>
      <trkpt lat="41.900600" lon="0.889254">
        <ele>438.05</ele>
        <time>2017-01-18T12:16:29Z</time>
      </trkpt>
      <trkpt lat="41.900792" lon="0.889437">
        <ele>437.01</ele>
        <time>2017-01-18T12:16:49Z</time>
      </trkpt>
      <trkpt lat="41.901067" lon="0.889624">
        <ele>441.02</ele>
        <time>2017-01-18T12:17:09Z</time>
      </trkpt>
      <trkpt lat="41.901363" lon="0.889785">
        <ele>426.07</ele>
        <time>2017-01-18T12:17:29Z</time>
      </trkpt>
      <trkpt lat="41.901662" lon="0.889866">
        <ele>430.09</ele>
        <time>2017-01-18T12:17:49Z</time>
      </trkpt>
      <trkpt lat="41.901770" lon="0.889925">
        <ele>430.02</ele>
        <time>2017-01-18T12:18:09Z</time>
      </trkpt>
      <trkpt lat="41.901922" lon="0.889957">
        <ele>409.02</ele>
        <time>2017-01-18T12:18:29Z</time>
      </trkpt>
      <trkpt lat="41.902069" lon="0.890005">
        <ele>409.09</ele>
        <time>2017-01-18T12:18:49Z</time>
      </trkpt>
      <trkpt lat="41.902014" lon="0.889775">
        <ele>382.03</ele>
        <time>2017-01-18T12:19:09Z</time>
      </trkpt>
      <trkpt lat="41.901966" lon="0.889646">
        <ele>382.04</ele>
        <time>2017-01-18T12:19:29Z</time>
      </trkpt>
      <trkpt lat="41.901826" lon="0.889576">
        <ele>349.07</ele>
        <time>2017-01-18T12:19:49Z</time>
      </trkpt>
      <trkpt lat="41.901694" lon="0.889506">
        <ele>370.01</ele>
        <time>2017-01-18T12:20:09Z</time>
      </trkpt>
      <trkpt lat="41.901526" lon="0.889576">
        <ele>393.03</ele>
        <time>2017-01-18T12:20:29Z</time>
      </trkpt>
      <trkpt lat="41.901335" lon="0.889421">
        <ele>393.01</ele>
        <time>2017-01-18T12:20:49Z</time>
      </trkpt>
      <trkpt lat="41.901251" lon="0.889319">
        <ele>393.01</ele>
        <time>2017-01-18T12:21:09Z</time>
      </trkpt>
      <trkpt lat="41.901315" lon="0.889233">
        <ele>359.06</ele>
        <time>2017-01-18T12:21:29Z</time>
      </trkpt>
      <trkpt lat="41.901431" lon="0.889206">
        <ele>359.06</ele>
        <time>2017-01-18T12:21:49Z</time>
      </trkpt>
      <trkpt lat="41.901554" lon="0.889238">
        <ele>338.06</ele>
        <time>2017-01-18T12:22:09Z</time>
      </trkpt>
      <trkpt lat="41.901638" lon="0.889297">
        <ele>338.04</ele>
        <time>2017-01-18T12:22:29Z</time>
      </trkpt>
      <trkpt lat="41.901786" lon="0.889383">
        <ele>370.04</ele>
        <time>2017-01-18T12:22:49Z</time>
      </trkpt>
      <trkpt lat="41.901930" lon="0.889394">
        <ele>349.05</ele>
        <time>2017-01-18T12:23:09Z</time>
      </trkpt>
      <trkpt lat="41.901850" lon="0.889297">
        <ele>321.01</ele>
        <time>2017-01-18T12:23:29Z</time>
      </trkpt>
      <trkpt lat="41.902033" lon="0.889249">
        <ele>321.04</ele>
        <time>2017-01-18T12:23:49Z</time>
      </trkpt>
      <trkpt lat="41.901950" lon="0.889179">
        <ele>321.06</ele>
        <time>2017-01-18T12:24:09Z</time>
      </trkpt>
      <trkpt lat="41.902125" lon="0.889152">
        <ele>310.02</ele>
        <time>2017-01-18T12:24:29Z</time>
      </trkpt>
      <trkpt lat="41.902309" lon="0.889211">
        <ele>310.01</ele>
        <time>2017-01-18T12:24:49Z</time>
      </trkpt>
      <trkpt lat="41.902449" lon="0.889308">
        <ele>319.01</ele>
        <time>2017-01-18T12:25:09Z</time>
      </trkpt>
      <trkpt lat="41.902764" lon="0.889608">
        <ele>327.01</ele>
        <time>2017-01-18T12:25:29Z</time>
      </trkpt>
      <trkpt lat="41.902808" lon="0.889640">
        <ele>327.07</ele>
        <time>2017-01-18T12:25:49Z</time>
      </trkpt>
      <trkpt lat="41.903115" lon="0.889694">
        <ele>314.05</ele>
        <time>2017-01-18T12:26:09Z</time>
      </trkpt>
      <trkpt lat="41.903295" lon="0.889651">
        <ele>301.03</ele>
        <time>2017-01-18T12:26:29Z</time>
      </trkpt>
      <trkpt lat="41.903858" lon="0.889844">
        <ele>280.01</ele>
        <time>2017-01-18T12:26:49Z</time>
      </trkpt>
      <trkpt lat="41.903914" lon="0.889903">
        <ele>295.08</ele>
        <time>2017-01-18T12:27:09Z</time>
      </trkpt>
      <trkpt lat="41.904094" lon="0.889925">
        <ele>282.04</ele>
        <time>2017-01-18T12:27:29Z</time>
      </trkpt>
      <trkpt lat="41.904405" lon="0.890064">
        <ele>272.03</ele>
        <time>2017-01-18T12:27:49Z</time>
      </trkpt>
      <trkpt lat="41.904257" lon="0.889791">
        <ele>270.08</ele>
        <time>2017-01-18T12:28:09Z</time>
      </trkpt>
      <trkpt lat="41.904437" lon="0.889860">
        <ele>262.01</ele>
        <time>2017-01-18T12:28:29Z</time>
      </trkpt>
      <trkpt lat="41.904788" lon="0.890177">
        <ele>274.01</ele>
        <time>2017-01-18T12:28:49Z</time>
      </trkpt>
      <trkpt lat="41.905180" lon="0.890413">
        <ele>268.02</ele>
        <time>2017-01-18T12:29:09Z</time>
      </trkpt>
      <trkpt lat="41.905727" lon="0.891094">
        <ele>276.07</ele>
        <time>2017-01-18T12:29:29Z</time>
      </trkpt>
      <trkpt lat="41.905806" lon="0.891475">
        <ele>285.09</ele>
        <time>2017-01-18T12:29:49Z</time>
      </trkpt>
    </trkseg>
  </trk>
</gpx>
